[[{"header":{"parameterUnit":"m.s-1","parameterCategory":1,"la1":31.0,"la2":29.5877,"lo1":-88.7671,"lo2":-86.6584,"dy":0.0162,"dx":0.0185,"nx":115,"ny":88,"refTime":"2024-02-23T06:00:00:Z","depth":0,"parameterNumber":2,"parameterNumberName":"U-component_of_WINDS"},"data":[0.0,0.0,0.0,0.0,0.0,0.0,0.0,0.0,0.0,0.0,0.0,0.0,0.0,0.0,0.0,0.0,0.0,0.0,0.0,0.0,0.0,0.0,0.0,0.0,0.0,0.0,0.0,0.0,0.0,0.0,0.0,0.0,0.0,0.0,0.0,0.0,0.0,0.0,0.0,0.0,0.0,0.0,0.0,0.0,0.0,0.0,0.0,0.0,0.0,0.0,0.0,0.0,0.0,0.0,0.0,0.0,0.0,0.0,0.0,0.0,0.0,0.0,0.0,0.0,0.0,0.0,0.0,0.0,0.0,0.0,0.0,0.0,0.0,0.0,0.0,0.0,0.0,0.0,0.0,0.0,0.0,0.0,0.0,0.0,0.0,0.0,0.0,0.0,0.0,0.0,0.0,0.0,0.0,0.0,0.0,0.0,0.0,0.0,0.0,0.0,0.0,0.0,0.0,0.0,0.0,0.0,0.0,0.0,0.0,0.0,0.0,0.0,0.0,0.0,0.0,0.0,0.0,0.0,0.0,0.0,0.0,0.0,0.0,0.0,0.0,0.0,0.0,0.0,0.0,0.0,0.0,0.0,0.0,0.0,0.0,0.0,0.0,0.0,0.0,0.0,0.0,0.0,0.0,0.0,0.0,0.0,0.0,0.0,0.0,0.0,0.0,0.0,0.0,0.0,0.0,0.0,0.0,0.0,0.0,0.0,0.0,0.0,0.0,0.0,0.0,0.0,0.0,0.0,0.0,0.0,0.0,0.0,0.0,0.0,0.0,0.0,0.0,0.0,0.0,0.0,0.0,0.0,0.0,0.0,0.0,0.0,0.0,0.0,0.0,0.0,0.0,0.0,0.0,0.0,0.0,0.0,0.0,0.0,0.0,0.0,0.0,0.0,0.0,0.0,0.0,0.0,0.0,0.0,0.0,0.0,0.0,0.0,0.0,0.0,0.0,0.0,0.0,0.0,0.0,0.0,0.0,0.0,0.0,0.0,0.0,0.0,0.0,0.0,0.0,0.0,0.0,0.0,0.0,0.0,0.0,0.0,0.0,0.0,0.0,0.0,0.0,0.0,0.0,0.0,0.0,0.0,0.0,0.0,0.0,0.0,0.0,0.0,0.0,0.0,0.0,0.0,0.0,0.0,0.0,0.0,0.0,0.0,0.0,0.0,0.0,0.0,0.0,0.0,0.0,0.0,0.0,0.0,0.0,0.0,0.0,0.0,0.0,0.0,0.0,0.0,0.0,0.0,0.0,0.0,0.0,0.0,0.0,0.0,0.0,0.0,0.0,0.0,0.0,0.0,0.0,0.0,0.0,0.0,0.0,0.0,0.0,0.0,0.0,0.0,0.0,0.0,0.0,0.0,0.0,0.0,0.0,0.0,0.0,0.0,0.0,0.0,0.0,0.0,0.0,0.0,0.0,0.0,0.0,0.0,0.0,0.0,0.0,0.0,0.0,0.0,0.0,0.0,0.0,0.0,0.0,0.0,0.0,0.0,0.0,0.0,0.0,0.0,0.0,0.0,0.0,0.0,0.0,0.0,0.0,0.0,0.0,0.0,0.0,0.0,0.0,0.0,0.0,0.0,0.0,0.0,0.0,0.0,0.0,0.0,0.0,0.0,0.0,0.0,0.0,0.0,0.0,0.0,0.0,0.0,0.0,0.0,0.0,0.0,0.0,0.0,0.0,0.0,0.0,0.0,0.0,0.0,0.0,0.0,0.0,0.0,0.0,0.0,0.0,0.0,0.0,0.0,0.0,0.0,0.0,0.0,0.0,0.0,0.0,0.0,0.0,0.0,0.0,0.0,0.0,0.0,0.0,0.0,0.0,0.0,0.0,0.0,0.0,0.0,0.0,0.0,0.0,0.0,0.0,0.0,0.0,0.0,0.0,0.0,0.0,0.0,0.0,0.0,0.0,0.0,0.0,0.0,0.0,0.0,0.0,0.0,0.0,0.0,0.0,0.0,0.0,0.0,0.0,0.0,0.0,0.0,0.0,0.0,0.0,0.0,0.0,0.0,0.0,0.0,0.0,0.0,0.0,0.0,0.0,0.0,0.0,0.0,0.0,0.0,0.0,0.0,0.0,0.0,0.0,0.0,0.0,0.0,0.0,0.0,0.0,0.0,0.0,0.0,0.0,0.0,0.0,0.0,0.0,0.0,0.0,0.0,0.0,0.0,0.0,0.0,0.0,0.0,0.0,0.0,0.0,0.0,0.0,0.0,0.0,0.0,0.0,0.0,0.0,0.0,0.0,0.0,0.0,0.0,0.0,0.0,0.0,0.0,0.0,0.0,0.0,0.0,0.0,0.0,0.0,0.0,0.0,0.0,0.0,0.0,0.0,0.0,0.0,0.0,0.0,0.0,0.0,0.0,0.0,0.0,0.0,0.0,0.0,0.0,0.0,0.0,0.0,0.0,0.0,0.0,0.0,0.0,0.0,0.0,0.0,0.0,0.0,0.0,0.0,0.0,0.0,0.0,0.0,0.0,0.0,0.0,0.0,0.0,0.0,0.0,0.0,0.0,0.0,0.0,0.0,0.0,0.0,0.0,0.0,0.0,0.0,0.0,0.0,0.0,0.0,0.0,0.0,0.0,0.0,0.0,0.0,0.0,0.0,0.0,0.0,0.0,0.0,0.0,0.0,0.0,0.0,0.0,0.0,0.0,0.0,0.0,0.0,0.0,0.0,0.0,0.0,0.0,0.0,0.0,0.0,0.0,0.0,0.0,0.0,0.0,0.0,0.0,0.0,0.0,0.0,0.0,0.0,0.0,0.0,0.0,0.0,0.0,0.0,0.0,0.0,0.0,0.0,0.0,0.0,0.0,0.0,0.0,0.0,0.0,0.0,0.0,0.0,0.0,0.0,0.0,0.0,0.0,0.0,0.0,0.0,0.0,0.0,0.0,0.0,0.0,0.0,0.0,0.0,0.0,0.0,0.0,0.0,0.0,0.0,0.0,0.0,0.0,0.0,0.0,0.0,0.0,0.0,0.0,0.0,0.0,0.0,0.0,0.0,0.0,0.0,0.0,0.0,0.0,0.0,0.0,0.0,0.0,0.0,0.0,0.0,0.0,0.0,0.0,0.0,0.0,0.0,0.0,0.0,0.0,0.0,0.0,0.0,0.0,0.0,0.0,0.0,0.0,0.0,0.0,0.0,0.0,0.0,0.0,0.0,0.0,0.0,0.0,0.0,0.0,0.0,0.0,0.0,0.0,0.0,0.0,0.0,0.0,0.0,0.0,0.0,0.0,0.0,0.0,0.0,0.0,0.0,0.0,0.0,0.0,0.0,0.0,0.0,0.0,0.0,0.0,0.0,0.0,0.0,0.0,0.0,0.0,0.0,0.0,0.0,0.0,0.0,0.0,0.0,0.0,0.0,0.0,0.0,0.0,0.0,0.0,0.0,0.0,0.0,0.0,0.0,0.0,0.0,0.0,0.0,0.0,0.0,0.0,0.0,0.0,0.0,0.0,0.0,0.0,0.0,0.0,0.0,0.0,0.0,0.0,0.0,0.0,0.0,0.0,0.0,0.0,0.0,0.0,0.0,0.0,0.0,0.0,0.0,0.0,0.0,0.0,0.0,0.0,0.0,0.0,0.0,0.0,0.0,0.0,0.0,0.0,0.0,0.0,0.0,0.0,0.0,0.0,0.0,0.0,0.0,0.0,0.0,0.0,0.0,0.0,0.0,0.0,0.0,0.0,0.0,0.0,0.0,0.0,0.0,0.0,0.0,0.0,0.0,0.0,0.0,0.0,0.0,0.0,0.0,0.0,0.0,0.0,0.0,0.0,0.0,0.0,0.0,0.0,0.0,0.0,0.0,0.0,0.0,0.0,0.0,0.0,0.0,0.0,0.0,0.0,0.0,0.0,0.0,0.0,0.0,0.0,0.0,0.0,0.0,0.0,0.0,0.0,0.0,0.0,0.0,0.0,0.0,0.0,0.0,0.0,0.0,0.0,0.0,0.0,0.0,0.0,0.0,0.0,0.0,0.0,0.0,0.0,0.0,0.0,0.0,0.0,0.0,0.0,0.0,0.0,0.0,0.0,0.0,0.0,0.0,0.0,0.0,0.0,0.0,0.0,0.0,0.0,0.0,0.0,0.0,0.0,0.0,0.0,0.0,0.0,0.0,0.0,0.0,0.0,0.0,0.0,0.0,0.0,0.0,0.0,0.0,0.0,0.0,0.0,0.0,0.0,0.0,0.0,0.0,0.0,0.0,0.0,0.0,0.0,0.0,0.0,0.0,0.0,0.0,0.0,0.0,0.0,0.0,0.0,-5.0159,0.0,0.0,0.0,0.0,0.0,0.0,0.0,0.0,0.0,0.0,0.0,0.0,0.0,0.0,0.0,0.0,0.0,0.0,0.0,0.0,0.0,0.0,0.0,0.0,0.0,0.0,0.0,0.0,0.0,0.0,0.0,0.0,0.0,0.0,0.0,0.0,0.0,0.0,0.0,0.0,0.0,0.0,0.0,0.0,0.0,0.0,0.0,0.0,0.0,0.0,0.0,0.0,0.0,0.0,0.0,0.0,0.0,0.0,0.0,0.0,0.0,0.0,0.0,0.0,0.0,0.0,0.0,0.0,0.0,0.0,0.0,0.0,0.0,0.0,0.0,0.0,0.0,0.0,0.0,0.0,0.0,0.0,0.0,0.0,0.0,0.0,0.0,0.0,0.0,0.0,0.0,0.0,0.0,0.0,0.0,0.0,0.0,0.0,0.0,0.0,0.0,0.0,0.0,0.0,0.0,0.0,0.0,0.0,0.0,0.0,-5.0782,-5.0743,-5.0644,-5.0537,-5.0434,0.0,0.0,0.0,0.0,0.0,0.0,0.0,0.0,0.0,0.0,0.0,0.0,0.0,0.0,0.0,0.0,0.0,0.0,0.0,0.0,0.0,0.0,0.0,0.0,0.0,0.0,0.0,0.0,0.0,0.0,0.0,0.0,0.0,0.0,0.0,0.0,0.0,0.0,0.0,0.0,0.0,0.0,0.0,0.0,0.0,0.0,0.0,0.0,0.0,0.0,0.0,0.0,0.0,0.0,0.0,0.0,0.0,0.0,0.0,0.0,0.0,0.0,0.0,0.0,0.0,0.0,0.0,0.0,0.0,0.0,0.0,0.0,0.0,0.0,0.0,0.0,0.0,0.0,0.0,0.0,0.0,0.0,0.0,0.0,0.0,0.0,0.0,0.0,0.0,0.0,0.0,0.0,0.0,0.0,0.0,0.0,0.0,0.0,0.0,0.0,0.0,0.0,0.0,0.0,0.0,0.0,0.0,0.0,0.0,0.0,0.0,0.0,-5.0773,-5.0616,-5.0507,0.0,0.0,0.0,0.0,0.0,0.0,0.0,0.0,0.0,0.0,0.0,0.0,0.0,0.0,0.0,0.0,0.0,0.0,0.0,0.0,0.0,0.0,0.0,0.0,0.0,0.0,0.0,0.0,0.0,0.0,0.0,0.0,0.0,0.0,0.0,0.0,0.0,0.0,0.0,0.0,0.0,0.0,0.0,0.0,0.0,0.0,0.0,0.0,0.0,0.0,0.0,0.0,0.0,0.0,0.0,0.0,0.0,0.0,0.0,0.0,0.0,0.0,0.0,0.0,0.0,0.0,0.0,0.0,0.0,0.0,0.0,0.0,0.0,0.0,0.0,0.0,0.0,0.0,0.0,0.0,0.0,0.0,0.0,0.0,0.0,0.0,0.0,0.0,0.0,0.0,0.0,0.0,0.0,0.0,0.0,0.0,0.0,0.0,0.0,0.0,0.0,0.0,0.0,0.0,0.0,0.0,0.0,0.0,0.0,0.0,-5.0898,-5.0898,-5.0882,0.0,-5.0264,0.0,0.0,0.0,0.0,0.0,0.0,0.0,0.0,0.0,0.0,0.0,0.0,0.0,0.0,0.0,0.0,0.0,0.0,0.0,0.0,0.0,0.0,0.0,0.0,0.0,0.0,0.0,0.0,0.0,0.0,0.0,0.0,0.0,0.0,0.0,0.0,0.0,0.0,0.0,0.0,0.0,0.0,0.0,0.0,0.0,0.0,0.0,0.0,0.0,0.0,0.0,0.0,0.0,0.0,0.0,0.0,0.0,0.0,0.0,0.0,0.0,0.0,0.0,0.0,0.0,0.0,0.0,0.0,0.0,0.0,0.0,0.0,0.0,0.0,0.0,0.0,0.0,0.0,0.0,0.0,0.0,0.0,0.0,0.0,0.0,0.0,0.0,0.0,0.0,0.0,0.0,0.0,0.0,0.0,0.0,0.0,0.0,0.0,0.0,0.0,0.0,0.0,0.0,0.0,0.0,0.0,0.0,0.0,0.0,0.0,-5.0898,-5.0898,-5.0898,-5.0743,0.0,0.0,0.0,0.0,0.0,0.0,0.0,0.0,0.0,0.0,0.0,0.0,0.0,0.0,0.0,0.0,0.0,0.0,0.0,0.0,0.0,0.0,0.0,0.0,0.0,0.0,0.0,0.0,0.0,0.0,0.0,0.0,0.0,0.0,0.0,0.0,0.0,0.0,0.0,0.0,0.0,0.0,0.0,0.0,0.0,0.0,0.0,0.0,0.0,0.0,0.0,0.0,0.0,0.0,0.0,0.0,0.0,0.0,0.0,0.0,0.0,0.0,0.0,0.0,0.0,0.0,0.0,0.0,0.0,0.0,0.0,0.0,0.0,0.0,0.0,0.0,0.0,0.0,0.0,0.0,0.0,0.0,0.0,0.0,0.0,0.0,0.0,0.0,0.0,0.0,0.0,0.0,0.0,0.0,0.0,0.0,0.0,0.0,0.0,0.0,0.0,0.0,0.0,0.0,0.0,0.0,0.0,0.0,0.0,0.0,-5.0898,-5.0898,-5.0898,-5.0898,-5.0825,-5.0596,0.0,0.0,0.0,0.0,0.0,0.0,0.0,0.0,0.0,0.0,0.0,0.0,0.0,0.0,0.0,0.0,0.0,0.0,0.0,0.0,0.0,0.0,0.0,0.0,0.0,0.0,0.0,0.0,0.0,0.0,0.0,0.0,0.0,0.0,0.0,0.0,0.0,0.0,0.0,0.0,0.0,0.0,0.0,0.0,0.0,0.0,0.0,0.0,0.0,0.0,0.0,0.0,0.0,0.0,0.0,0.0,0.0,0.0,0.0,0.0,0.0,0.0,0.0,0.0,0.0,0.0,0.0,0.0,0.0,0.0,0.0,0.0,0.0,0.0,0.0,0.0,0.0,0.0,0.0,0.0,0.0,0.0,0.0,0.0,0.0,0.0,0.0,0.0,0.0,0.0,0.0,0.0,0.0,0.0,0.0,0.0,0.0,0.0,0.0,0.0,0.0,0.0,0.0,0.0,0.0,0.0,0.0,0.0,-5.0898,-5.0898,-5.0898,-5.0898,-5.0898,-5.0786,0.0,0.0,0.0,0.0,0.0,0.0,0.0,0.0,0.0,0.0,0.0,0.0,0.0,0.0,0.0,0.0,0.0,0.0,0.0,0.0,0.0,0.0,0.0,0.0,0.0,0.0,0.0,0.0,0.0,0.0,0.0,0.0,0.0,0.0,0.0,0.0,0.0,0.0,0.0,0.0,0.0,0.0,0.0,0.0,0.0,0.0,0.0,0.0,0.0,0.0,0.0,0.0,0.0,0.0,0.0,0.0,0.0,0.0,0.0,0.0,0.0,0.0,0.0,0.0,0.0,0.0,0.0,0.0,0.0,0.0,0.0,0.0,0.0,0.0,0.0,0.0,0.0,0.0,0.0,0.0,0.0,0.0,0.0,0.0,0.0,0.0,0.0,0.0,0.0,0.0,0.0,0.0,0.0,0.0,0.0,0.0,0.0,0.0,0.0,0.0,0.0,0.0,0.0,0.0,0.0,0.0,0.0,0.0,0.0,-5.0898,-5.0898,-5.0898,-5.0898,-5.0898,-5.0874,0.0,0.0,0.0,0.0,0.0,0.0,0.0,0.0,0.0,0.0,0.0,0.0,0.0,0.0,0.0,0.0,0.0,0.0,0.0,0.0,0.0,0.0,0.0,0.0,0.0,0.0,0.0,0.0,0.0,0.0,0.0,0.0,0.0,0.0,0.0,0.0,0.0,0.0,0.0,0.0,0.0,0.0,0.0,0.0,0.0,0.0,0.0,0.0,0.0,0.0,0.0,0.0,0.0,0.0,0.0,0.0,0.0,0.0,0.0,0.0,0.0,0.0,0.0,0.0,0.0,0.0,0.0,0.0,0.0,0.0,0.0,0.0,0.0,0.0,0.0,0.0,0.0,0.0,0.0,0.0,0.0,0.0,0.0,0.0,0.0,0.0,0.0,0.0,0.0,0.0,0.0,0.0,0.0,0.0,0.0,0.0,0.0,0.0,0.0,0.0,0.0,0.0,0.0,0.0,0.0,0.0,0.0,0.0,0.0,-5.0124,0.0,-5.0395,-5.0086,-5.0086,-5.0094,0.0,0.0,0.0,0.0,0.0,0.0,0.0,0.0,0.0,0.0,0.0,0.0,0.0,0.0,0.0,0.0,0.0,0.0,0.0,0.0,0.0,0.0,0.0,0.0,0.0,0.0,0.0,0.0,0.0,0.0,0.0,0.0,0.0,0.0,0.0,0.0,0.0,0.0,0.0,0.0,0.0,0.0,0.0,0.0,0.0,0.0,0.0,0.0,0.0,0.0,0.0,0.0,0.0,0.0,0.0,0.0,0.0,0.0,0.0,0.0,0.0,0.0,0.0,0.0,0.0,0.0,0.0,0.0,0.0,0.0,0.0,0.0,0.0,0.0,0.0,0.0,0.0,0.0,0.0,0.0,0.0,0.0,0.0,0.0,0.0,0.0,0.0,0.0,0.0,0.0,0.0,0.0,0.0,0.0,0.0,0.0,0.0,0.0,0.0,0.0,0.0,0.0,0.0,0.0,0.0,0.0,0.0,0.0,-4.932,-4.8508,-4.9281,-4.932,-4.8469,-4.8469,-4.8469,0.0,0.0,0.0,0.0,0.0,0.0,0.0,0.0,0.0,0.0,0.0,0.0,0.0,0.0,0.0,0.0,0.0,0.0,0.0,0.0,0.0,0.0,0.0,0.0,0.0,0.0,0.0,0.0,0.0,0.0,0.0,0.0,0.0,0.0,0.0,0.0,0.0,0.0,0.0,0.0,0.0,0.0,0.0,0.0,0.0,0.0,0.0,0.0,0.0,0.0,0.0,0.0,0.0,0.0,0.0,0.0,0.0,0.0,0.0,0.0,0.0,0.0,0.0,0.0,0.0,0.0,0.0,0.0,0.0,0.0,0.0,0.0,0.0,0.0,0.0,0.0,0.0,0.0,0.0,0.0,0.0,0.0,0.0,0.0,0.0,0.0,0.0,0.0,0.0,0.0,0.0,0.0,0.0,0.0,0.0,0.0,0.0,0.0,0.0,0.0,0.0,0.0,0.0,0.0,0.0,0.0,0.0,0.0,0.0,-4.843,-4.8662,-4.8662,-4.843,-4.8392,-4.8392,0.0,0.0,0.0,0.0,0.0,0.0,0.0,0.0,0.0,0.0,0.0,0.0,0.0,0.0,0.0,0.0,0.0,0.0,0.0,0.0,0.0,0.0,0.0,0.0,0.0,0.0,0.0,0.0,0.0,0.0,0.0,0.0,0.0,0.0,0.0,0.0,0.0,0.0,0.0,0.0,0.0,0.0,0.0,0.0,0.0,0.0,0.0,0.0,0.0,0.0,0.0,0.0,0.0,0.0,0.0,0.0,0.0,0.0,0.0,0.0,0.0,0.0,0.0,0.0,0.0,0.0,0.0,0.0,0.0,0.0,0.0,0.0,0.0,0.0,0.0,0.0,0.0,0.0,0.0,0.0,0.0,0.0,0.0,0.0,0.0,0.0,0.0,0.0,0.0,0.0,0.0,0.0,0.0,0.0,0.0,0.0,0.0,0.0,0.0,0.0,0.0,0.0,0.0,0.0,0.0,0.0,0.0,0.0,0.0,-4.8894,-4.8894,-4.8701,-4.8392,-4.8392,-4.8082,-4.7463,0.0,0.0,0.0,0.0,0.0,0.0,0.0,0.0,0.0,0.0,0.0,0.0,0.0,0.0,0.0,0.0,0.0,0.0,0.0,0.0,0.0,0.0,0.0,0.0,0.0,0.0,0.0,0.0,0.0,0.0,0.0,0.0,0.0,0.0,0.0,0.0,0.0,0.0,0.0,0.0,0.0,0.0,0.0,0.0,0.0,0.0,0.0,0.0,0.0,0.0,0.0,0.0,0.0,0.0,0.0,0.0,0.0,0.0,0.0,0.0,0.0,0.0,0.0,0.0,0.0,0.0,0.0,0.0,0.0,0.0,0.0,0.0,0.0,0.0,0.0,0.0,0.0,0.0,0.0,0.0,0.0,0.0,0.0,0.0,0.0,0.0,0.0,0.0,0.0,0.0,0.0,0.0,0.0,0.0,0.0,0.0,0.0,0.0,0.0,0.0,0.0,0.0,0.0,0.0,0.0,0.0,0.0,0.0,-4.9745,-4.9861,-4.9475,-4.8624,-4.8469,-4.7618,0.0,0.0,0.0,0.0,0.0,0.0,0.0,0.0,0.0,0.0,0.0,0.0,0.0,0.0,0.0,0.0,0.0,0.0,0.0,0.0,0.0,0.0,0.0,0.0,0.0,0.0,0.0,0.0,0.0,0.0,0.0,0.0,0.0,0.0,0.0,0.0,0.0,0.0,0.0,0.0,0.0,0.0,0.0,0.0,0.0,0.0,0.0,0.0,0.0,0.0,0.0,0.0,0.0,0.0,0.0,0.0,0.0,0.0,0.0,0.0,0.0,0.0,0.0,0.0,0.0,0.0,0.0,0.0,0.0,0.0,0.0,0.0,0.0,0.0,0.0,0.0,0.0,0.0,0.0,0.0,0.0,0.0,0.0,0.0,0.0,0.0,0.0,0.0,0.0,0.0,0.0,0.0,0.0,0.0,0.0,0.0,0.0,0.0,0.0,0.0,0.0,0.0,0.0,0.0,0.0,0.0,0.0,0.0,0.0,-5.0627,-5.1834,-5.1796,-5.0279,-4.9049,-4.8198,0.0,0.0,0.0,0.0,0.0,0.0,0.0,0.0,0.0,0.0,0.0,0.0,0.0,0.0,0.0,0.0,0.0,0.0,0.0,0.0,0.0,0.0,0.0,0.0,0.0,0.0,0.0,0.0,0.0,0.0,0.0,0.0,0.0,0.0,0.0,0.0,0.0,0.0,0.0,0.0,0.0,0.0,0.0,0.0,0.0,0.0,0.0,0.0,0.0,0.0,0.0,0.0,0.0,0.0,0.0,0.0,0.0,0.0,0.0,0.0,0.0,0.0,0.0,0.0,0.0,0.0,0.0,0.0,0.0,0.0,0.0,0.0,0.0,0.0,0.0,0.0,0.0,0.0,0.0,0.0,0.0,0.0,0.0,0.0,0.0,0.0,0.0,0.0,0.0,0.0,0.0,0.0,0.0,0.0,0.0,0.0,0.0,0.0,0.0,0.0,0.0,0.0,0.0,0.0,0.0,0.0,0.0,0.0,-5.1107,-5.1517,-5.353,-5.4102,-5.3135,-5.072,-4.9126,0.0,0.0,0.0,0.0,0.0,0.0,0.0,0.0,0.0,0.0,0.0,0.0,0.0,0.0,0.0,0.0,0.0,0.0,0.0,0.0,0.0,0.0,0.0,0.0,0.0,0.0,0.0,0.0,0.0,0.0,0.0,0.0,0.0,0.0,0.0,0.0,0.0,0.0,0.0,0.0,0.0,0.0,0.0,0.0,0.0,0.0,0.0,0.0,0.0,0.0,0.0,0.0,0.0,0.0,0.0,0.0,0.0,0.0,0.0,0.0,0.0,0.0,0.0,0.0,0.0,0.0,0.0,0.0,0.0,0.0,0.0,0.0,0.0,0.0,0.0,0.0,0.0,0.0,0.0,0.0,0.0,0.0,0.0,0.0,0.0,0.0,0.0,0.0,0.0,0.0,0.0,0.0,0.0,0.0,0.0,0.0,0.0,0.0,0.0,0.0,0.0,0.0,0.0,0.0,0.0,0.0,0.0,0.0,-5.1587,-5.2446,-5.4847,-5.6125,-5.6001,-5.2709,-5.021,0.0,0.0,0.0,0.0,0.0,0.0,0.0,0.0,0.0,0.0,0.0,0.0,0.0,0.0,0.0,0.0,0.0,0.0,0.0,0.0,0.0,0.0,0.0,0.0,0.0,0.0,0.0,0.0,0.0,0.0,0.0,0.0,0.0,0.0,0.0,0.0,0.0,0.0,0.0,0.0,0.0,0.0,0.0,0.0,0.0,0.0,0.0,0.0,0.0,0.0,0.0,0.0,0.0,0.0,0.0,0.0,0.0,0.0,0.0,0.0,0.0,0.0,0.0,0.0,0.0,0.0,0.0,0.0,0.0,0.0,0.0,0.0,0.0,0.0,0.0,0.0,0.0,0.0,0.0,0.0,0.0,0.0,0.0,0.0,0.0,0.0,0.0,0.0,0.0,0.0,0.0,0.0,0.0,0.0,0.0,0.0,0.0,0.0,0.0,0.0,0.0,0.0,0.0,0.0,0.0,0.0,0.0,0.0,-5.3135,-5.3336,-5.5188,-5.6203,-5.6164,-5.2794,-5.0782,0.0,0.0,0.0,0.0,0.0,0.0,0.0,0.0,0.0,0.0,0.0,0.0,0.0,0.0,0.0,0.0,0.0,0.0,0.0,0.0,0.0,0.0,0.0,0.0,0.0,0.0,0.0,0.0,0.0,0.0,0.0,0.0,0.0,0.0,0.0,0.0,0.0,0.0,0.0,0.0,0.0,0.0,0.0,0.0,0.0,0.0,0.0,0.0,-4.4879,0.0,0.0,0.0,0.0,0.0,0.0,0.0,0.0,0.0,0.0,0.0,0.0,0.0,0.0,0.0,0.0,0.0,0.0,0.0,0.0,0.0,0.0,0.0,0.0,0.0,0.0,0.0,0.0,0.0,0.0,0.0,0.0,0.0,0.0,0.0,0.0,0.0,0.0,0.0,0.0,0.0,0.0,0.0,0.0,0.0,0.0,0.0,0.0,0.0,0.0,0.0,0.0,0.0,0.0,0.0,0.0,0.0,0.0,0.0,-5.202,-5.2436,-5.4123,-5.5029,-5.4929,-5.2426,-5.1034,0.0,0.0,0.0,0.0,0.0,0.0,0.0,0.0,0.0,0.0,0.0,0.0,0.0,0.0,0.0,0.0,0.0,0.0,0.0,0.0,0.0,0.0,0.0,0.0,0.0,0.0,0.0,0.0,0.0,0.0,0.0,0.0,0.0,0.0,0.0,0.0,0.0,0.0,0.0,0.0,0.0,0.0,0.0,0.0,0.0,0.0,0.0,0.0,0.0,0.0,0.0,0.0,0.0,0.0,0.0,0.0,0.0,0.0,0.0,0.0,0.0,0.0,0.0,0.0,0.0,0.0,0.0,0.0,0.0,0.0,0.0,0.0,0.0,0.0,0.0,0.0,0.0,0.0,0.0,0.0,0.0,0.0,0.0,0.0,0.0,0.0,0.0,0.0,0.0,0.0,0.0,0.0,0.0,0.0,0.0,0.0,0.0,0.0,0.0,0.0,0.0,0.0,0.0,0.0,0.0,0.0,0.0,-4.8943,-5.0381,-5.1495,-5.2957,-5.3701,-5.3682,-5.2026,-5.0972,-5.0593,0.0,0.0,0.0,0.0,0.0,0.0,0.0,0.0,0.0,0.0,0.0,0.0,0.0,0.0,0.0,0.0,0.0,0.0,0.0,0.0,0.0,0.0,0.0,0.0,0.0,0.0,0.0,0.0,0.0,0.0,0.0,0.0,0.0,0.0,0.0,0.0,0.0,0.0,-4.6005,-4.5231,0.0,0.0,0.0,0.0,0.0,0.0,0.0,0.0,-4.5948,0.0,0.0,0.0,0.0,0.0,0.0,0.0,0.0,0.0,0.0,0.0,0.0,0.0,0.0,0.0,0.0,0.0,0.0,0.0,0.0,0.0,0.0,0.0,0.0,0.0,0.0,0.0,0.0,0.0,0.0,0.0,0.0,0.0,0.0,0.0,0.0,0.0,0.0,0.0,0.0,0.0,0.0,0.0,0.0,0.0,0.0,0.0,0.0,0.0,0.0,0.0,0.0,0.0,0.0,0.0,0.0,-4.8261,-4.9279,-5.094,-5.3306,-5.3623,-5.3792,-5.3735,-5.2103,-5.0467,-4.8968,0.0,0.0,0.0,0.0,0.0,0.0,0.0,0.0,0.0,0.0,0.0,0.0,0.0,0.0,0.0,0.0,0.0,0.0,0.0,0.0,0.0,0.0,0.0,0.0,0.0,0.0,0.0,0.0,0.0,0.0,0.0,0.0,0.0,0.0,0.0,0.0,0.0,0.0,0.0,-4.4793,-4.4451,0.0,0.0,0.0,0.0,0.0,0.0,0.0,0.0,-4.6889,0.0,0.0,0.0,0.0,0.0,0.0,0.0,0.0,0.0,0.0,0.0,0.0,0.0,0.0,0.0,0.0,0.0,0.0,0.0,0.0,0.0,0.0,0.0,0.0,0.0,0.0,0.0,0.0,0.0,0.0,0.0,0.0,0.0,0.0,0.0,0.0,0.0,0.0,0.0,0.0,0.0,0.0,0.0,0.0,0.0,0.0,0.0,0.0,0.0,0.0,0.0,0.0,0.0,0.0,0.0,-4.784,-4.9198,-5.0959,-5.3035,-5.3164,-5.3186,-5.3077,-5.1477,-4.9503,0.0,0.0,0.0,0.0,0.0,0.0,0.0,0.0,0.0,0.0,0.0,0.0,0.0,0.0,0.0,0.0,0.0,0.0,0.0,0.0,0.0,0.0,0.0,0.0,0.0,0.0,0.0,0.0,0.0,0.0,0.0,0.0,0.0,0.0,0.0,0.0,0.0,0.0,0.0,0.0,-4.5898,-4.6323,-4.8033,0.0,0.0,0.0,0.0,0.0,0.0,-4.8057,-4.7393,0.0,0.0,0.0,0.0,0.0,0.0,0.0,0.0,0.0,0.0,0.0,0.0,0.0,0.0,0.0,0.0,0.0,0.0,0.0,0.0,0.0,0.0,0.0,0.0,0.0,0.0,0.0,0.0,0.0,0.0,0.0,0.0,0.0,0.0,0.0,0.0,0.0,0.0,0.0,0.0,0.0,0.0,0.0,0.0,0.0,0.0,0.0,0.0,0.0,0.0,0.0,0.0,0.0,0.0,0.0,-4.703,-4.8798,-5.0657,-5.2444,-5.2576,-5.257,-5.247,-5.0569,-4.837,0.0,0.0,0.0,0.0,0.0,0.0,0.0,0.0,0.0,0.0,0.0,0.0,0.0,0.0,0.0,0.0,0.0,0.0,0.0,0.0,0.0,0.0,0.0,0.0,0.0,0.0,0.0,0.0,0.0,0.0,0.0,0.0,0.0,0.0,0.0,0.0,0.0,0.0,0.0,0.0,0.0,-4.7676,-4.9355,-4.8999,0.0,0.0,0.0,0.0,-4.954,-4.9189,0.0,0.0,0.0,0.0,0.0,0.0,0.0,0.0,0.0,0.0,0.0,0.0,0.0,0.0,0.0,0.0,0.0,0.0,0.0,0.0,0.0,0.0,0.0,0.0,0.0,0.0,0.0,0.0,0.0,0.0,0.0,0.0,0.0,0.0,0.0,0.0,0.0,0.0,0.0,0.0,0.0,0.0,0.0,0.0,0.0,0.0,0.0,0.0,0.0,0.0,0.0,0.0,0.0,0.0,0.0,0.0,-4.6233,-4.796,-5.0116,-5.2524,-5.2615,-5.2578,-5.2537,-4.9408,-4.7196,0.0,0.0,0.0,0.0,0.0,0.0,0.0,0.0,0.0,0.0,0.0,0.0,0.0,0.0,0.0,0.0,0.0,0.0,0.0,0.0,0.0,0.0,0.0,0.0,0.0,0.0,0.0,0.0,0.0,0.0,0.0,0.0,0.0,0.0,0.0,0.0,0.0,0.0,0.0,0.0,0.0,-4.5909,-4.7627,-4.7822,-4.7977,0.0,0.0,-5.1375,-5.2119,-5.2819,0.0,0.0,0.0,0.0,0.0,0.0,0.0,0.0,0.0,0.0,0.0,0.0,0.0,0.0,0.0,0.0,0.0,0.0,0.0,0.0,0.0,0.0,0.0,0.0,0.0,0.0,0.0,0.0,0.0,0.0,0.0,0.0,0.0,0.0,0.0,0.0,0.0,0.0,0.0,0.0,0.0,0.0,0.0,0.0,0.0,0.0,0.0,0.0,0.0,0.0,0.0,0.0,0.0,0.0,0.0,-4.5716,-4.6235,-4.9336,-5.1784,-5.3368,-5.3889,-5.4135,-5.4062,-5.0737,-4.8521,0.0,0.0,0.0,0.0,0.0,0.0,0.0,0.0,0.0,0.0,0.0,0.0,0.0,0.0,0.0,0.0,0.0,0.0,0.0,0.0,0.0,0.0,0.0,0.0,0.0,0.0,0.0,0.0,0.0,0.0,0.0,0.0,0.0,0.0,0.0,0.0,0.0,0.0,0.0,0.0,0.0,0.0,-4.8913,-4.9852,0.0,0.0,0.0,-5.1718,-5.055,0.0,0.0,0.0,0.0,0.0,0.0,0.0,0.0,0.0,0.0,0.0,0.0,0.0,0.0,0.0,0.0,0.0,0.0,0.0,0.0,0.0,0.0,0.0,0.0,0.0,0.0,0.0,0.0,0.0,0.0,0.0,0.0,0.0,0.0,0.0,0.0,0.0,0.0,0.0,0.0,0.0,0.0,0.0,0.0,0.0,0.0,0.0,0.0,0.0,0.0,0.0,0.0,0.0,0.0,0.0,0.0,0.0,-4.6911,-5.0931,-5.3451,-5.4303,-5.4966,-5.5254,-5.5192,-5.2303,0.0,0.0,0.0,0.0,0.0,0.0,0.0,0.0,0.0,0.0,0.0,0.0,0.0,0.0,0.0,0.0,0.0,0.0,0.0,0.0,0.0,0.0,0.0,0.0,0.0,0.0,0.0,-4.1388,0.0,0.0,0.0,0.0,0.0,0.0,0.0,0.0,0.0,0.0,0.0,0.0,0.0,0.0,-5.017,-5.0399,-5.1921,-5.3244,0.0,0.0,-5.2464,-5.1044,-5.3631,-5.4401,0.0,0.0,0.0,0.0,0.0,0.0,0.0,0.0,0.0,0.0,0.0,0.0,0.0,0.0,0.0,0.0,0.0,0.0,0.0,0.0,0.0,0.0,0.0,0.0,0.0,0.0,0.0,0.0,0.0,0.0,0.0,0.0,0.0,0.0,0.0,0.0,0.0,0.0,0.0,0.0,0.0,0.0,0.0,0.0,0.0,0.0,0.0,0.0,0.0,0.0,0.0,0.0,0.0,0.0,0.0,-4.8708,-5.2098,-5.4342,-5.5164,-5.5281,-5.5281,-5.5246,-5.343,-5.1288,0.0,0.0,0.0,0.0,0.0,0.0,0.0,0.0,0.0,0.0,0.0,0.0,0.0,0.0,0.0,0.0,0.0,0.0,0.0,0.0,0.0,0.0,0.0,0.0,0.0,0.0,0.0,0.0,0.0,0.0,0.0,0.0,0.0,0.0,0.0,0.0,0.0,0.0,0.0,0.0,0.0,-5.0399,-5.118,-5.278,-5.4713,0.0,0.0,-5.4431,-5.6453,-5.6997,-5.6108,-5.2762,0.0,0.0,0.0,0.0,0.0,0.0,0.0,0.0,0.0,0.0,0.0,0.0,0.0,0.0,0.0,0.0,0.0,0.0,0.0,0.0,0.0,0.0,0.0,0.0,0.0,0.0,0.0,0.0,0.0,0.0,0.0,0.0,0.0,0.0,0.0,0.0,0.0,0.0,0.0,0.0,0.0,0.0,0.0,0.0,0.0,0.0,0.0,0.0,0.0,0.0,0.0,0.0,0.0,-4.8476,-4.8905,-5.2794,-5.4966,-5.5281,-5.5825,-5.6098,-5.6098,-5.4392,-5.2491,0.0,0.0,0.0,0.0,0.0,0.0,0.0,0.0,0.0,0.0,0.0,0.0,0.0,0.0,0.0,0.0,0.0,0.0,0.0,0.0,0.0,0.0,0.0,0.0,0.0,0.0,0.0,0.0,-4.4803,-4.4922,-4.4249,0.0,0.0,0.0,0.0,0.0,0.0,0.0,0.0,0.0,0.0,-5.1752,-5.4092,-5.545,0.0,0.0,-5.6191,-5.4938,-5.425,-5.5105,-5.4504,-5.0571,-4.9704,0.0,0.0,0.0,0.0,0.0,0.0,0.0,0.0,0.0,0.0,0.0,0.0,0.0,0.0,0.0,0.0,0.0,0.0,0.0,0.0,0.0,0.0,0.0,0.0,0.0,0.0,0.0,0.0,0.0,0.0,0.0,0.0,0.0,0.0,0.0,0.0,0.0,0.0,0.0,0.0,0.0,0.0,0.0,0.0,0.0,0.0,0.0,0.0,0.0,0.0,0.0,0.0,-4.9335,-4.964,-5.3648,-5.5669,-5.5669,-5.6294,-5.6604,-5.6565,-5.5435,-5.3963,0.0,0.0,0.0,0.0,0.0,0.0,0.0,0.0,0.0,0.0,0.0,0.0,0.0,0.0,0.0,0.0,0.0,0.0,0.0,0.0,0.0,0.0,0.0,0.0,0.0,0.0,0.0,0.0,-4.5387,-4.5266,-4.3844,0.0,0.0,0.0,0.0,0.0,0.0,0.0,0.0,0.0,0.0,-5.3589,-5.5604,-5.6602,-5.7109,-5.7007,-5.6015,-5.4793,-5.3412,-5.4072,-5.363,-5.0357,0.0,0.0,0.0,0.0,0.0,0.0,0.0,0.0,0.0,0.0,0.0,0.0,0.0,0.0,0.0,0.0,0.0,0.0,0.0,0.0,0.0,0.0,0.0,0.0,0.0,0.0,0.0,0.0,0.0,0.0,-4.9636,0.0,0.0,0.0,0.0,0.0,0.0,0.0,0.0,0.0,0.0,0.0,0.0,0.0,0.0,0.0,0.0,0.0,0.0,0.0,0.0,0.0,0.0,-5.0459,-5.1357,-5.4701,-5.6528,-5.6528,-5.6565,-5.6604,-5.6604,-5.6567,-5.5708,-5.3953,0.0,0.0,0.0,0.0,0.0,0.0,0.0,0.0,0.0,0.0,0.0,0.0,0.0,0.0,0.0,0.0,0.0,0.0,0.0,0.0,0.0,0.0,0.0,0.0,0.0,0.0,-4.1618,-4.353,-4.4662,0.0,0.0,0.0,0.0,0.0,0.0,0.0,0.0,0.0,0.0,-5.294,-5.5833,-5.5061,-5.5631,-5.6167,-5.614,-5.4628,-5.3971,-5.5322,-5.4955,-5.4236,0.0,0.0,0.0,0.0,0.0,0.0,0.0,0.0,0.0,0.0,0.0,0.0,0.0,0.0,0.0,0.0,0.0,0.0,0.0,0.0,0.0,0.0,0.0,0.0,0.0,0.0,0.0,-5.0289,-5.0778,0.0,0.0,0.0,0.0,0.0,0.0,0.0,0.0,0.0,0.0,0.0,-4.988,-4.9905,0.0,0.0,0.0,0.0,0.0,0.0,0.0,0.0,0.0,0.0,0.0,0.0,-5.0263,-5.0688,-5.3957,-5.5747,-5.5747,-5.6294,-5.6604,-5.6604,-5.6604,-5.5786,-5.4068,0.0,0.0,0.0,0.0,0.0,0.0,0.0,0.0,0.0,0.0,0.0,0.0,0.0,0.0,0.0,0.0,0.0,0.0,0.0,0.0,0.0,0.0,0.0,0.0,0.0,-4.3801,0.0,0.0,0.0,0.0,0.0,0.0,0.0,0.0,0.0,0.0,0.0,-4.7271,-5.062,-5.1608,-5.2858,-5.5273,-5.5839,-5.6588,0.0,0.0,0.0,0.0,0.0,0.0,0.0,0.0,0.0,0.0,0.0,0.0,0.0,0.0,-5.2374,-5.0862,-5.1043,-5.1813,-5.3281,0.0,0.0,0.0,0.0,0.0,0.0,0.0,0.0,0.0,0.0,0.0,0.0,0.0,0.0,-5.0996,0.0,-5.1021,0.0,0.0,0.0,0.0,0.0,0.0,0.0,0.0,-5.0179,-5.0186,-4.9962,-4.9981,-4.9718,0.0,-4.8318,-4.6874,0.0,0.0,0.0,0.0,0.0,0.0,0.0,0.0,-5.026,-5.0686,-5.3684,-5.5435,-5.5747,-5.602,-5.6177,-5.6138,-5.5864,-5.5162,-5.4029,-5.2312,-5.075,0.0,0.0,0.0,0.0,0.0,0.0,0.0,0.0,0.0,0.0,0.0,0.0,0.0,0.0,0.0,0.0,0.0,0.0,0.0,0.0,0.0,0.0,0.0,-4.4504,0.0,0.0,0.0,0.0,0.0,0.0,0.0,0.0,0.0,-4.5633,-4.71,-4.9252,-5.2284,-5.2757,-5.3374,-5.4791,0.0,0.0,0.0,0.0,0.0,0.0,0.0,-5.1933,-5.1625,-5.2318,-5.3164,-5.4,-5.4549,-5.4818,-5.4587,0.0,0.0,-5.3923,-5.3917,-5.4722,-5.6145,-5.5216,-5.4457,-5.5258,-5.4978,-5.478,0.0,0.0,0.0,0.0,0.0,0.0,0.0,0.0,-5.0937,-5.0534,0.0,-5.0619,0.0,0.0,0.0,0.0,0.0,-4.9698,0.0,0.0,-5.0806,-5.083,-5.0095,-5.0192,-5.0234,-5.0195,-4.9375,-4.8555,-4.7734,-4.7652,0.0,0.0,0.0,0.0,0.0,0.0,-5.0451,-5.1348,-5.3838,-5.5591,-5.6333,-5.5669,-5.5281,-5.5242,-5.4459,-5.4029,-5.3951,-5.2429,-5.1063,-5.0163,-4.7861,0.0,0.0,0.0,0.0,0.0,0.0,0.0,0.0,0.0,0.0,0.0,0.0,0.0,0.0,0.0,0.0,0.0,0.0,0.0,0.0,-4.5051,0.0,0.0,0.0,0.0,0.0,0.0,0.0,0.0,0.0,0.0,-4.7377,-5.0079,-5.2485,-5.3202,0.0,0.0,0.0,0.0,-5.4521,-5.152,-5.0943,-5.1058,-5.125,-5.3126,-5.4895,-5.5665,0.0,0.0,-5.8511,-5.7049,-5.6319,-5.706,-5.8588,-5.8896,-5.6522,-5.6197,-5.6417,-5.7214,-5.6763,-5.6291,-5.6945,-5.7225,-5.7368,-5.0874,0.0,0.0,0.0,0.0,-5.0615,-5.1134,-5.1839,-5.1314,-5.1351,-5.1662,-5.1273,0.0,0.0,0.0,0.0,0.0,0.0,-4.9312,-4.9955,-5.0241,-5.0571,-5.0975,-5.1015,-5.1055,-5.1055,-5.082,-5.0546,-5.0312,-5.0309,-4.8944,-4.6289,0.0,0.0,0.0,0.0,-4.9041,-5.052,-5.2431,-5.3563,-5.3795,-5.4186,-5.4381,-5.4381,-5.4147,-5.399,-5.399,-5.3522,-5.2546,-5.1102,-5.0321,0.0,0.0,0.0,0.0,0.0,0.0,0.0,0.0,0.0,0.0,0.0,0.0,0.0,0.0,0.0,0.0,0.0,0.0,0.0,-4.4972,-4.6612,-4.6522,0.0,0.0,0.0,0.0,0.0,0.0,0.0,0.0,0.0,-5.0465,-5.0319,-5.0773,0.0,0.0,-5.1674,-5.0635,-5.2433,-5.4203,-5.506,0.0,0.0,0.0,-5.7896,-5.7473,-5.828,-6.005,-6.1281,-6.1062,-6.105,-6.1204,-6.1435,-6.2397,-6.2897,-6.2243,-6.155,-6.1396,-6.2127,-6.1281,-6.0369,-6.0562,-6.0177,-5.9935,-5.1004,-5.0998,-5.0596,-5.0453,-5.0467,-5.0559,-5.1079,-5.1818,-5.1373,-5.1316,-5.1472,-5.1281,-5.0544,-4.9383,-4.9379,0.0,0.0,0.0,-4.9647,-5.0577,-5.0576,-5.0856,-5.1367,-5.1406,-5.1406,-5.1406,-5.1405,-5.1404,-5.1402,-5.1044,-4.987,-4.7884,0.0,0.0,-4.8068,-4.8416,-4.927,-5.0594,-5.1999,-5.286,-5.321,-5.3405,-5.3279,-5.2908,-5.2905,-5.2857,-5.2827,-5.2827,-5.232,-5.1303,-5.0602,-4.9312,0.0,0.0,0.0,0.0,0.0,0.0,0.0,0.0,0.0,0.0,0.0,-4.466,0.0,0.0,0.0,0.0,-4.6089,-4.6391,-4.6362,-4.6872,0.0,0.0,0.0,0.0,0.0,0.0,0.0,-4.6474,-4.9264,-5.1538,-5.2289,-5.1818,-5.2049,-5.3703,-5.3356,-5.2664,-5.1972,0.0,-5.6011,-5.6896,-5.728,-5.8242,-6.0242,-6.0165,-6.0319,-6.182,-6.2589,-6.3051,-6.3089,-6.3243,-6.3435,-6.3782,-6.4243,-6.4705,-6.5051,-6.4397,-6.382,-6.4012,-6.2743,-6.1639,-6.1601,-6.1435,-6.1473,-5.1398,-5.1312,-5.0418,-5.0026,-4.9909,-4.9975,-5.0474,-5.1211,-5.1218,-5.0754,-5.0098,-5.0871,-5.0329,-4.8818,-4.8818,0.0,-5.0134,-5.0134,-5.0577,-5.1406,-5.1406,-5.1406,-5.1406,-5.1406,-5.1406,-5.1404,-5.1404,-5.1402,-5.1358,-5.061,-5.0137,-5.002,-5.0012,-4.9583,-4.8769,-4.9387,-5.0241,-5.118,-5.1958,-5.2813,-5.3706,-5.2965,-5.2122,-5.1234,-5.1191,-5.1152,-5.1014,-5.1002,-5.1002,-5.0963,-4.952,-4.8654,-4.8382,0.0,0.0,0.0,0.0,0.0,0.0,0.0,0.0,0.0,0.0,0.0,0.0,0.0,0.0,0.0,-4.8574,0.0,-4.8798,-4.6688,0.0,0.0,0.0,-4.5825,-4.8212,-4.9219,-4.9674,-4.9682,0.0,0.0,-5.3395,0.0,-5.5395,-5.7099,-5.778,-5.7511,-5.5818,-5.7665,-5.8934,-5.75,-5.8154,-5.8858,-5.9665,-6.1127,-6.3051,-6.5089,-6.5205,-6.4666,-6.4628,-6.4089,-6.3935,-6.4551,-6.4705,-6.4936,-6.5743,-6.5205,-6.4436,-6.3782,-6.2358,-6.1204,-6.1358,-6.1973,-6.2551,-5.3159,-5.3124,-5.2263,-5.1505,-5.0871,-5.0943,-5.1086,-5.1284,-5.1352,-5.1243,-5.1048,-5.1243,-5.1126,-5.0736,-5.0736,-5.0856,-5.1053,-5.1092,-5.1171,-5.1367,-5.1406,-5.1406,-5.1405,-5.1405,-5.1404,-5.14,-5.1396,-5.1394,-5.1391,-5.1189,-5.0442,-4.9153,-4.9112,-4.872,-4.7902,-4.7432,-4.7939,-4.9384,-4.9577,-5.0342,-5.1677,-5.1517,-5.1268,-5.1047,-5.1047,-5.1036,-5.1008,-5.1002,-5.1002,-5.0963,-5.0614,-4.9831,-4.8538,-4.568,0.0,0.0,0.0,0.0,0.0,0.0,0.0,0.0,0.0,-4.242,-3.9147,0.0,-4.3791,0.0,-4.8748,-5.1369,-5.1385,-5.0841,0.0,0.0,-4.7787,-4.7859,-4.902,-5.047,-5.1328,-5.1328,-5.3377,-5.5126,-5.5983,-5.6857,-5.8011,-5.9588,-5.7819,-5.5934,-5.5049,-5.7511,-5.9396,-5.9242,-6.1243,-6.332,-6.382,-6.4551,-6.5128,-6.5782,-6.5705,-6.559,-6.559,-6.5436,-6.5359,-6.5551,-6.559,-6.5705,-6.5859,-6.5705,-6.5551,-6.5282,-6.4436,-6.3705,-6.3705,-6.4359,-6.4974,-5.3908,-5.3793,-5.2992,-5.2326,-5.1839,-5.1507,-5.1357,-5.1358,-5.1405,-5.1406,-5.1406,-5.1406,-5.1406,-5.1406,-5.1406,-5.1406,-5.1406,-5.1406,-5.1406,-5.1406,-5.1406,-5.1405,-5.1405,-5.1403,-5.14,-5.1395,-5.1391,-5.1387,-5.1384,-5.1377,-5.0896,-4.9859,-4.9856,-4.9256,-4.8015,-4.6802,-4.6665,-4.7601,-4.8273,-4.9401,-5.093,-5.1002,-5.0629,-4.9841,-4.9795,-4.942,-4.8621,-4.8583,-4.8583,-4.8583,-4.8583,-4.8188,-4.7207,-4.4782,-4.3002,0.0,0.0,0.0,0.0,0.0,0.0,0.0,0.0,0.0,0.0,0.0,-4.5162,0.0,-4.9512,-5.168,-5.0534,-5.0411,-5.0256,-4.9916,-4.9907,-5.0642,-5.2559,-5.3626,-5.4318,-5.4692,-5.6319,-5.7588,-5.805,-5.8835,-5.9696,-6.063,-5.9131,-5.7796,-5.7627,-5.955,-6.1204,-6.132,-6.3474,-6.5308,-6.5821,-6.5859,-6.5846,-6.5859,-6.5859,-6.5859,-6.5897,-6.5897,-6.5897,-6.5897,-6.5897,-6.5897,-6.5897,-6.5897,-6.5974,-6.632,-6.6397,-6.6051,-6.5359,-6.582,-6.6436,-5.4336,-5.4258,-5.3398,-5.3047,-5.293,-5.1992,-5.1484,-5.1406,-5.1406,-5.1406,-5.1406,-5.1406,-5.1406,-5.1406,-5.1406,-5.1406,-5.1406,-5.1406,-5.1406,-5.1406,-5.1405,-5.1404,-5.1404,-5.14,-5.1395,-5.1389,-5.1384,-5.1377,-5.1367,-5.136,-5.1174,-5.0875,-5.0832,-4.997,-4.8194,-4.6779,-4.6041,-4.608,-4.767,-4.9204,-5.0571,-5.0416,-4.955,-4.8036,-4.7951,-4.7225,-4.568,-4.5594,-4.5594,-4.5594,-4.5594,-4.571,-4.5864,-4.3508,-4.2239,0.0,-4.0085,0.0,0.0,0.0,0.0,0.0,0.0,0.0,0.0,-4.7203,-4.7611,-4.8519,-5.0615,-5.1115,-4.924,-4.9086,-4.9971,-5.2077,-5.25,-5.3741,-5.6599,-5.7099,-5.7511,-5.8357,-5.9088,-5.9511,-5.9615,-6.026,-6.0697,-6.0697,-6.0582,-6.0364,-6.0796,-6.2038,-6.3089,-6.3308,-6.4769,-6.5782,-6.5755,-6.5793,-6.5793,-6.5793,-6.5807,-6.5833,-6.5897,-6.5897,-6.5897,-6.5897,-6.5897,-6.5936,-6.6013,-6.6167,-6.6551,-6.7359,-6.8129,-6.8167,-6.6974,-6.7167,-6.7552,-5.6094,-5.6015,-5.5195,-5.4805,-5.4687,-5.3125,-5.2031,-5.1406,-5.1406,-5.1406,-5.1406,-5.1406,-5.1406,-5.1406,-5.1406,-5.1406,-5.1406,-5.1406,-5.1406,-5.1406,-5.1405,-5.1403,-5.1399,-5.1394,-5.1387,-5.1377,-5.1297,-5.1229,-5.1225,-5.1152,-5.0397,-4.9043,-4.9004,-4.8133,-4.6463,0.0,0.0,0.0,-4.7449,-4.8461,-4.8587,-4.7315,-4.6458,-4.6116,-4.6108,0.0,-4.5633,-4.5594,-4.5594,-4.5594,-4.5594,0.0,0.0,0.0,0.0,0.0,0.0,0.0,0.0,0.0,0.0,0.0,-4.5838,-4.6257,-4.6912,-4.7542,-4.8816,-5.0971,-5.1615,-5.2549,-5.4087,-5.428,-5.4434,-5.4934,-5.5588,-5.6329,-5.6983,-5.7627,-5.8357,-5.9165,-5.9435,-5.9758,-6.0364,-6.0621,-6.0697,-6.0685,-6.0697,-6.0697,-6.071,-6.2168,-6.3231,-6.3423,-6.477,-6.5742,-6.5674,-6.5715,-6.578,-6.5793,-6.5846,-6.5885,-6.5897,-6.5897,-6.5897,-6.5897,-6.5897,-6.6128,-6.6705,-6.7436,-6.809,-6.9013,-6.9821,-7.0129,-6.9206,-6.959,-7.0167,-5.6601,0.0,-5.5664,-5.5039,0.0,-5.3242,-5.2187,-5.1406,-5.1406,-5.1406,-5.1406,-5.1406,-5.1406,-5.1367,-5.0976,-5.082,-5.0781,-5.0351,-5.0156,-5.0195,-5.0583,-5.0774,-5.0769,-5.1192,-5.138,-5.1373,-5.1278,-5.1203,-5.1199,-5.1063,-5.0545,-4.9691,-4.9653,-4.9224,-4.8315,-4.8205,-4.7747,-4.6899,-4.7764,-4.857,-4.9327,-4.8548,-4.7711,-4.6894,0.0,0.0,0.0,0.0,0.0,0.0,0.0,0.0,0.0,0.0,0.0,-4.6163,-4.5047,-4.4701,-4.5509,-4.5905,-4.7059,-4.9202,-5.0548,-5.0702,-4.9462,-5.0894,-5.2395,-5.3626,-5.3748,-5.4248,-5.5511,-5.5649,-5.578,-5.6225,-5.6675,-5.719,-5.7997,-5.8534,-5.911,-5.9879,-6.0032,-6.0212,-6.0597,-6.061,-6.061,-6.0635,-6.0635,-6.0635,-6.0763,-6.1811,-6.2874,-6.3719,-6.4845,-6.5688,-6.5608,-6.5622,-6.5715,-6.578,-6.582,-6.5859,-6.5897,-6.5897,-6.5897,-6.5897,-6.5897,-6.6167,-6.6936,-6.7782,-6.8654,-6.9552,-7.036,-7.0744,-7.036,-7.0629,-7.0898,-5.6601,-5.6523,-5.582,-5.5039,-5.4141,-5.3281,-5.2344,-5.1406,0.0,0.0,0.0,-5.125,-5.1172,-5.1133,-5.0508,-5.0117,-4.9961,-4.9531,-4.9257,-4.9178,-4.9954,-5.0339,-5.0373,-5.1068,-5.1375,-5.1412,-5.1225,-5.1178,-5.1174,-5.1014,-5.0918,-5.0882,-5.0866,-5.0829,-5.0721,-5.0702,-5.001,-4.8625,-4.824,-4.8779,-5.0173,-4.9942,-4.9125,-4.7702,-4.7663,-4.7009,-4.5671,-4.5594,-4.5594,-4.5594,-4.5594,-4.574,-4.6,-4.6038,-4.6154,-4.6453,-4.6482,-4.7097,-4.8404,-4.8481,-4.9787,-5.2979,-5.4709,-5.4797,-5.2682,-5.4451,-5.5682,-5.5682,-5.5626,-5.5588,-5.5632,-5.5593,-5.588,-5.6771,-5.6966,-5.7658,-5.9038,-5.946,-5.9818,-6.047,-6.0585,-6.0572,-6.0572,-6.052,-6.0545,-6.0597,-6.0623,-6.0623,-6.0738,-6.1595,-6.2836,-6.4074,-6.5071,-6.5594,-6.558,-6.5622,-6.5688,-6.578,-6.5807,-6.5833,-6.5885,-6.5897,-6.5897,-6.5897,-6.5897,-6.632,-6.7128,-6.7782,-6.859,-6.9667,-7.0283,-7.0744,-7.086,-7.0898,-7.0898,-5.6601,-5.6562,-5.6484,-5.5898,-5.5039,-5.418,-5.2891,-5.1406,-5.1406,-5.1406,-5.1367,-5.0664,-5.0391,-5.0351,-5.0273,-4.9805,-4.918,-5.0468,-5.0662,0.0,-5.0849,-5.1234,-5.1234,-5.1341,-5.1375,-5.1369,-5.1165,-5.1031,-5.1008,-5.0844,-5.074,-5.0721,-5.0712,-5.0702,-5.0712,-5.0702,-5.0596,-5.0317,-4.8856,-4.8202,-4.8432,-4.7048,-4.621,-4.5979,-4.6009,-4.5864,-4.5594,-4.5633,-4.5594,-4.5594,-4.5594,-4.6231,-4.7569,-4.7636,-4.8308,-4.9649,-4.9792,-4.9908,-5.0138,-5.0176,-5.0982,-5.2861,-5.4588,-5.5378,-5.5127,-5.5396,-5.5604,-5.5558,-5.5508,-5.5497,-5.5547,-5.5535,-5.5895,-5.675,-5.7479,-5.8272,-5.9243,-5.9933,-6.0354,-6.0546,-6.0623,-6.0584,-6.0506,-6.0518,-6.0506,-6.0597,-6.061,-6.061,-6.0802,-6.1965,-6.3203,-6.4197,-6.5029,-6.5489,-6.5552,-6.566,-6.5767,-6.5793,-6.5846,-6.5885,-6.5897,-6.5897,-6.5897,-6.5897,-6.5936,-6.6551,-6.7821,-6.7667,-6.8436,-7.009,-7.036,-7.0244,-7.0744,-7.0898,-7.0898,-5.6601,-5.6523,-5.6094,-5.539,-5.4492,-5.3164,-5.2148,-5.1406,-5.1406,-5.1406,-5.1367,-5.1016,-5.0859,-5.082,-5.0391,-5.0,-4.9609,-4.9921,-4.9841,-4.9565,-5.0339,-5.0684,-5.0718,-5.1182,-5.1375,-5.1369,-5.1113,-5.1002,-5.0978,-5.0778,-5.0702,-5.0702,-5.0702,-5.0702,-5.0702,-5.0702,-5.0702,-5.0702,-4.9904,-4.951,-4.951,-4.8788,-4.8365,-4.8365,-4.8365,-4.8365,-4.8365,-4.8365,-4.8365,-4.8365,-4.8327,-4.8644,-4.9355,-4.9363,-4.9677,-5.0434,-5.05,-5.05,-5.05,-5.1344,-5.2176,-5.2909,-5.4553,-5.5511,-5.5473,-5.5508,-5.5558,-5.5485,-5.5488,-5.5449,-5.5511,-5.5847,-5.6473,-5.734,-5.8196,-5.8869,-5.9493,-5.9883,-6.015,-6.015,-6.015,-6.0246,-6.045,-6.0425,-6.0491,-6.0506,-6.0571,-6.052,-6.0571,-6.1527,-6.2595,-6.3447,-6.4652,-6.5475,-6.5552,-6.5688,-6.5793,-6.5846,-6.5885,-6.5897,-6.5897,-6.5897,-6.5897,-6.5936,-6.6205,-6.7013,-6.8205,-6.8513,-6.9244,-7.0244,-7.0667,-7.0591,-7.0821,-7.0898,-7.0898,-5.6601,-5.6523,-5.5664,-5.4687,-5.3594,-5.207,-5.1406,-5.1406,-5.1406,-5.1406,-5.1367,-5.1211,-5.1133,-5.1055,-5.0469,-5.0078,-4.9882,-4.9607,-4.9369,-4.9286,-5.0023,-5.0406,-5.0438,-5.1102,-5.1375,-5.1364,-5.1152,-5.1002,-5.0972,-5.0778,-5.0702,-5.0702,-5.0702,-5.0702,-5.0702,-5.0702,-5.0702,-5.0702,-5.0702,-5.0702,-5.0702,-5.0702,-5.0664,-5.0702,-5.0664,-5.0702,-5.0702,-5.0702,-5.0702,-5.0702,-5.0653,-5.0612,-5.0563,-5.0511,-5.0478,-5.0468,-5.0457,-5.0544,-5.084,-5.2296,-5.3242,-5.3195,-5.4571,-5.5427,-5.5288,-5.5314,-5.5351,-5.5351,-5.539,-5.544,-5.5683,-5.6206,-5.7008,-5.7987,-5.862,-5.9094,-5.9571,-5.9656,-5.9689,-5.9739,-5.9772,-5.9953,-6.0285,-6.0384,-6.0412,-6.0504,-6.048,-6.048,-6.0594,-6.1138,-6.1936,-6.2921,-6.4293,-6.5283,-6.5569,-6.5767,-6.5833,-6.5897,-6.5897,-6.5897,-6.5897,-6.5897,-6.5897,-6.5974,-6.6551,-6.7321,-6.8205,-6.8859,-6.9667,-7.0552,-7.0667,-7.0629,-7.0821,-7.0898,-7.0898,-5.6601,-5.6484,-5.5664,-5.4336,-5.2773,-5.1797,-5.1406,-5.1406,-5.1406,-5.1406,-5.1328,-5.0664,-5.0351,-5.0312,-5.0194,-4.9803,-4.9295,-5.0538,-5.0727,-5.014,-5.0873,-5.1297,-5.1219,-5.1336,-5.1375,-5.1362,-5.1113,-5.1002,-5.0978,-5.0778,-5.0702,-5.0702,-5.0702,-5.0702,-5.0702,-5.0702,-5.0702,-5.0702,-5.0702,-5.0702,-5.0702,-5.0702,-5.0702,-5.0702,-5.0702,-5.0702,-5.0702,-5.0702,-5.0702,-5.0702,-5.0614,-5.0563,-5.0511,-5.0446,-5.039,-5.0306,-5.0344,-5.0638,-5.1479,-5.3046,-5.3887,-5.404,-5.4753,-5.5183,-5.4895,-5.4866,-5.4866,-5.4895,-5.5181,-5.5603,-5.6002,-5.6439,-5.7177,-5.8197,-5.853,-5.8727,-5.9173,-5.927,-5.9397,-5.9777,-5.9689,-5.9937,-6.0203,-6.0299,-6.037,-6.0412,-6.0412,-6.0439,-6.0543,-6.1023,-6.1889,-6.2839,-6.3904,-6.4816,-6.5536,-6.5846,-6.5885,-6.5897,-6.5897,-6.5897,-6.5897,-6.5897,-6.5897,-6.5974,-6.6667,-6.7513,-6.809,-6.8552,-6.9206,-7.0437,-7.0514,-7.009,-7.0667,-7.0898,-7.0898,-5.6601,-5.6445,-5.5117,-5.3516,-5.1992,-5.1562,-5.1406,-5.1406,-5.1406,-5.1406,-5.1367,-5.1055,-5.0898,-5.0937,-5.0898,-5.0662,-5.0428,-5.1083,-5.1234,-5.0881,-5.1263,-5.1375,-5.1375,-5.1375,-5.1362,-5.1281,-5.1084,-5.0966,-5.0903,-5.0764,-5.0702,-5.0702,-5.0702,-5.0702,-5.0702,-5.0702,-5.0702,-5.0702,-5.0702,-5.0702,-5.0702,-5.0702,-5.0702,-5.0702,-5.0702,-5.0702,-5.0702,-5.0702,-5.0692,-5.0653,-5.0563,-5.0511,-5.0446,-5.039,-5.0344,-5.0283,-5.0283,-5.0436,-5.0818,-5.1964,-5.273,-5.3031,-5.3854,-5.4372,-5.4506,-5.4511,-5.443,-5.4334,-5.5154,-5.5888,-5.611,-5.7051,-5.7863,-5.8199,-5.8565,-5.8913,-5.8835,-5.885,-5.8949,-5.9103,-5.9084,-5.9233,-5.9588,-5.9673,-5.9826,-6.0,-6.0076,-6.0173,-6.0408,-6.0704,-6.151,-6.2703,-6.3409,-6.4268,-6.5434,-6.5859,-6.5897,-6.5897,-6.5897,-6.5897,-6.5897,-6.5897,-6.5897,-6.5897,-6.6974,-6.7821,-6.8321,-6.936,-7.0167,-7.0783,-7.0783,-7.0552,-7.086,-7.0898,-7.0885,-5.6445,-5.5976,-5.4375,-5.2773,-5.1406,-5.1406,-5.1406,-5.1406,-5.1406,-5.1406,-5.1406,-5.1406,-5.1406,-5.1406,-5.1405,-5.1403,-5.1402,-5.1393,-5.1385,-5.1385,-5.1379,-5.1375,-5.1375,-5.1375,-5.135,-5.1199,-5.1063,-5.0959,-5.085,-5.0749,-5.0702,-5.0702,-5.0702,-5.0702,-5.0702,-5.0702,-5.0702,-5.0702,-5.0702,-5.0702,-5.0702,-5.0702,-5.0702,-5.0702,-5.0702,-5.0702,-5.0702,-5.0702,-5.0692,-5.0604,-5.0542,-5.0478,-5.0435,-5.0356,-5.0283,-5.0309,-5.0441,-5.0519,-5.0519,-5.1434,-5.2175,-5.2544,-5.3309,-5.3871,-5.4078,-5.4141,-5.4128,-5.4242,-5.5295,-5.6111,-5.6224,-5.7439,-5.8206,-5.8128,-5.8709,-5.8853,-5.8519,-5.8455,-5.8461,-5.8566,-5.8669,-5.875,-5.9084,-5.9252,-5.9397,-5.9723,-5.9804,-5.9937,-6.0299,-6.046,-6.1075,-6.2757,-6.309,-6.3898,-6.5423,-6.5859,-6.5897,-6.5897,-6.5897,-6.5897,-6.5897,-6.5897,-6.6128,-6.6436,-6.7628,-6.8513,-6.8936,-7.0014,-7.0821,-7.086,-7.086,-7.086,-7.0898,-7.0885,-7.0843,-5.6133,-5.5156,-5.3476,-5.2266,-5.1406,-5.1406,-5.1406,-5.1406,-5.1406,-5.1406,-5.1406,-5.1406,-5.1406,-5.1406,-5.1402,-5.1399,-5.1397,-5.1384,-5.1377,-5.1377,-5.1375,-5.1375,-5.1375,-5.1375,-5.1347,-5.1191,-5.1058,-5.0911,-5.0712,-5.0721,-5.0702,-5.0702,-5.0702,-5.0702,-5.0702,-5.0702,-5.0702,-5.0702,-5.0702,-5.0702,-5.0702,-5.0702,-5.0702,-5.0702,-5.0702,-5.0702,-5.0702,-5.0702,-5.0702,-5.0702,-5.0563,-5.05,-5.0489,-5.0352,-5.0283,-5.0336,-5.0748,-5.102,-5.1106,-5.21,-5.2855,-5.3069,-5.3616,-5.4083,-5.3739,-5.3739,-5.3998,-5.4721,-5.5542,-5.6141,-5.6309,-5.7361,-5.8147,-5.8429,-5.8553,-5.8455,-5.8074,-5.8074,-5.8231,-5.8424,-5.8412,-5.8595,-5.9065,-5.9215,-5.9307,-5.9588,-5.9739,-5.9874,-6.0159,-6.0328,-6.1152,-6.2473,-6.3192,-6.3744,-6.5436,-6.5872,-6.5885,-6.5897,-6.5897,-6.5897,-6.5897,-6.5974,-6.6359,-6.6898,-6.7782,-6.8667,-6.9475,-7.0167,-7.0706,-7.0898,-7.0885,-7.0885,-7.0871,-7.0829,-7.0787,-5.4922,-5.3594,-5.2969,-5.2187,-5.1445,-5.1406,-5.1406,-5.1406,-5.1406,-5.1406,-5.1406,-5.1406,-5.1406,-5.1405,-5.1402,-5.1398,-5.1397,-5.1384,-5.1375,-5.1375,-5.1375,-5.1375,-5.1375,-5.1375,-5.1288,-5.1084,-5.1025,-5.0903,-5.0712,-5.0702,-5.0702,-5.0702,-5.0702,-5.0702,-5.0702,-5.0702,-5.0702,-5.0702,-5.0702,-5.0702,-5.0702,-5.0702,-5.0702,-5.0702,-5.0702,-5.0702,-5.0702,-5.0702,-5.0673,-5.0563,-5.0521,-5.0468,-5.0352,-5.0306,-5.0283,-5.0298,-5.0266,-5.0258,-5.0344,-5.099,-5.1591,-5.1947,-5.2695,-5.3274,-5.337,-5.3416,-5.3711,-5.4522,-5.5318,-5.5945,-5.6673,-5.7674,-5.8314,-5.823,-5.8231,-5.8186,-5.8029,-5.796,-5.7904,-5.756,-5.7457,-5.7706,-5.8286,-5.8434,-5.8624,-5.8912,-5.9027,-5.9233,-5.9571,-5.989,-6.0783,-6.2237,-6.2968,-6.3756,-6.5538,-6.5833,-6.5833,-6.5872,-6.5885,-6.5872,-6.5872,-6.5974,-6.632,-6.7128,-6.7936,-6.8821,-6.9706,-7.0321,-7.0821,-7.0898,-7.0885,-7.0843,-7.0829,-7.0902,-7.0829,-5.3789,-5.2734,-5.2383,-5.1953,-5.1406,-5.1406,-5.1406,-5.1406,-5.1406,-5.1406,-5.1406,-5.1406,-5.1406,-5.1404,-5.1401,-5.1397,-5.1395,-5.1382,-5.1375,-5.1375,-5.1375,-5.1375,-5.1375,-5.1375,-5.1236,-5.102,-5.0907,-5.0827,-5.0702,-5.0702,-5.0702,-5.0702,-5.0702,-5.0702,-5.0702,-5.0702,-5.0702,-5.0702,-5.0702,-5.0702,-5.0702,-5.0702,-5.0702,-5.0702,-5.0702,-5.0702,-5.0702,-5.0702,-5.0644,-5.0563,-5.0521,-5.0446,-5.0333,-5.0283,-5.0283,-5.0259,-5.0,-4.9862,-5.0038,-5.0466,-5.1016,-5.1528,-5.2266,-5.2867,-5.3172,-5.3203,-5.3702,-5.4583,-5.5207,-5.5978,-5.7036,-5.7943,-5.8282,-5.8029,-5.7997,-5.7997,-5.7997,-5.7997,-5.7629,-5.7065,-5.6881,-5.7101,-5.7519,-5.7836,-5.8194,-5.8545,-5.8586,-5.877,-5.9159,-5.9836,-6.0735,-6.2176,-6.3136,-6.411,-6.5317,-6.5715,-6.5793,-6.582,-6.5846,-6.5846,-6.5949,-6.609,-6.6551,-6.7359,-6.8205,-6.909,-6.9821,-7.0475,-7.0744,-7.0846,-7.0857,-7.0815,-7.0926,-7.1074,-7.1145,-5.2734,-5.2539,-5.1797,-5.1484,-5.1406,-5.1406,-5.1406,-5.1406,-5.1406,-5.1406,-5.1406,-5.1406,-5.1406,-5.1404,-5.14,-5.1396,-5.1389,-5.138,-5.1375,-5.1375,-5.1375,-5.1375,-5.1375,-5.1375,-5.1275,-5.1002,-5.0833,-5.0741,-5.0673,-5.0702,-5.0702,-5.0702,-5.0702,-5.0702,-5.0702,-5.0702,-5.0702,-5.0702,-5.0702,-5.0702,-5.0702,-5.0702,-5.0702,-5.0702,-5.0702,-5.0702,-5.0702,-5.0702,-5.0702,-5.0644,-5.0563,-5.0446,-5.0344,-5.0283,-5.0283,-5.0286,-5.0038,-5.0081,-5.0444,-5.1014,-5.1528,-5.1919,-5.2695,-5.3157,-5.3188,-5.3277,-5.3922,-5.5133,-5.5647,-5.6271,-5.7556,-5.7969,-5.8065,-5.7997,-5.7997,-5.7997,-5.7997,-5.796,-5.7666,-5.6969,-5.6785,-5.6785,-5.6969,-5.7519,-5.8105,-5.8434,-5.8524,-5.8607,-5.9063,-5.996,-6.125,-6.2287,-6.3314,-6.4454,-6.5095,-6.5608,-6.5688,-6.5728,-6.5793,-6.582,-6.6064,-6.6282,-6.7038,-6.7885,-6.8973,-6.9857,-7.0231,-7.0808,-7.0794,-7.0857,-7.0815,-7.0926,-7.1165,-7.1428,-7.1781,-5.2344,-5.1797,-5.1523,-5.1406,-5.1406,-5.1406,-5.1406,-5.1406,-5.1406,-5.1406,-5.1406,-5.1406,-5.1405,-5.1402,-5.1399,-5.1393,-5.138,-5.1377,-5.1375,-5.1375,-5.1375,-5.1375,-5.1375,-5.1375,-5.1275,-5.1014,-5.0898,-5.0764,-5.0693,-5.0702,-5.0702,-5.0702,-5.0702,-5.0702,-5.0702,-5.0702,-5.0702,-5.0702,-5.0702,-5.0702,-5.0702,-5.0702,-5.0702,-5.0702,-5.0702,-5.0702,-5.0702,-5.0702,-5.0692,-5.0614,-5.0542,-5.0446,-5.0344,-5.0283,-5.0283,-5.0336,-5.057,-5.0572,-5.0638,-5.1519,-5.2084,-5.2173,-5.2747,-5.313,-5.3277,-5.3702,-5.4436,-5.55,-5.6088,-5.6895,-5.774,-5.7997,-5.7997,-5.7997,-5.7997,-5.7997,-5.7923,-5.7519,-5.7116,-5.6895,-5.6785,-5.6785,-5.6932,-5.7483,-5.8029,-5.8164,-5.8194,-5.8282,-5.8551,-5.9853,-6.1027,-6.1929,-6.3251,-6.4547,-6.5082,-6.5441,-6.5552,-6.5674,-6.5728,-6.5985,-6.6243,-6.6769,-6.7525,-6.8512,-6.9638,-7.0305,-7.0717,-7.0871,-7.0843,-7.0839,-7.0805,-7.1083,-7.1505,-7.1935,-7.2402,-5.1914,-5.1406,-5.1406,-5.1406,-5.1406,-5.1406,-5.1406,-5.1406,-5.1406,-5.1406,-5.1406,-5.1406,-5.1404,-5.1399,-5.1396,-5.1389,-5.1375,-5.1375,-5.1375,-5.1375,-5.1375,-5.1375,-5.1371,-5.1355,-5.1214,-5.102,-5.0949,-5.0825,-5.0712,-5.0702,-5.0702,-5.0702,-5.0702,-5.0702,-5.0702,-5.0702,-5.0702,-5.0702,-5.0702,-5.0702,-5.0702,-5.0702,-5.0702,-5.0702,-5.0702,-5.0702,-5.0702,-5.0702,-5.0692,-5.0614,-5.0542,-5.0457,-5.0367,-5.0333,-5.0283,-5.0438,-5.0888,-5.1154,-5.1099,-5.2013,-5.2642,-5.2598,-5.2931,-5.3188,-5.3314,-5.3922,-5.473,-5.5537,-5.6308,-5.7152,-5.7813,-5.7997,-5.7997,-5.7997,-5.7997,-5.7997,-5.7886,-5.7299,-5.6675,-5.6492,-5.6602,-5.6638,-5.6602,-5.7373,-5.7923,-5.7997,-5.7997,-5.7997,-5.8385,-5.9736,-6.0805,-6.1864,-6.3194,-6.4246,-6.5007,-6.5291,-6.5397,-6.5552,-6.5715,-6.6087,-6.6448,-6.7217,-6.8024,-6.9201,-7.034,-7.0508,-7.0829,-7.0815,-7.0801,-7.0805,-7.0861,-7.1413,-7.195,-7.2801,-7.3306,-5.1406,-5.1406,-5.1406,-5.1406,-5.1406,-5.1406,-5.1406,-5.1406,-5.1406,-5.1406,-5.1406,-5.1405,-5.1403,-5.1398,-5.1394,-5.1385,-5.1377,-5.1375,-5.1375,-5.1375,-5.1375,-5.1375,-5.1371,-5.1297,-5.1191,-5.1031,-5.0952,-5.0827,-5.073,-5.0721,-5.0712,-5.0673,-5.0702,-5.0702,-5.0702,-5.0702,-5.0702,-5.0702,-5.0702,-5.0702,-5.0702,-5.0702,-5.0702,-5.0702,-5.0702,-5.0702,-5.0702,-5.0702,-5.0702,-5.0654,-5.0553,-5.0468,-5.0412,-5.0344,-5.0283,-5.0359,-5.115,-5.1619,-5.1902,-5.2632,-5.316,-5.3175,-5.3136,-5.3203,-5.3277,-5.4069,-5.4876,-5.5559,-5.6455,-5.7226,-5.785,-5.7997,-5.7997,-5.7997,-5.7997,-5.7997,-5.7923,-5.7336,-5.6712,-5.6051,-5.6235,-5.6565,-5.5978,-5.7042,-5.7813,-5.7997,-5.7997,-5.7997,-5.8414,-5.9573,-6.0864,-6.2018,-6.3068,-6.4102,-6.4947,-6.5128,-6.5238,-6.56,-6.5866,-6.6381,-6.6907,-6.7714,-6.8688,-6.9865,-7.058,-7.071,-7.0772,-7.0796,-7.0782,-7.0737,-7.1106,-7.172,-7.2472,-7.3284,-7.4002,-5.1406,-5.1406,-5.1406,-5.1406,-5.1406,-5.1406,-5.1406,-5.1406,-5.1406,-5.1406,-5.1406,-5.1405,-5.1402,-5.1398,-5.1393,-5.1385,-5.1377,-5.1375,-5.1375,-5.1375,-5.1375,-5.1375,-5.1375,-5.1362,-5.1281,-5.1126,-5.1113,-5.1023,-5.0866,-5.0816,-5.0803,-5.0712,-5.0702,-5.0702,-5.0702,-5.0702,-5.0702,-5.0702,-5.0702,-5.0702,-5.0702,-5.0702,-5.0702,-5.0702,-5.0702,-5.0702,-5.0702,-5.0702,-5.0682,-5.0642,-5.0542,-5.0478,-5.0412,-5.0356,-5.0283,-5.0512,-5.1646,-5.2361,-5.2408,-5.3247,-5.3753,-5.3567,-5.3334,-5.3203,-5.324,-5.4473,-5.5265,-5.5831,-5.6785,-5.774,-5.7923,-5.7997,-5.7997,-5.7997,-5.7997,-5.7997,-5.796,-5.7813,-5.7152,-5.6051,-5.6822,-5.6822,-5.6308,-5.6895,-5.7923,-5.7997,-5.7997,-5.8042,-5.8496,-5.9701,-6.1119,-6.1761,-6.2761,-6.3898,-6.4701,-6.4909,-6.5159,-6.5594,-6.6106,-6.679,-6.7442,-6.8234,-6.9337,-7.0465,-7.0613,-7.0729,-7.0752,-7.0737,-7.0723,-7.0769,-7.1375,-7.2049,-7.2885,-7.369,-7.4429,-5.1406,-5.1406,-5.1406,-5.1406,-5.1406,-5.1406,-5.1406,-5.1406,-5.1406,-5.1406,-5.1406,-5.1404,-5.1401,-5.1397,-5.1389,-5.138,-5.1375,-5.1375,-5.1375,-5.1375,-5.1375,-5.1375,-5.1375,-5.1375,-5.1308,-5.1203,-5.1122,-5.1041,-5.089,-5.085,-5.0776,-5.0693,-5.0702,-5.0702,-5.0702,-5.0702,-5.0702,-5.0702,-5.0702,-5.0702,-5.0702,-5.0702,-5.0702,-5.0702,-5.0702,-5.0702,-5.0702,-5.0702,-5.0692,-5.0614,-5.0563,-5.0511,-5.0446,-5.0352,-5.0344,-5.0397,-5.1888,-5.2654,-5.2608,-5.3537,-5.4048,-5.3739,-5.34,-5.3209,-5.3482,-5.4656,-5.5633,-5.5721,-5.7079,-5.7813,-5.7997,-5.7997,-5.7997,-5.7997,-5.7997,-5.7997,-5.7997,-5.796,-5.7226,-5.6528,-5.6822,-5.7373,-5.5868,-5.7079,-5.7776,-5.7997,-5.7997,-5.8065,-5.8363,-5.9908,-6.1047,-6.1534,-6.2385,-6.3555,-6.4274,-6.4537,-6.5133,-6.5597,-6.6384,-6.7117,-6.808,-6.887,-6.9696,-7.0516,-7.0631,-7.0708,-7.0693,-7.0739,-7.0884,-7.1159,-7.1778,-7.2505,-7.3396,-7.4035,-7.4771,-5.1406,-5.1406,-5.1406,-5.1406,-5.1406,-5.1406,-5.1406,-5.1406,-5.1406,-5.1406,-5.1406,-5.1402,-5.1399,-5.1397,-5.1385,-5.1375,-5.1375,-5.1375,-5.1375,-5.1375,-5.1375,-5.1375,-5.1375,-5.1375,-5.1355,-5.1264,-5.1167,-5.1107,-5.1027,-5.0885,-5.0807,-5.0721,-5.0702,-5.0702,-5.0702,-5.0702,-5.0702,-5.0702,-5.0702,-5.0702,-5.0702,-5.0702,-5.0702,-5.0702,-5.0702,-5.0702,-5.0702,-5.0702,-5.0702,-5.0702,-5.0653,-5.0553,-5.05,-5.0435,-5.0379,-5.06,-5.1761,-5.2666,-5.2613,-5.3547,-5.4176,-5.3814,-5.344,-5.3188,-5.3518,-5.462,-5.5633,-5.5633,-5.7079,-5.785,-5.7997,-5.7997,-5.7997,-5.7997,-5.7997,-5.7997,-5.7997,-5.7997,-5.7409,-5.6147,-5.7189,-5.7189,-5.6785,-5.7065,-5.8166,-5.84,-5.8277,-5.8111,-5.8538,-5.9683,-6.0476,-6.0845,-6.1906,-6.3229,-6.3745,-6.4138,-6.4931,-6.5618,-6.659,-6.7512,-6.8717,-6.9529,-7.0101,-7.0585,-7.0585,-7.0601,-7.0616,-7.0776,-7.0958,-7.1532,-7.2122,-7.3062,-7.4002,-7.4437,-7.5073,-5.1406,-5.1406,-5.1406,-5.1406,-5.1406,-5.1406,-5.1406,-5.1406,-5.1406,-5.1406,-5.1406,-5.1402,-5.1398,-5.1397,-5.1384,-5.1375,-5.1375,-5.1375,-5.1375,-5.1375,-5.1375,-5.1375,-5.1375,-5.1375,-5.1369,-5.1469,-5.2052,-5.1814,-5.1313,-5.1513,-5.1494,-5.0808,-5.0741,-5.0702,-5.0702,-5.0702,-5.0702,-5.0702,-5.0702,-5.0702,-5.0702,-5.0702,-5.0702,-5.0702,-5.0702,-5.0702,-5.0702,-5.0702,-5.0702,-5.0692,-5.0653,-5.0563,-5.05,-5.0446,-5.0379,-5.0638,-5.1773,-5.2742,-5.2869,-5.3581,-5.4262,-5.4105,-5.3543,-5.3203,-5.3298,-5.4656,-5.55,-5.589,-5.7005,-5.7923,-5.7997,-5.7997,-5.7997,-5.7997,-5.7997,-5.7997,-5.7997,-5.7997,-5.7519,-5.7116,-5.7813,-5.8584,-5.7629,-5.8235,-5.88,-5.8864,-5.858,-5.8244,-5.8833,-5.9656,-6.0244,-6.0769,-6.1861,-6.3107,-6.3571,-6.4108,-6.4878,-6.5686,-6.6633,-6.7732,-6.8942,-6.9784,-7.0205,-7.0386,-7.0402,-7.0473,-7.0554,-7.0713,-7.091,-7.1669,-7.251,-7.3344,-7.4135,-7.4694,-7.4805,-5.1406,-5.1406,-5.1406,-5.1406,-5.1406,-5.1406,-5.1406,-5.1406,-5.1406,-5.1406,-5.1406,-5.1402,-5.1398,-5.1397,-5.1384,-5.1375,-5.1375,-5.1375,-5.1375,-5.1375,-5.1375,-5.1375,-5.1375,-5.1375,-5.1414,-5.1527,-5.2169,-5.213,-5.1897,-5.191,-5.1826,-5.127,-5.0894,-5.0702,-5.0702,-5.0702,-5.0702,-5.0702,-5.0702,-5.0702,-5.0702,-5.0702,-5.0702,-5.0702,-5.0702,-5.0702,-5.0702,-5.0702,-5.0702,-5.0702,-5.0673,-5.0622,-5.0511,-5.0468,-5.0412,-5.0562,-5.1429,-5.2422,-5.287,-5.3354,-5.3829,-5.4242,-5.3602,-5.3314,-5.3555,-5.4656,-5.5464,-5.5904,-5.6895,-5.7997,-5.7997,-5.7997,-5.7997,-5.7997,-5.7997,-5.7997,-5.7997,-5.7997,-5.7703,-5.7336,-5.8143,-5.8437,-5.857,-5.9044,-5.9205,-5.9098,-5.8423,-5.8162,-5.9053,-5.9839,-6.0575,-6.1274,-6.212,-6.2964,-6.3498,-6.4112,-6.4885,-6.5667,-6.6535,-6.7666,-6.8857,-6.9531,-7.0109,-7.0217,-7.0286,-7.0419,-7.056,-7.0703,-7.1205,-7.216,-7.3004,-7.3624,-7.4049,-7.4419,-7.4325,-5.1523,-5.1406,-5.1406,-5.1406,-5.1406,-5.1406,-5.1406,-5.1406,-5.1406,-5.1406,-5.1406,-5.1402,-5.1398,-5.1396,-5.1384,-5.1375,-5.1375,-5.1375,-5.1375,-5.1375,-5.1375,-5.1375,-5.1414,-5.157,-5.1726,-5.1683,-5.2476,-5.2628,-5.2535,-5.2366,-5.2252,-5.179,-5.1048,-5.0712,-5.0702,-5.0702,-5.0702,-5.0702,-5.0702,-5.0702,-5.0702,-5.0702,-5.0702,-5.0702,-5.0702,-5.0702,-5.0702,-5.0702,-5.0702,-5.0702,-5.0702,-5.0653,-5.0542,-5.05,-5.0457,-5.0371,-5.1152,-5.1827,-5.2399,-5.284,-5.3276,-5.4003,-5.3602,-5.334,-5.3739,-5.4693,-5.5537,-5.6235,-5.7079,-5.7997,-5.7997,-5.7997,-5.7997,-5.7997,-5.7997,-5.7997,-5.7997,-5.796,-5.7666,-5.7446,-5.829,-5.8841,-5.8877,-5.9108,-5.9231,-5.9208,-5.8547,-5.835,-5.9228,-6.0023,-6.0698,-6.1446,-6.2279,-6.2732,-6.3215,-6.3579,-6.4448,-6.55,-6.6335,-6.7432,-6.8585,-6.9231,-6.972,-7.0038,-7.0199,-7.0391,-7.0719,-7.1047,-7.1701,-7.2702,-7.3267,-7.3668,-7.39,-7.4124,-7.3845,-5.207,-5.1406,-5.1406,-5.1406,-5.1406,-5.1406,-5.1406,-5.1406,-5.1406,-5.1406,-5.1406,-5.1402,-5.1399,-5.1395,-5.1384,-5.1375,-5.1375,-5.1375,-5.1375,-5.1375,-5.1414,-5.1414,-5.1648,-5.2078,-5.239,-5.2702,-5.3272,-5.36,-5.3425,-5.3314,-5.2872,-5.1973,-5.1164,-5.0779,-5.0702,-5.0702,-5.0702,-5.0702,-5.0702,-5.0702,-5.0702,-5.0702,-5.0702,-5.0702,-5.0702,-5.0702,-5.0702,-5.0702,-5.0702,-5.0702,-5.0702,-5.0634,-5.0573,-5.0532,-5.0468,-5.052,-5.0837,-5.1408,-5.1954,-5.2354,-5.2738,-5.312,-5.3251,-5.3619,-5.4164,-5.5023,-5.5831,-5.6675,-5.7336,-5.7997,-5.7997,-5.7997,-5.7997,-5.7997,-5.7997,-5.7997,-5.7997,-5.796,-5.7923,-5.774,-5.8584,-5.9391,-5.9465,-5.9488,-5.9635,-5.9525,-5.8924,-5.8827,-5.9378,-6.01,-6.0737,-6.1508,-6.2291,-6.2622,-6.2904,-6.3198,-6.3796,-6.5029,-6.6001,-6.6932,-6.7976,-6.8787,-6.9303,-6.9662,-7.0114,-7.0472,-7.0844,-7.1252,-7.1875,-7.2605,-7.3113,-7.3632,-7.3718,-7.375,-7.3516,-5.2187,-5.1406,-5.1406,-5.1406,-5.1406,-5.1406,-5.1406,-5.1406,-5.1406,-5.1406,-5.1406,-5.1404,-5.1401,-5.1397,-5.1389,-5.138,-5.1375,-5.1375,-5.1375,-5.1375,-5.1414,-5.1687,-5.2038,-5.2587,-5.329,-5.3875,-5.4494,-5.4515,-5.429,-5.4277,-5.3615,-5.2647,-5.1741,-5.1125,-5.0779,-5.0702,-5.0702,-5.0702,-5.0702,-5.0702,-5.0702,-5.0702,-5.0702,-5.0702,-5.0702,-5.0702,-5.0702,-5.0702,-5.0702,-5.0702,-5.0702,-5.0692,-5.0653,-5.0542,-5.0468,-5.0455,-5.0607,-5.1115,-5.1737,-5.2303,-5.2763,-5.3573,-5.3534,-5.3853,-5.4527,-5.527,-5.6183,-5.7152,-5.7629,-5.7997,-5.7997,-5.7997,-5.7997,-5.7997,-5.7997,-5.7997,-5.7997,-5.7997,-5.7997,-5.8033,-5.8694,-5.9391,-6.0126,-6.0149,-6.0136,-5.9806,-5.9255,-5.9378,-5.9625,-6.0138,-6.075,-6.1814,-6.2548,-6.2622,-6.2915,-6.3296,-6.3701,-6.4776,-6.582,-6.6764,-6.7642,-6.8516,-6.8981,-6.9303,-6.9834,-7.0715,-7.1028,-7.1464,-7.1988,-7.247,-7.3018,-7.3419,-7.3417,-7.3313,-7.3087,-5.2617,-5.1641,-5.168,-5.1562,-5.1406,-5.1406,-5.1406,-5.1406,-5.1406,-5.1406,-5.1406,-5.1405,-5.1402,-5.1397,-5.139,-5.1382,-5.1375,-5.1375,-5.1492,-5.1726,-5.1765,-5.2156,-5.2782,-5.329,-5.3953,-5.4851,-5.5474,-5.5418,-5.5169,-5.4911,-5.432,-5.3406,-5.2521,-5.1625,-5.1087,-5.0818,-5.0741,-5.0702,-5.0702,-5.0702,-5.0702,-5.0702,-5.0702,-5.0702,-5.0702,-5.0702,-5.0702,-5.0702,-5.0702,-5.0702,-5.0692,-5.0644,-5.0673,-5.0542,-5.0457,-5.0401,-5.0309,-5.085,-5.1399,-5.2032,-5.2451,-5.3249,-5.3572,-5.4145,-5.5104,-5.5908,-5.6734,-5.7703,-5.7997,-5.7997,-5.7997,-5.7997,-5.7997,-5.7997,-5.7997,-5.7997,-5.7997,-5.7997,-5.7997,-5.8217,-5.8731,-5.9355,-6.0126,-6.0015,-5.9832,-6.0039,-5.9525,-5.9635,-5.9881,-6.0126,-6.0823,-6.2071,-6.2768,-6.2768,-6.3062,-6.3576,-6.4141,-6.4997,-6.5967,-6.6846,-6.7629,-6.8429,-6.8711,-6.9072,-7.0465,-7.1294,-7.1467,-7.1535,-7.1927,-7.2387,-7.2932,-7.3161,-7.305,-7.2926,-7.277,-5.4023,-5.2539,-5.2539,-5.2109,-5.1484,-5.1445,-5.1406,-5.1406,-5.1406,-5.1406,-5.1406,-5.1405,-5.1403,-5.1397,-5.1384,-5.1377,-5.1375,-5.1414,-5.1765,-5.2273,-5.2431,-5.2936,-5.3873,-5.4693,-5.4849,-5.5513,-5.6098,-5.6299,-5.5939,-5.5308,-5.4813,-5.4151,-5.2839,-5.1808,-5.1587,-5.0971,-5.0702,-5.0702,-5.0702,-5.0702,-5.0702,-5.0702,-5.0702,-5.0702,-5.0702,-5.0702,-5.0702,-5.0702,-5.0702,-5.0702,-5.0624,-5.0594,-5.0612,-5.0489,-5.0424,-5.0294,-5.0139,-4.9958,-5.0402,-5.1177,-5.1707,-5.2459,-5.2865,-5.4132,-5.5373,-5.6704,-5.7446,-5.785,-5.7997,-5.7997,-5.7997,-5.7997,-5.7997,-5.7997,-5.7997,-5.7997,-5.7997,-5.7997,-5.7997,-5.7997,-5.8364,-5.9281,-6.0126,-5.9771,-5.9478,-5.9758,-5.9942,-5.9979,-6.0272,-6.0603,-6.1043,-6.2291,-6.2805,-6.2805,-6.3209,-6.3723,-6.4457,-6.5228,-6.6161,-6.7001,-6.7601,-6.8235,-6.8371,-6.9005,-7.0442,-7.1272,-7.1231,-7.1369,-7.178,-7.2236,-7.2748,-7.276,-7.263,-7.2524,-7.2496,-5.5,-5.3437,-5.3437,-5.293,-5.2187,-5.2148,-5.1836,-5.1445,-5.1406,-5.1406,-5.1406,-5.1406,-5.1404,-5.1397,-5.1384,-5.1375,-5.1375,-5.1414,-5.1882,-5.2626,-5.286,-5.3446,-5.4537,-5.5123,-5.5435,-5.602,-5.6331,-5.6484,-5.6269,-5.5875,-5.5341,-5.4466,-5.334,-5.2346,-5.1962,-5.1125,-5.0779,-5.0702,-5.0702,-5.0702,-5.0702,-5.0702,-5.0702,-5.0702,-5.0702,-5.0702,-5.0702,-5.0702,-5.0702,-5.0702,-5.0673,-5.0673,-5.0642,-5.0532,-5.0457,-5.0446,-5.0248,-5.0176,-5.0371,-5.1237,-5.1544,-5.1792,-5.2512,-5.3777,-5.5275,-5.6571,-5.7593,-5.796,-5.7997,-5.7997,-5.7997,-5.7997,-5.7997,-5.7997,-5.7997,-5.7997,-5.7997,-5.7997,-5.7997,-5.7997,-5.8107,-5.9098,-5.9795,-5.9478,-5.9441,-5.9942,-5.9942,-5.9832,-6.0529,-6.1447,-6.1924,-6.2548,-6.2805,-6.2805,-6.3356,-6.3906,-6.4677,-6.5521,-6.6659,-6.7353,-6.7616,-6.803,-6.8206,-6.8513,-6.9445,-7.0102,-7.0622,-7.1528,-7.2285,-7.2473,-7.2567,-7.2548,-7.2524,-7.2524,-7.2532,-5.582,-5.4648,-5.4414,-5.3828,-5.3008,-5.2812,-5.2344,-5.1758,-5.1484,-5.1406,-5.1406,-5.1406,-5.1403,-5.1396,-5.1384,-5.1414,-5.1414,-5.1609,-5.2273,-5.2819,-5.3407,-5.4303,-5.524,-5.5747,-5.5981,-5.6565,-5.6526,-5.6553,-5.6436,-5.6193,-5.5655,-5.4872,-5.4043,-5.3136,-5.2241,-5.151,-5.101,-5.0702,-5.0702,-5.0702,-5.0702,-5.0702,-5.0702,-5.0702,-5.0702,-5.0702,-5.0702,-5.0702,-5.0702,-5.0702,-5.0682,-5.0673,-5.0653,-5.0532,-5.0468,-5.0435,-5.0294,-5.0215,-5.0449,-5.0975,-5.1431,-5.1724,-5.2508,-5.387,-5.5184,-5.6218,-5.7116,-5.7923,-5.7997,-5.7997,-5.7997,-5.7997,-5.7997,-5.7997,-5.7997,-5.7997,-5.7997,-5.7997,-5.7997,-5.7997,-5.8253,-5.8951,-5.9391,-5.9148,-5.9391,-6.0052,-6.0052,-5.9735,-6.0579,-6.1777,-6.2401,-6.2805,-6.2805,-6.2842,-6.3209,-6.3906,-6.4751,-6.5705,-6.6843,-6.753,-6.772,-6.7904,-6.8104,-6.8439,-6.8972,-6.9853,-7.0887,-7.1891,-7.2758,-7.2641,-7.252,-7.2508,-7.2496,-7.2532,-7.2532,-5.6523,-5.6367,-5.5547,-5.4726,-5.3828,-5.3047,-5.2695,-5.2422,-5.1719,-5.1406,-5.1406,-5.1403,-5.1398,-5.139,-5.1421,-5.1453,-5.1492,-5.2234,-5.3053,-5.3912,-5.4732,-5.5396,-5.6059,-5.6372,-5.645,-5.6565,-5.6604,-5.65,-5.6379,-5.632,-5.6142,-5.5831,-5.4725,-5.3918,-5.2972,-5.1933,-5.1202,-5.0818,-5.0702,-5.0702,-5.0702,-5.0702,-5.0702,-5.0702,-5.0702,-5.0702,-5.0702,-5.0702,-5.0702,-5.0702,-5.0673,-5.0614,-5.0604,-5.0521,-5.0468,-5.0435,-5.0379,-5.0215,-5.0312,-5.056,-5.0679,-5.1232,-5.228,-5.3907,-5.5301,-5.6261,-5.7124,-5.7762,-5.7886,-5.7997,-5.7997,-5.7997,-5.7997,-5.7997,-5.7997,-5.7997,-5.7997,-5.7997,-5.7997,-5.7997,-5.8327,-5.8951,-5.9208,-5.9024,-5.9428,-6.0052,-6.0126,-5.9832,-6.0579,-6.163,-6.2401,-6.2805,-6.2805,-6.2879,-6.3025,-6.3796,-6.4971,-6.5815,-6.6733,-6.732,-6.7677,-6.7834,-6.7981,-6.8825,-6.9486,-7.033,-7.1101,-7.1894,-7.2457,-7.2537,-7.2532,-7.2532,-7.2532,-7.2532,-7.2532,-5.6601,-5.6562,-5.625,-5.5586,-5.4726,-5.3867,-5.3203,-5.2617,-5.1797,-5.1406,-5.1406,-5.1402,-5.1397,-5.1393,-5.146,-5.1726,-5.2156,-5.247,-5.3563,-5.4498,-5.524,-5.5825,-5.6333,-5.6604,-5.6604,-5.6604,-5.6604,-5.6563,-5.6503,-5.6383,-5.6212,-5.5838,-5.5109,-5.4159,-5.3147,-5.1972,-5.1087,-5.0856,-5.0702,-5.0702,-5.0702,-5.0702,-5.0702,-5.0702,-5.0702,-5.0702,-5.0702,-5.0702,-5.0702,-5.0702,-5.0682,-5.0634,-5.0624,-5.0542,-5.05,-5.0457,-5.0401,-5.0259,-5.0228,-5.0534,-5.102,-5.1556,-5.2156,-5.3051,-5.4932,-5.5778,-5.6535,-5.7177,-5.774,-5.785,-5.7997,-5.7997,-5.7997,-5.7997,-5.7997,-5.7997,-5.7997,-5.7997,-5.7997,-5.7997,-5.8253,-5.8731,-5.8877,-5.8988,-5.9501,-6.0052,-6.0015,-6.0126,-6.0786,-6.1569,-6.2401,-6.2805,-6.2805,-6.2952,-6.3099,-6.409,-6.5264,-6.5999,-6.6696,-6.721,-6.7687,-6.7714,-6.8017,-6.8972,-6.9963,-7.0734,-7.1394,-7.1872,-7.2202,-7.2422,-7.2532,-7.2532,-7.2532,-7.2569,-7.2606,-5.6601,-5.6601,-5.6601,-5.625,-5.5586,-5.4492,-5.3633,-5.2969,-5.1875,-5.1406,-5.1406,-5.1403,-5.1594,-5.1706,-5.1815,-5.2314,-5.3016,-5.3524,-5.4266,-5.5007,-5.563,-5.602,-5.6411,-5.6604,-5.6604,-5.6604,-5.6604,-5.6602,-5.656,-5.6446,-5.6308,-5.5936,-5.5208,-5.4254,-5.306,-5.1625,-5.0712,-5.0702,-5.0702,-5.0702,-5.0702,-5.0702,-5.0702,-5.0702,-5.0702,-5.0702,-5.0702,-5.0702,-5.0702,-5.0702,-5.0702,-5.0702,-5.0682,-5.0653,-5.0563,-5.0511,-5.0457,-5.0352,-5.0438,-5.0507,-5.115,-5.1759,-5.1748,-5.2689,-5.4055,-5.5267,-5.5928,-5.683,-5.7373,-5.774,-5.785,-5.7997,-5.7997,-5.7997,-5.7997,-5.7997,-5.7997,-5.7997,-5.7997,-5.7997,-5.829,-5.8584,-5.9538,-5.9685,-5.9391,-5.9869,-6.0015,-6.0162,-6.0603,-6.152,-6.2548,-6.2805,-6.2805,-6.2989,-6.3246,-6.4347,-6.5411,-6.6182,-6.6843,-6.732,-6.7687,-6.7787,-6.8311,-6.9449,-7.0367,-7.1101,-7.1688,-7.2165,-7.2349,-7.2496,-7.2532,-7.2532,-7.2863,-7.2899,-7.2826,-5.6601,-5.6601,-5.6601,-5.6562,-5.6211,-5.4726,-5.3945,-5.3594,-5.2109,-5.1445,-5.1523,-5.1521,-5.1986,-5.2525,-5.2676,-5.3178,-5.3953,-5.4656,-5.5242,-5.5513,-5.6059,-5.6489,-5.6567,-5.6604,-5.6604,-5.6604,-5.6604,-5.6604,-5.6604,-5.636,-5.6287,-5.5813,-5.4932,-5.3964,-5.3041,-5.1548,-5.075,-5.0702,-5.0702,-5.0702,-5.0702,-5.0702,-5.0702,-5.0702,-5.0702,-5.0702,-5.0702,-5.0702,-5.0702,-5.0702,-5.0702,-5.0702,-5.0702,-5.0663,-5.0622,-5.0563,-5.0468,-5.0412,-5.0379,-5.0063,-5.0671,-5.1706,-5.1802,-5.2643,-5.4224,-5.5055,-5.5512,-5.6506,-5.6904,-5.7336,-5.7666,-5.7997,-5.7997,-5.7997,-5.7997,-5.7997,-5.7997,-5.7997,-5.7997,-5.7997,-5.8143,-5.8547,-5.9832,-6.0493,-5.9685,-5.9648,-5.9905,-6.0236,-6.0603,-6.152,-6.2658,-6.2805,-6.2842,-6.3209,-6.3613,-6.4567,-6.5521,-6.6329,-6.6953,-6.7467,-6.7907,-6.8201,-6.8935,-6.9926,-7.066,-7.1284,-7.1872,-7.2459,-7.2496,-7.2532,-7.2532,-7.2606,-7.2973,-7.3193,-7.301,-5.6601,-5.6601,-5.6601,-5.625,-5.5625,-5.4531,-5.3984,-5.3672,-5.2305,-5.1719,-5.2187,-5.2265,-5.273,-5.335,-5.3655,-5.4041,-5.4812,-5.5044,-5.5437,-5.6177,-5.6489,-5.6567,-5.6604,-5.6604,-5.6604,-5.6604,-5.6604,-5.6526,-5.6565,-5.6059,-5.5675,-5.5247,-5.4044,-5.2854,-5.2156,-5.1241,-5.0702,-5.0702,-5.0702,-5.0702,-5.0702,-5.0702,-5.0702,-5.0702,-5.0702,-5.0702,-5.0702,-5.0702,-5.0702,-5.0702,-5.0702,-5.0702,-5.0702,-5.0673,-5.0663,-5.0632,-5.0521,-5.0478,-5.0424,-5.0338,-5.0837,-5.1613,-5.208,-5.2686,-5.4218,-5.4764,-5.5424,-5.6108,-5.6595,-5.7132,-5.7776,-5.796,-5.802,-5.7997,-5.7997,-5.7997,-5.7997,-5.7997,-5.7997,-5.7997,-5.807,-5.818,-5.9024,-6.0529,-6.0272,-5.9905,-6.0162,-6.0309,-6.0603,-6.1704,-6.2805,-6.2805,-6.2915,-6.3356,-6.3943,-6.4787,-6.5558,-6.6329,-6.699,-6.754,-6.8017,-6.8495,-6.8862,-6.9486,-7.0477,-7.1403,-7.1908,-7.2312,-7.2459,-7.2532,-7.2532,-7.2899,-7.3487,-7.3377,-7.2936,-5.6601,-5.6601,-5.6601,-5.6289,-5.5625,-5.4492,-5.3711,-5.3008,-5.1914,-5.1875,-5.2539,-5.2695,-5.3357,-5.4135,-5.4519,-5.4942,-5.5714,-5.5788,-5.5864,-5.6606,-5.6604,-5.6604,-5.6604,-5.6565,-5.6604,-5.6526,-5.6255,-5.6098,-5.602,-5.524,-5.4624,-5.3879,-5.2893,-5.2191,-5.1554,-5.0961,-5.0702,-5.0702,-5.0702,-5.0702,-5.0702,-5.0702,-5.0702,-5.0702,-5.0702,-5.0702,-5.0702,-5.0702,-5.0702,-5.0702,-5.0702,-5.0702,-5.0702,-5.0702,-5.0682,-5.0663,-5.0622,-5.0532,-5.0468,-5.0401,-5.1014,-5.2144,-5.2062,-5.2774,-5.3937,-5.4519,-5.5192,-5.5889,-5.6383,-5.7089,-5.7785,-5.7932,-5.8097,-5.8097,-5.8142,-5.8142,-5.802,-5.802,-5.7983,-5.7983,-5.8143,-5.818,-5.851,-5.9758,-6.075,-6.0566,-6.0456,-6.0566,-6.075,-6.1851,-6.2805,-6.2805,-6.2915,-6.3319,-6.3943,-6.4787,-6.5595,-6.6366,-6.7026,-6.765,-6.8164,-6.8605,-6.8825,-6.9229,-7.0624,-7.1651,-7.1872,-7.2129,-7.2386,-7.2532,-7.2532,-7.3083,-7.3891,-7.3523,-7.2863,-5.6601,-5.6601,-5.6601,-5.6562,-5.625,-5.4648,-5.3086,-5.1601,-5.1562,-5.207,-5.2851,-5.3008,-5.3906,-5.5114,-5.5345,-5.5768,-5.6346,-5.6454,-5.6528,-5.6567,-5.6604,-5.6565,-5.645,-5.6411,-5.6177,-5.602,-5.5747,-5.524,-5.5164,-5.4381,-5.3496,-5.277,-5.228,-5.1664,-5.1169,-5.088,-5.0712,-5.0683,-5.0702,-5.0702,-5.0702,-5.0702,-5.0702,-5.0702,-5.0702,-5.0702,-5.0702,-5.0702,-5.0702,-5.0702,-5.0702,-5.0702,-5.0702,-5.0702,-5.0702,-5.0692,-5.0653,-5.0563,-5.0511,-5.0457,-5.1223,-5.2258,-5.2347,-5.3112,-5.3903,-5.4504,-5.508,-5.577,-5.6334,-5.7079,-5.7706,-5.8002,-5.8282,-5.8326,-5.8391,-5.826,-5.8051,-5.8042,-5.8006,-5.8116,-5.8327,-5.8584,-5.9171,-6.0199,-6.1153,-6.0566,-6.0456,-6.0933,-6.1227,-6.19,-6.267,-6.2805,-6.2989,-6.3246,-6.3943,-6.4751,-6.5595,-6.6366,-6.7136,-6.7797,-6.8274,-6.8752,-6.9082,-6.9743,-7.1138,-7.1908,-7.2129,-7.2275,-7.2459,-7.2532,-7.2642,-7.3413,-7.4258,-7.3303,-7.2753,-5.6601,-5.6601,-5.6601,-5.625,-5.5547,-5.4453,-5.3359,-5.2461,-5.2969,-5.375,-5.457,-5.457,-5.5078,-5.6169,-5.6243,-5.6394,-5.6504,-5.6612,-5.6606,-5.6604,-5.6489,-5.6138,-5.5864,-5.5669,-5.5357,-5.4927,-5.4537,-5.4381,-5.4186,-5.3483,-5.2559,-5.1713,-5.168,-5.1253,-5.1041,-5.0866,-5.0764,-5.0712,-5.0683,-5.0702,-5.0702,-5.0702,-5.0702,-5.0702,-5.0702,-5.0702,-5.0702,-5.0702,-5.0702,-5.0702,-5.0702,-5.0702,-5.0702,-5.0702,-5.0702,-5.0702,-5.0682,-5.0624,-5.0563,-5.0542,-5.1196,-5.2334,-5.2538,-5.3281,-5.4072,-5.4667,-5.5067,-5.5882,-5.6406,-5.7043,-5.7808,-5.8237,-5.8348,-5.8348,-5.8461,-5.8545,-5.8369,-5.8275,-5.8275,-5.8266,-5.8479,-5.9168,-5.9732,-6.0762,-6.1447,-6.0652,-6.0469,-6.1043,-6.1594,-6.223,-6.2633,-6.2768,-6.2879,-6.3135,-6.3906,-6.4714,-6.5558,-6.6366,-6.7136,-6.7907,-6.8605,-6.9045,-6.9376,-7.0,-7.0917,-7.1725,-7.2349,-7.2459,-7.2496,-7.2753,-7.2936,-7.3817,-7.4258,-7.3413,-7.3083,-5.6601,-5.6601,-5.6601,-5.6094,-5.5351,-5.5078,-5.4531,-5.3867,-5.3945,-5.4492,-5.5234,-5.5234,-5.5781,-5.6483,-5.6559,-5.6593,-5.6587,-5.6618,-5.661,-5.6528,-5.6216,-5.5825,-5.5396,-5.4927,-5.4576,-5.4029,-5.3639,-5.3483,-5.3249,-5.2661,-5.1745,-5.1411,-5.1229,-5.1142,-5.1029,-5.0949,-5.0858,-5.0764,-5.073,-5.0683,-5.0702,-5.0702,-5.0702,-5.0702,-5.0702,-5.0702,-5.0702,-5.0702,-5.0702,-5.0702,-5.0702,-5.0702,-5.0702,-5.0702,-5.0702,-5.0702,-5.0702,-5.0654,-5.0614,-5.0584,-5.1523,-5.2456,-5.2817,-5.3608,-5.4282,-5.4905,-5.5681,-5.648,-5.6646,-5.7024,-5.7813,-5.8439,-5.8391,-5.8282,-5.8586,-5.889,-5.877,-5.8586,-5.8529,-5.8482,-5.8909,-5.9615,-6.0428,-6.1422,-6.1851,-6.1227,-6.1006,-6.1263,-6.1741,-6.2254,-6.2622,-6.2805,-6.2842,-6.2989,-6.3796,-6.453,-6.5338,-6.6182,-6.7063,-6.7871,-6.8715,-6.9522,-7.0,-7.0146,-7.0367,-7.1248,-7.2202,-7.2422,-7.2569,-7.2789,-7.3156,-7.3964,-7.4294,-7.3854,-7.3817,-5.6601,-5.6601,-5.6601,-5.6172,-5.5586,-5.6172,-5.6055,-5.5351,-5.4648,-5.4687,-5.539,-5.543,-5.5898,-5.6523,-5.66,-5.6597,-5.6512,-5.6427,-5.6263,-5.6411,-5.5552,-5.5005,-5.4615,-5.4303,-5.3717,-5.3444,-5.3132,-5.2585,-5.239,-5.196,-5.1607,-5.141,-5.1294,-5.1199,-5.1147,-5.1029,-5.0925,-5.0883,-5.0791,-5.073,-5.0721,-5.0702,-5.0702,-5.0702,-5.0702,-5.0702,-5.0702,-5.0702,-5.0702,-5.0702,-5.0702,-5.0702,-5.0702,-5.0702,-5.0702,-5.0702,-5.0702,-5.0702,-5.0654,-5.0624,-5.1565,-5.2455,-5.3064,-5.3916,-5.4639,-5.5053,-5.5812,-5.6775,-5.7071,-5.76,-5.8351,-5.8817,-5.889,-5.887,-5.9065,-5.9159,-5.9026,-5.8811,-5.8561,-5.868,-5.9232,-5.9872,-6.0093,-6.0919,-6.1227,-6.1227,-6.1447,-6.1557,-6.1741,-6.2181,-6.2585,-6.2805,-6.2842,-6.2952,-6.3392,-6.4127,-6.5007,-6.5888,-6.688,-6.8091,-6.9155,-6.9926,-7.066,-7.077,-7.0881,-7.1284,-7.1945,-7.2275,-7.2569,-7.2716,-7.3193,-7.4037,-7.4221,-7.4111,-7.4258,-5.6601,-5.6601,-5.6601,-5.6445,-5.6328,-5.6523,-5.6484,-5.6289,-5.6094,-5.6055,-5.625,-5.6289,-5.6328,-5.6562,-5.6601,-5.6598,-5.6437,-5.6002,-5.5681,-5.5322,-5.4734,-5.4068,-5.3485,-5.321,-5.2702,-5.2117,-5.1804,-5.1804,-5.1765,-5.1531,-5.1375,-5.1375,-5.1313,-5.1297,-5.1214,-5.1123,-5.1075,-5.0998,-5.0875,-5.0803,-5.0712,-5.0721,-5.0702,-5.0702,-5.0702,-5.0702,-5.0702,-5.0702,-5.0702,-5.0702,-5.0702,-5.0702,-5.0702,-5.0702,-5.0702,-5.0702,-5.0702,-5.0702,-5.0741,-5.0846,-5.1634,-5.2585,-5.336,-5.4222,-5.4883,-5.5171,-5.5822,-5.6835,-5.7611,-5.8182,-5.8761,-5.9153,-5.9415,-5.945,-5.9502,-5.9397,-5.9289,-5.9007,-5.8689,-5.9054,-5.9604,-5.9859,-6.0029,-6.0194,-6.0406,-6.0823,-6.1337,-6.1557,-6.152,-6.1851,-6.2585,-6.2805,-6.2805,-6.2952,-6.3246,-6.398,-6.4971,-6.5888,-6.688,-6.8164,-6.9559,-7.0036,-7.0513,-7.1174,-7.1578,-7.1651,-7.1835,-7.2312,-7.2569,-7.2679,-7.3487,-7.4404,-7.4698,-7.4661,-7.4698,-5.6601,-5.6601,-5.6601,-5.6601,-5.6601,-5.6601,-5.6601,-5.6601,-5.6601,-5.6601,-5.6601,-5.6601,-5.6601,-5.6601,-5.6601,-5.6287,-5.6049,-5.5537,-5.5101,-5.4586,-5.3875,-5.3327,-5.2741,-5.2312,-5.196,-5.1453,-5.1414,-5.1414,-5.1375,-5.1375,-5.1375,-5.1375,-5.1412,-5.1362,-5.1284,-5.1225,-5.1144,-5.1079,-5.0959,-5.089,-5.0794,-5.074,-5.0721,-5.0702,-5.0702,-5.0702,-5.0702,-5.0702,-5.0702,-5.0702,-5.0702,-5.0702,-5.0702,-5.0702,-5.0702,-5.0702,-5.0702,-5.0702,-5.0779,-5.1125,-5.1779,-5.2721,-5.3682,-5.4573,-5.5275,-5.5646,-5.6304,-5.7212,-5.7693,-5.8257,-5.926,-5.9814,-5.9782,-5.9798,-5.9937,-5.9937,-5.9723,-5.9447,-5.9287,-5.9421,-5.9918,-6.0327,-6.0425,-6.0287,-6.0465,-6.0456,-6.097,-6.1398,-6.1398,-6.1814,-6.2451,-6.2805,-6.2805,-6.2842,-6.3025,-6.3943,-6.5154,-6.6035,-6.688,-6.8641,-7.0073,-7.0073,-7.0367,-7.1211,-7.1578,-7.1358,-7.1651,-7.2312,-7.2532,-7.2569,-7.3634,-7.4815,-7.4992,-7.5065,-7.5065,-5.6328,-5.6289,-5.625,-5.6328,-5.6445,-5.6445,-5.6484,-5.6601,-5.6601,-5.6601,-5.6562,-5.6445,-5.6484,-5.6601,-5.6406,-5.5898,-5.5349,-5.472,-5.4324,-5.3771,-5.294,-5.2509,-5.2195,-5.1804,-5.157,-5.1453,-5.1414,-5.1375,-5.1375,-5.1375,-5.1375,-5.1375,-5.1375,-5.1373,-5.1362,-5.13,-5.1218,-5.1183,-5.1092,-5.0991,-5.0859,-5.0756,-5.0702,-5.0702,-5.0702,-5.0702,-5.0702,-5.0702,-5.0702,-5.0702,-5.0702,-5.0702,-5.0702,-5.0702,-5.0702,-5.0702,-5.0702,-5.0702,-5.0818,-5.1395,-5.2202,-5.3126,-5.401,-5.478,-5.5434,-5.6055,-5.6691,-5.7424,-5.7913,-5.8604,-5.962,-6.0237,-6.017,-6.0156,-6.0304,-6.0384,-6.0121,-5.9868,-5.9804,-5.9793,-6.0245,-6.0726,-6.0359,-6.0248,-6.0361,-6.0331,-6.0588,-6.0932,-6.1397,-6.2118,-6.283,-6.2904,-6.2805,-6.2842,-6.2879,-6.4016,-6.5301,-6.6035,-6.7063,-6.9045,-7.0513,-7.0513,-7.0807,-7.1431,-7.1651,-7.1394,-7.1762,-7.2422,-7.2532,-7.2532,-7.378,-7.4852,-7.4925,-7.5065,-7.5212,-5.5117,-5.4492,-5.4492,-5.4922,-5.5469,-5.5547,-5.5937,-5.6523,-5.6562,-5.6601,-5.6328,-5.5859,-5.5859,-5.6523,-5.582,-5.5234,-5.4803,-5.4019,-5.3349,-5.2833,-5.2202,-5.1806,-5.1648,-5.1609,-5.1453,-5.1375,-5.1375,-5.1375,-5.1375,-5.1375,-5.1375,-5.1375,-5.1375,-5.1375,-5.1373,-5.1357,-5.1311,-5.1284,-5.1203,-5.1113,-5.1035,-5.0889,-5.0721,-5.0702,-5.0702,-5.0702,-5.0702,-5.0702,-5.0702,-5.0702,-5.0702,-5.0702,-5.0702,-5.0702,-5.0702,-5.0702,-5.0702,-5.0702,-5.0933,-5.151,-5.2279,-5.3126,-5.401,-5.4818,-5.5395,-5.5818,-5.6709,-5.7851,-5.8419,-5.91,-5.992,-6.0366,-6.0468,-6.0455,-6.052,-6.052,-6.0387,-6.0179,-6.0007,-6.0248,-6.064,-6.0263,-5.9404,-5.9579,-6.0011,-6.0219,-6.0763,-6.1047,-6.0956,-6.1982,-6.3168,-6.299,-6.2805,-6.2805,-6.2879,-6.4237,-6.5448,-6.6145,-6.721,-6.9192,-7.0513,-7.0889,-7.1256,-7.1578,-7.1688,-7.1541,-7.2018,-7.2532,-7.2532,-7.2716,-7.3964,-7.4852,-7.4925,-7.4999,-7.5102]},{"header":{"parameterUnit":"m.s-1","parameterCategory":1,"la1":31.0,"la2":29.5877,"lo1":-88.7671,"lo2":-86.6584,"dy":0.0162,"dx":0.0185,"nx":115,"ny":88,"refTime":"2024-02-23T06:00:00:Z","depth":0,"parameterNumber":3,"parameterNumberName":"V-component_of_WINDS"},"data":[0.0,0.0,0.0,0.0,0.0,0.0,0.0,0.0,0.0,0.0,0.0,0.0,0.0,0.0,0.0,0.0,0.0,0.0,0.0,0.0,0.0,0.0,0.0,0.0,0.0,0.0,0.0,0.0,0.0,0.0,0.0,0.0,0.0,0.0,0.0,0.0,0.0,0.0,0.0,0.0,0.0,0.0,0.0,0.0,0.0,0.0,0.0,0.0,0.0,0.0,0.0,0.0,0.0,0.0,0.0,0.0,0.0,0.0,0.0,0.0,0.0,0.0,0.0,0.0,0.0,0.0,0.0,0.0,0.0,0.0,0.0,0.0,0.0,0.0,0.0,0.0,0.0,0.0,0.0,0.0,0.0,0.0,0.0,0.0,0.0,0.0,0.0,0.0,0.0,0.0,0.0,0.0,0.0,0.0,0.0,0.0,0.0,0.0,0.0,0.0,0.0,0.0,0.0,0.0,0.0,0.0,0.0,0.0,0.0,0.0,0.0,0.0,0.0,0.0,0.0,0.0,0.0,0.0,0.0,0.0,0.0,0.0,0.0,0.0,0.0,0.0,0.0,0.0,0.0,0.0,0.0,0.0,0.0,0.0,0.0,0.0,0.0,0.0,0.0,0.0,0.0,0.0,0.0,0.0,0.0,0.0,0.0,0.0,0.0,0.0,0.0,0.0,0.0,0.0,0.0,0.0,0.0,0.0,0.0,0.0,0.0,0.0,0.0,0.0,0.0,0.0,0.0,0.0,0.0,0.0,0.0,0.0,0.0,0.0,0.0,0.0,0.0,0.0,0.0,0.0,0.0,0.0,0.0,0.0,0.0,0.0,0.0,0.0,0.0,0.0,0.0,0.0,0.0,0.0,0.0,0.0,0.0,0.0,0.0,0.0,0.0,0.0,0.0,0.0,0.0,0.0,0.0,0.0,0.0,0.0,0.0,0.0,0.0,0.0,0.0,0.0,0.0,0.0,0.0,0.0,0.0,0.0,0.0,0.0,0.0,0.0,0.0,0.0,0.0,0.0,0.0,0.0,0.0,0.0,0.0,0.0,0.0,0.0,0.0,0.0,0.0,0.0,0.0,0.0,0.0,0.0,0.0,0.0,0.0,0.0,0.0,0.0,0.0,0.0,0.0,0.0,0.0,0.0,0.0,0.0,0.0,0.0,0.0,0.0,0.0,0.0,0.0,0.0,0.0,0.0,0.0,0.0,0.0,0.0,0.0,0.0,0.0,0.0,0.0,0.0,0.0,0.0,0.0,0.0,0.0,0.0,0.0,0.0,0.0,0.0,0.0,0.0,0.0,0.0,0.0,0.0,0.0,0.0,0.0,0.0,0.0,0.0,0.0,0.0,0.0,0.0,0.0,0.0,0.0,0.0,0.0,0.0,0.0,0.0,0.0,0.0,0.0,0.0,0.0,0.0,0.0,0.0,0.0,0.0,0.0,0.0,0.0,0.0,0.0,0.0,0.0,0.0,0.0,0.0,0.0,0.0,0.0,0.0,0.0,0.0,0.0,0.0,0.0,0.0,0.0,0.0,0.0,0.0,0.0,0.0,0.0,0.0,0.0,0.0,0.0,0.0,0.0,0.0,0.0,0.0,0.0,0.0,0.0,0.0,0.0,0.0,0.0,0.0,0.0,0.0,0.0,0.0,0.0,0.0,0.0,0.0,0.0,0.0,0.0,0.0,0.0,0.0,0.0,0.0,0.0,0.0,0.0,0.0,0.0,0.0,0.0,0.0,0.0,0.0,0.0,0.0,0.0,0.0,0.0,0.0,0.0,0.0,0.0,0.0,0.0,0.0,0.0,0.0,0.0,0.0,0.0,0.0,0.0,0.0,0.0,0.0,0.0,0.0,0.0,0.0,0.0,0.0,0.0,0.0,0.0,0.0,0.0,0.0,0.0,0.0,0.0,0.0,0.0,0.0,0.0,0.0,0.0,0.0,0.0,0.0,0.0,0.0,0.0,0.0,0.0,0.0,0.0,0.0,0.0,0.0,0.0,0.0,0.0,0.0,0.0,0.0,0.0,0.0,0.0,0.0,0.0,0.0,0.0,0.0,0.0,0.0,0.0,0.0,0.0,0.0,0.0,0.0,0.0,0.0,0.0,0.0,0.0,0.0,0.0,0.0,0.0,0.0,0.0,0.0,0.0,0.0,0.0,0.0,0.0,0.0,0.0,0.0,0.0,0.0,0.0,0.0,0.0,0.0,0.0,0.0,0.0,0.0,0.0,0.0,0.0,0.0,0.0,0.0,0.0,0.0,0.0,0.0,0.0,0.0,0.0,0.0,0.0,0.0,0.0,0.0,0.0,0.0,0.0,0.0,0.0,0.0,0.0,0.0,0.0,0.0,0.0,0.0,0.0,0.0,0.0,0.0,0.0,0.0,0.0,0.0,0.0,0.0,0.0,0.0,0.0,0.0,0.0,0.0,0.0,0.0,0.0,0.0,0.0,0.0,0.0,0.0,0.0,0.0,0.0,0.0,0.0,0.0,0.0,0.0,0.0,0.0,0.0,0.0,0.0,0.0,0.0,0.0,0.0,0.0,0.0,0.0,0.0,0.0,0.0,0.0,0.0,0.0,0.0,0.0,0.0,0.0,0.0,0.0,0.0,0.0,0.0,0.0,0.0,0.0,0.0,0.0,0.0,0.0,0.0,0.0,0.0,0.0,0.0,0.0,0.0,0.0,0.0,0.0,0.0,0.0,0.0,0.0,0.0,0.0,0.0,0.0,0.0,0.0,0.0,0.0,0.0,0.0,0.0,0.0,0.0,0.0,0.0,0.0,0.0,0.0,0.0,0.0,0.0,0.0,0.0,0.0,0.0,0.0,0.0,0.0,0.0,0.0,0.0,0.0,0.0,0.0,0.0,0.0,0.0,0.0,0.0,0.0,0.0,0.0,0.0,0.0,0.0,0.0,0.0,0.0,0.0,0.0,0.0,0.0,0.0,0.0,0.0,0.0,0.0,0.0,0.0,0.0,0.0,0.0,0.0,0.0,0.0,0.0,0.0,0.0,0.0,0.0,0.0,0.0,0.0,0.0,0.0,0.0,0.0,0.0,0.0,0.0,0.0,0.0,0.0,0.0,0.0,0.0,0.0,0.0,0.0,0.0,0.0,0.0,0.0,0.0,0.0,0.0,0.0,0.0,0.0,0.0,0.0,0.0,0.0,0.0,0.0,0.0,0.0,0.0,0.0,0.0,0.0,0.0,0.0,0.0,0.0,0.0,0.0,0.0,0.0,0.0,0.0,0.0,0.0,0.0,0.0,0.0,0.0,0.0,0.0,0.0,0.0,0.0,0.0,0.0,0.0,0.0,0.0,0.0,0.0,0.0,0.0,0.0,0.0,0.0,0.0,0.0,0.0,0.0,0.0,0.0,0.0,0.0,0.0,0.0,0.0,0.0,0.0,0.0,0.0,0.0,0.0,0.0,0.0,0.0,0.0,0.0,0.0,0.0,0.0,0.0,0.0,0.0,0.0,0.0,0.0,0.0,0.0,0.0,0.0,0.0,0.0,0.0,0.0,0.0,0.0,0.0,0.0,0.0,0.0,0.0,0.0,0.0,0.0,0.0,0.0,0.0,0.0,0.0,0.0,0.0,0.0,0.0,0.0,0.0,0.0,0.0,0.0,0.0,0.0,0.0,0.0,0.0,0.0,0.0,0.0,0.0,0.0,0.0,0.0,0.0,0.0,0.0,0.0,0.0,0.0,0.0,0.0,0.0,0.0,0.0,0.0,0.0,0.0,0.0,0.0,0.0,0.0,0.0,0.0,0.0,0.0,0.0,0.0,0.0,0.0,0.0,0.0,0.0,0.0,0.0,0.0,0.0,0.0,0.0,0.0,0.0,0.0,0.0,0.0,0.0,0.0,0.0,0.0,0.0,0.0,0.0,0.0,0.0,0.0,0.0,0.0,0.0,0.0,0.0,0.0,0.0,0.0,0.0,0.0,0.0,0.0,0.0,0.0,0.0,0.0,0.0,0.0,0.0,0.0,0.0,0.0,0.0,0.0,0.0,0.0,0.0,0.0,0.0,0.0,0.0,0.0,0.0,0.0,0.0,0.0,0.0,0.0,0.0,0.0,0.0,0.0,0.0,0.0,0.0,0.0,0.0,0.0,0.0,0.0,0.0,0.0,0.0,0.0,0.0,0.0,0.0,0.0,0.0,0.0,0.0,0.0,0.0,0.0,0.0,0.0,0.0,0.0,0.0,0.0,0.0,0.0,0.0,0.0,0.0,0.0,0.0,0.0,0.0,0.0,0.0,0.0,0.0,0.0,0.0,-1.0891,0.0,0.0,0.0,0.0,0.0,0.0,0.0,0.0,0.0,0.0,0.0,0.0,0.0,0.0,0.0,0.0,0.0,0.0,0.0,0.0,0.0,0.0,0.0,0.0,0.0,0.0,0.0,0.0,0.0,0.0,0.0,0.0,0.0,0.0,0.0,0.0,0.0,0.0,0.0,0.0,0.0,0.0,0.0,0.0,0.0,0.0,0.0,0.0,0.0,0.0,0.0,0.0,0.0,0.0,0.0,0.0,0.0,0.0,0.0,0.0,0.0,0.0,0.0,0.0,0.0,0.0,0.0,0.0,0.0,0.0,0.0,0.0,0.0,0.0,0.0,0.0,0.0,0.0,0.0,0.0,0.0,0.0,0.0,0.0,0.0,0.0,0.0,0.0,0.0,0.0,0.0,0.0,0.0,0.0,0.0,0.0,0.0,0.0,0.0,0.0,0.0,0.0,0.0,0.0,0.0,0.0,0.0,0.0,0.0,0.0,-0.7986,-0.798,-0.8589,-0.9196,-0.9746,0.0,0.0,0.0,0.0,0.0,0.0,0.0,0.0,0.0,0.0,0.0,0.0,0.0,0.0,0.0,0.0,0.0,0.0,0.0,0.0,0.0,0.0,0.0,0.0,0.0,0.0,0.0,0.0,0.0,0.0,0.0,0.0,0.0,0.0,0.0,0.0,0.0,0.0,0.0,0.0,0.0,0.0,0.0,0.0,0.0,0.0,0.0,0.0,0.0,0.0,0.0,0.0,0.0,0.0,0.0,0.0,0.0,0.0,0.0,0.0,0.0,0.0,0.0,0.0,0.0,0.0,0.0,0.0,0.0,0.0,0.0,0.0,0.0,0.0,0.0,0.0,0.0,0.0,0.0,0.0,0.0,0.0,0.0,0.0,0.0,0.0,0.0,0.0,0.0,0.0,0.0,0.0,0.0,0.0,0.0,0.0,0.0,0.0,0.0,0.0,0.0,0.0,0.0,0.0,0.0,0.0,0.0,0.0,0.0,0.0,0.0,0.0,-0.8042,-0.8754,-0.9361,0.0,0.0,0.0,0.0,0.0,0.0,0.0,0.0,0.0,0.0,0.0,0.0,0.0,0.0,0.0,0.0,0.0,0.0,0.0,0.0,0.0,0.0,0.0,0.0,0.0,0.0,0.0,0.0,0.0,0.0,0.0,0.0,0.0,0.0,0.0,0.0,0.0,0.0,0.0,0.0,0.0,0.0,0.0,0.0,0.0,0.0,0.0,0.0,0.0,0.0,0.0,0.0,0.0,0.0,0.0,0.0,0.0,0.0,0.0,0.0,0.0,0.0,0.0,0.0,0.0,0.0,0.0,0.0,0.0,0.0,0.0,0.0,0.0,0.0,0.0,0.0,0.0,0.0,0.0,0.0,0.0,0.0,0.0,0.0,0.0,0.0,0.0,0.0,0.0,0.0,0.0,0.0,0.0,0.0,0.0,0.0,0.0,0.0,0.0,0.0,0.0,0.0,0.0,0.0,0.0,0.0,0.0,0.0,0.0,0.0,-0.721,-0.721,-0.7321,0.0,-1.0398,0.0,0.0,0.0,0.0,0.0,0.0,0.0,0.0,0.0,0.0,0.0,0.0,0.0,0.0,0.0,0.0,0.0,0.0,0.0,0.0,0.0,0.0,0.0,0.0,0.0,0.0,0.0,0.0,0.0,0.0,0.0,0.0,0.0,0.0,0.0,0.0,0.0,0.0,0.0,0.0,0.0,0.0,0.0,0.0,0.0,0.0,0.0,0.0,0.0,0.0,0.0,0.0,0.0,0.0,0.0,0.0,0.0,0.0,0.0,0.0,0.0,0.0,0.0,0.0,0.0,0.0,0.0,0.0,0.0,0.0,0.0,0.0,0.0,0.0,0.0,0.0,0.0,0.0,0.0,0.0,0.0,0.0,0.0,0.0,0.0,0.0,0.0,0.0,0.0,0.0,0.0,0.0,0.0,0.0,0.0,0.0,0.0,0.0,0.0,0.0,0.0,0.0,0.0,0.0,0.0,0.0,0.0,0.0,0.0,0.0,-0.721,-0.721,-0.721,-0.798,0.0,0.0,0.0,0.0,0.0,0.0,0.0,0.0,0.0,0.0,0.0,0.0,0.0,0.0,0.0,0.0,0.0,0.0,0.0,0.0,0.0,0.0,0.0,0.0,0.0,0.0,0.0,0.0,0.0,0.0,0.0,0.0,0.0,0.0,0.0,0.0,0.0,0.0,0.0,0.0,0.0,0.0,0.0,0.0,0.0,0.0,0.0,0.0,0.0,0.0,0.0,0.0,0.0,0.0,0.0,0.0,0.0,0.0,0.0,0.0,0.0,0.0,0.0,0.0,0.0,0.0,0.0,0.0,0.0,0.0,0.0,0.0,0.0,0.0,0.0,0.0,0.0,0.0,0.0,0.0,0.0,0.0,0.0,0.0,0.0,0.0,0.0,0.0,0.0,0.0,0.0,0.0,0.0,0.0,0.0,0.0,0.0,0.0,0.0,0.0,0.0,0.0,0.0,0.0,0.0,0.0,0.0,0.0,0.0,0.0,-0.721,-0.721,-0.721,-0.721,-0.7709,-0.8865,0.0,0.0,0.0,0.0,0.0,0.0,0.0,0.0,0.0,0.0,0.0,0.0,0.0,0.0,0.0,0.0,0.0,0.0,0.0,0.0,0.0,0.0,0.0,0.0,0.0,0.0,0.0,0.0,0.0,0.0,0.0,0.0,0.0,0.0,0.0,0.0,0.0,0.0,0.0,0.0,0.0,0.0,0.0,0.0,0.0,0.0,0.0,0.0,0.0,0.0,0.0,0.0,0.0,0.0,0.0,0.0,0.0,0.0,0.0,0.0,0.0,0.0,0.0,0.0,0.0,0.0,0.0,0.0,0.0,0.0,0.0,0.0,0.0,0.0,0.0,0.0,0.0,0.0,0.0,0.0,0.0,0.0,0.0,0.0,0.0,0.0,0.0,0.0,0.0,0.0,0.0,0.0,0.0,0.0,0.0,0.0,0.0,0.0,0.0,0.0,0.0,0.0,0.0,0.0,0.0,0.0,0.0,0.0,-0.721,-0.721,-0.721,-0.721,-0.721,-0.7703,0.0,0.0,0.0,0.0,0.0,0.0,0.0,0.0,0.0,0.0,0.0,0.0,0.0,0.0,0.0,0.0,0.0,0.0,0.0,0.0,0.0,0.0,0.0,0.0,0.0,0.0,0.0,0.0,0.0,0.0,0.0,0.0,0.0,0.0,0.0,0.0,0.0,0.0,0.0,0.0,0.0,0.0,0.0,0.0,0.0,0.0,0.0,0.0,0.0,0.0,0.0,0.0,0.0,0.0,0.0,0.0,0.0,0.0,0.0,0.0,0.0,0.0,0.0,0.0,0.0,0.0,0.0,0.0,0.0,0.0,0.0,0.0,0.0,0.0,0.0,0.0,0.0,0.0,0.0,0.0,0.0,0.0,0.0,0.0,0.0,0.0,0.0,0.0,0.0,0.0,0.0,0.0,0.0,0.0,0.0,0.0,0.0,0.0,0.0,0.0,0.0,0.0,0.0,0.0,0.0,0.0,0.0,0.0,0.0,-0.721,-0.721,-0.721,-0.721,-0.721,-0.7376,0.0,0.0,0.0,0.0,0.0,0.0,0.0,0.0,0.0,0.0,0.0,0.0,0.0,0.0,0.0,0.0,0.0,0.0,0.0,0.0,0.0,0.0,0.0,0.0,0.0,0.0,0.0,0.0,0.0,0.0,0.0,0.0,0.0,0.0,0.0,0.0,0.0,0.0,0.0,0.0,0.0,0.0,0.0,0.0,0.0,0.0,0.0,0.0,0.0,0.0,0.0,0.0,0.0,0.0,0.0,0.0,0.0,0.0,0.0,0.0,0.0,0.0,0.0,0.0,0.0,0.0,0.0,0.0,0.0,0.0,0.0,0.0,0.0,0.0,0.0,0.0,0.0,0.0,0.0,0.0,0.0,0.0,0.0,0.0,0.0,0.0,0.0,0.0,0.0,0.0,0.0,0.0,0.0,0.0,0.0,0.0,0.0,0.0,0.0,0.0,0.0,0.0,0.0,0.0,0.0,0.0,0.0,0.0,0.0,-0.71,0.0,-0.7139,-0.7095,-0.7095,-0.704,0.0,0.0,0.0,0.0,0.0,0.0,0.0,0.0,0.0,0.0,0.0,0.0,0.0,0.0,0.0,0.0,0.0,0.0,0.0,0.0,0.0,0.0,0.0,0.0,0.0,0.0,0.0,0.0,0.0,0.0,0.0,0.0,0.0,0.0,0.0,0.0,0.0,0.0,0.0,0.0,0.0,0.0,0.0,0.0,0.0,0.0,0.0,0.0,0.0,0.0,0.0,0.0,0.0,0.0,0.0,0.0,0.0,0.0,0.0,0.0,0.0,0.0,0.0,0.0,0.0,0.0,0.0,0.0,0.0,0.0,0.0,0.0,0.0,0.0,0.0,0.0,0.0,0.0,0.0,0.0,0.0,0.0,0.0,0.0,0.0,0.0,0.0,0.0,0.0,0.0,0.0,0.0,0.0,0.0,0.0,0.0,0.0,0.0,0.0,0.0,0.0,0.0,0.0,0.0,0.0,0.0,0.0,0.0,-0.6931,-0.6817,-0.6926,-0.6931,-0.6812,-0.6812,-0.6812,0.0,0.0,0.0,0.0,0.0,0.0,0.0,0.0,0.0,0.0,0.0,0.0,0.0,0.0,0.0,0.0,0.0,0.0,0.0,0.0,0.0,0.0,0.0,0.0,0.0,0.0,0.0,0.0,0.0,0.0,0.0,0.0,0.0,0.0,0.0,0.0,0.0,0.0,0.0,0.0,0.0,0.0,0.0,0.0,0.0,0.0,0.0,0.0,0.0,0.0,0.0,0.0,0.0,0.0,0.0,0.0,0.0,0.0,0.0,0.0,0.0,0.0,0.0,0.0,0.0,0.0,0.0,0.0,0.0,0.0,0.0,0.0,0.0,0.0,0.0,0.0,0.0,0.0,0.0,0.0,0.0,0.0,0.0,0.0,0.0,0.0,0.0,0.0,0.0,0.0,0.0,0.0,0.0,0.0,0.0,0.0,0.0,0.0,0.0,0.0,0.0,0.0,0.0,0.0,0.0,0.0,0.0,0.0,0.0,-0.6806,-0.6839,-0.6839,-0.6806,-0.6801,-0.6801,0.0,0.0,0.0,0.0,0.0,0.0,0.0,0.0,0.0,0.0,0.0,0.0,0.0,0.0,0.0,0.0,0.0,0.0,0.0,0.0,0.0,0.0,0.0,0.0,0.0,0.0,0.0,0.0,0.0,0.0,0.0,0.0,0.0,0.0,0.0,0.0,0.0,0.0,0.0,0.0,0.0,0.0,0.0,0.0,0.0,0.0,0.0,0.0,0.0,0.0,0.0,0.0,0.0,0.0,0.0,0.0,0.0,0.0,0.0,0.0,0.0,0.0,0.0,0.0,0.0,0.0,0.0,0.0,0.0,0.0,0.0,0.0,0.0,0.0,0.0,0.0,0.0,0.0,0.0,0.0,0.0,0.0,0.0,0.0,0.0,0.0,0.0,0.0,0.0,0.0,0.0,0.0,0.0,0.0,0.0,0.0,0.0,0.0,0.0,0.0,0.0,0.0,0.0,0.0,0.0,0.0,0.0,0.0,0.0,-0.6872,-0.6872,-0.6844,-0.6801,-0.6801,-0.6757,-0.6671,0.0,0.0,0.0,0.0,0.0,0.0,0.0,0.0,0.0,0.0,0.0,0.0,0.0,0.0,0.0,0.0,0.0,0.0,0.0,0.0,0.0,0.0,0.0,0.0,0.0,0.0,0.0,0.0,0.0,0.0,0.0,0.0,0.0,0.0,0.0,0.0,0.0,0.0,0.0,0.0,0.0,0.0,0.0,0.0,0.0,0.0,0.0,0.0,0.0,0.0,0.0,0.0,0.0,0.0,0.0,0.0,0.0,0.0,0.0,0.0,0.0,0.0,0.0,0.0,0.0,0.0,0.0,0.0,0.0,0.0,0.0,0.0,0.0,0.0,0.0,0.0,0.0,0.0,0.0,0.0,0.0,0.0,0.0,0.0,0.0,0.0,0.0,0.0,0.0,0.0,0.0,0.0,0.0,0.0,0.0,0.0,0.0,0.0,0.0,0.0,0.0,0.0,0.0,0.0,0.0,0.0,0.0,0.0,-0.6991,-0.7008,-0.6953,-0.6834,-0.6812,-0.6692,0.0,0.0,0.0,0.0,0.0,0.0,0.0,0.0,0.0,0.0,0.0,0.0,0.0,0.0,0.0,0.0,0.0,0.0,0.0,0.0,0.0,0.0,0.0,0.0,0.0,0.0,0.0,0.0,0.0,0.0,0.0,0.0,0.0,0.0,0.0,0.0,0.0,0.0,0.0,0.0,0.0,0.0,0.0,0.0,0.0,0.0,0.0,0.0,0.0,0.0,0.0,0.0,0.0,0.0,0.0,0.0,0.0,0.0,0.0,0.0,0.0,0.0,0.0,0.0,0.0,0.0,0.0,0.0,0.0,0.0,0.0,0.0,0.0,0.0,0.0,0.0,0.0,0.0,0.0,0.0,0.0,0.0,0.0,0.0,0.0,0.0,0.0,0.0,0.0,0.0,0.0,0.0,0.0,0.0,0.0,0.0,0.0,0.0,0.0,0.0,0.0,0.0,0.0,0.0,0.0,0.0,0.0,0.0,0.0,-0.7172,-0.7285,-0.7279,-0.7122,-0.6893,-0.6774,0.0,0.0,0.0,0.0,0.0,0.0,0.0,0.0,0.0,0.0,0.0,0.0,0.0,0.0,0.0,0.0,0.0,0.0,0.0,0.0,0.0,0.0,0.0,0.0,0.0,0.0,0.0,0.0,0.0,0.0,0.0,0.0,0.0,0.0,0.0,0.0,0.0,0.0,0.0,0.0,0.0,0.0,0.0,0.0,0.0,0.0,0.0,0.0,0.0,0.0,0.0,0.0,0.0,0.0,0.0,0.0,0.0,0.0,0.0,0.0,0.0,0.0,0.0,0.0,0.0,0.0,0.0,0.0,0.0,0.0,0.0,0.0,0.0,0.0,0.0,0.0,0.0,0.0,0.0,0.0,0.0,0.0,0.0,0.0,0.0,0.0,0.0,0.0,0.0,0.0,0.0,0.0,0.0,0.0,0.0,0.0,0.0,0.0,0.0,0.0,0.0,0.0,0.0,0.0,0.0,0.0,0.0,0.0,-0.7126,-0.7011,-0.7285,-0.7423,-0.729,-0.7072,-0.6904,0.0,0.0,0.0,0.0,0.0,0.0,0.0,0.0,0.0,0.0,0.0,0.0,0.0,0.0,0.0,0.0,0.0,0.0,0.0,0.0,0.0,0.0,0.0,0.0,0.0,0.0,0.0,0.0,0.0,0.0,0.0,0.0,0.0,0.0,0.0,0.0,0.0,0.0,0.0,0.0,0.0,0.0,0.0,0.0,0.0,0.0,0.0,0.0,0.0,0.0,0.0,0.0,0.0,0.0,0.0,0.0,0.0,0.0,0.0,0.0,0.0,0.0,0.0,0.0,0.0,0.0,0.0,0.0,0.0,0.0,0.0,0.0,0.0,0.0,0.0,0.0,0.0,0.0,0.0,0.0,0.0,0.0,0.0,0.0,0.0,0.0,0.0,0.0,0.0,0.0,0.0,0.0,0.0,0.0,0.0,0.0,0.0,0.0,0.0,0.0,0.0,0.0,0.0,0.0,0.0,0.0,0.0,0.0,-0.7078,-0.6846,-0.716,-0.7327,-0.7373,-0.7232,-0.7056,0.0,0.0,0.0,0.0,0.0,0.0,0.0,0.0,0.0,0.0,0.0,0.0,0.0,0.0,0.0,0.0,0.0,0.0,0.0,0.0,0.0,0.0,0.0,0.0,0.0,0.0,0.0,0.0,0.0,0.0,0.0,0.0,0.0,0.0,0.0,0.0,0.0,0.0,0.0,0.0,0.0,0.0,0.0,0.0,0.0,0.0,0.0,0.0,0.0,0.0,0.0,0.0,0.0,0.0,0.0,0.0,0.0,0.0,0.0,0.0,0.0,0.0,0.0,0.0,0.0,0.0,0.0,0.0,0.0,0.0,0.0,0.0,0.0,0.0,0.0,0.0,0.0,0.0,0.0,0.0,0.0,0.0,0.0,0.0,0.0,0.0,0.0,0.0,0.0,0.0,0.0,0.0,0.0,0.0,0.0,0.0,0.0,0.0,0.0,0.0,0.0,0.0,0.0,0.0,0.0,0.0,0.0,0.0,-0.6995,-0.6963,-0.696,-0.7025,-0.7021,-0.6892,-0.6911,0.0,0.0,0.0,0.0,0.0,0.0,0.0,0.0,0.0,0.0,0.0,0.0,0.0,0.0,0.0,0.0,0.0,0.0,0.0,0.0,0.0,0.0,0.0,0.0,0.0,0.0,0.0,0.0,0.0,0.0,0.0,0.0,0.0,0.0,0.0,0.0,0.0,0.0,0.0,0.0,0.0,0.0,0.0,0.0,0.0,0.0,0.0,0.0,-0.1959,0.0,0.0,0.0,0.0,0.0,0.0,0.0,0.0,0.0,0.0,0.0,0.0,0.0,0.0,0.0,0.0,0.0,0.0,0.0,0.0,0.0,0.0,0.0,0.0,0.0,0.0,0.0,0.0,0.0,0.0,0.0,0.0,0.0,0.0,0.0,0.0,0.0,0.0,0.0,0.0,0.0,0.0,0.0,0.0,0.0,0.0,0.0,0.0,0.0,0.0,0.0,0.0,0.0,0.0,0.0,0.0,0.0,0.0,0.0,-0.6157,-0.6613,-0.5987,-0.5966,-0.6501,-0.6379,-0.6492,0.0,0.0,0.0,0.0,0.0,0.0,0.0,0.0,0.0,0.0,0.0,0.0,0.0,0.0,0.0,0.0,0.0,0.0,0.0,0.0,0.0,0.0,0.0,0.0,0.0,0.0,0.0,0.0,0.0,0.0,0.0,0.0,0.0,0.0,0.0,0.0,0.0,0.0,0.0,0.0,0.0,0.0,0.0,0.0,0.0,0.0,0.0,0.0,0.0,0.0,0.0,0.0,0.0,0.0,0.0,0.0,0.0,0.0,0.0,0.0,0.0,0.0,0.0,0.0,0.0,0.0,0.0,0.0,0.0,0.0,0.0,0.0,0.0,0.0,0.0,0.0,0.0,0.0,0.0,0.0,0.0,0.0,0.0,0.0,0.0,0.0,0.0,0.0,0.0,0.0,0.0,0.0,0.0,0.0,0.0,0.0,0.0,0.0,0.0,0.0,0.0,0.0,0.0,0.0,0.0,0.0,0.0,-0.5198,-0.4962,-0.5583,-0.4691,-0.4698,-0.5701,-0.5755,-0.6033,-0.6548,0.0,0.0,0.0,0.0,0.0,0.0,0.0,0.0,0.0,0.0,0.0,0.0,0.0,0.0,0.0,0.0,0.0,0.0,0.0,0.0,0.0,0.0,0.0,0.0,0.0,0.0,0.0,0.0,0.0,0.0,0.0,0.0,0.0,0.0,0.0,0.0,0.0,0.0,-0.3924,-0.2717,0.0,0.0,0.0,0.0,0.0,0.0,0.0,0.0,0.1605,0.0,0.0,0.0,0.0,0.0,0.0,0.0,0.0,0.0,0.0,0.0,0.0,0.0,0.0,0.0,0.0,0.0,0.0,0.0,0.0,0.0,0.0,0.0,0.0,0.0,0.0,0.0,0.0,0.0,0.0,0.0,0.0,0.0,0.0,0.0,0.0,0.0,0.0,0.0,0.0,0.0,0.0,0.0,0.0,0.0,0.0,0.0,0.0,0.0,0.0,0.0,0.0,0.0,0.0,0.0,0.0,-0.4966,-0.4582,-0.3953,-0.3144,-0.3691,-0.4056,-0.4288,-0.5017,-0.5638,-0.6013,0.0,0.0,0.0,0.0,0.0,0.0,0.0,0.0,0.0,0.0,0.0,0.0,0.0,0.0,0.0,0.0,0.0,0.0,0.0,0.0,0.0,0.0,0.0,0.0,0.0,0.0,0.0,0.0,0.0,0.0,0.0,0.0,0.0,0.0,0.0,0.0,0.0,0.0,0.0,-0.1026,-0.0388,0.0,0.0,0.0,0.0,0.0,0.0,0.0,0.0,0.1535,0.0,0.0,0.0,0.0,0.0,0.0,0.0,0.0,0.0,0.0,0.0,0.0,0.0,0.0,0.0,0.0,0.0,0.0,0.0,0.0,0.0,0.0,0.0,0.0,0.0,0.0,0.0,0.0,0.0,0.0,0.0,0.0,0.0,0.0,0.0,0.0,0.0,0.0,0.0,0.0,0.0,0.0,0.0,0.0,0.0,0.0,0.0,0.0,0.0,0.0,0.0,0.0,0.0,0.0,0.0,-0.4449,-0.3117,-0.2392,-0.2316,-0.2031,-0.2438,-0.3653,-0.4108,-0.4712,0.0,0.0,0.0,0.0,0.0,0.0,0.0,0.0,0.0,0.0,0.0,0.0,0.0,0.0,0.0,0.0,0.0,0.0,0.0,0.0,0.0,0.0,0.0,0.0,0.0,0.0,0.0,0.0,0.0,0.0,0.0,0.0,0.0,0.0,0.0,0.0,0.0,0.0,0.0,0.0,0.025,0.0657,0.1153,0.0,0.0,0.0,0.0,0.0,0.0,0.1678,0.1655,0.0,0.0,0.0,0.0,0.0,0.0,0.0,0.0,0.0,0.0,0.0,0.0,0.0,0.0,0.0,0.0,0.0,0.0,0.0,0.0,0.0,0.0,0.0,0.0,0.0,0.0,0.0,0.0,0.0,0.0,0.0,0.0,0.0,0.0,0.0,0.0,0.0,0.0,0.0,0.0,0.0,0.0,0.0,0.0,0.0,0.0,0.0,0.0,0.0,0.0,0.0,0.0,0.0,0.0,0.0,-0.3856,-0.1704,-0.0829,-0.1316,-0.0459,-0.0918,-0.2692,-0.3093,-0.3754,0.0,0.0,0.0,0.0,0.0,0.0,0.0,0.0,0.0,0.0,0.0,0.0,0.0,0.0,0.0,0.0,0.0,0.0,0.0,0.0,0.0,0.0,0.0,0.0,0.0,0.0,0.0,0.0,0.0,0.0,0.0,0.0,0.0,0.0,0.0,0.0,0.0,0.0,0.0,0.0,0.0,0.1353,0.14,0.1551,0.0,0.0,0.0,0.0,0.173,0.1718,0.0,0.0,0.0,0.0,0.0,0.0,0.0,0.0,0.0,0.0,0.0,0.0,0.0,0.0,0.0,0.0,0.0,0.0,0.0,0.0,0.0,0.0,0.0,0.0,0.0,0.0,0.0,0.0,0.0,0.0,0.0,0.0,0.0,0.0,0.0,0.0,0.0,0.0,0.0,0.0,0.0,0.0,0.0,0.0,0.0,0.0,0.0,0.0,0.0,0.0,0.0,0.0,0.0,0.0,0.0,0.0,-0.2271,-0.0889,0.0328,0.1261,0.0459,-0.0115,-0.0401,-0.2103,-0.3197,0.0,0.0,0.0,0.0,0.0,0.0,0.0,0.0,0.0,0.0,0.0,0.0,0.0,0.0,0.0,0.0,0.0,0.0,0.0,0.0,0.0,0.0,0.0,0.0,0.0,0.0,0.0,0.0,0.0,0.0,0.0,0.0,0.0,0.0,0.0,0.0,0.0,0.0,0.0,0.0,0.0,0.1603,0.1663,0.167,0.1728,0.0,0.0,0.1794,0.1763,0.1844,0.0,0.0,0.0,0.0,0.0,0.0,0.0,0.0,0.0,0.0,0.0,0.0,0.0,0.0,0.0,0.0,0.0,0.0,0.0,0.0,0.0,0.0,0.0,0.0,0.0,0.0,0.0,0.0,0.0,0.0,0.0,0.0,0.0,0.0,0.0,0.0,0.0,0.0,0.0,0.0,0.0,0.0,0.0,0.0,0.0,0.0,0.0,0.0,0.0,0.0,0.0,0.0,0.0,0.0,0.0,-0.2446,-0.116,0.0108,0.113,0.1805,0.1352,0.0768,0.0059,-0.072,-0.18,0.0,0.0,0.0,0.0,0.0,0.0,0.0,0.0,0.0,0.0,0.0,0.0,0.0,0.0,0.0,0.0,0.0,0.0,0.0,0.0,0.0,0.0,0.0,0.0,0.0,0.0,0.0,0.0,0.0,0.0,0.0,0.0,0.0,0.0,0.0,0.0,0.0,0.0,0.0,0.0,0.0,0.0,0.1762,0.1741,0.0,0.0,0.0,0.2032,0.276,0.0,0.0,0.0,0.0,0.0,0.0,0.0,0.0,0.0,0.0,0.0,0.0,0.0,0.0,0.0,0.0,0.0,0.0,0.0,0.0,0.0,0.0,0.0,0.0,0.0,0.0,0.0,0.0,0.0,0.0,0.0,0.0,0.0,0.0,0.0,0.0,0.0,0.0,0.0,0.0,0.0,0.0,0.0,0.0,0.0,0.0,0.0,0.0,0.0,0.0,0.0,0.0,0.0,0.0,0.0,0.0,0.0,-0.0512,0.0833,0.1633,0.1896,0.1919,0.1447,0.0602,0.0399,0.0,0.0,0.0,0.0,0.0,0.0,0.0,0.0,0.0,0.0,0.0,0.0,0.0,0.0,0.0,0.0,0.0,0.0,0.0,0.0,0.0,0.0,0.0,0.0,0.0,0.0,0.0,-0.3803,0.0,0.0,0.0,0.0,0.0,0.0,0.0,0.0,0.0,0.0,0.0,0.0,0.0,0.0,0.1588,0.176,0.1813,0.1976,0.0,0.0,0.2807,0.4129,0.3574,0.3149,0.0,0.0,0.0,0.0,0.0,0.0,0.0,0.0,0.0,0.0,0.0,0.0,0.0,0.0,0.0,0.0,0.0,0.0,0.0,0.0,0.0,0.0,0.0,0.0,0.0,0.0,0.0,0.0,0.0,0.0,0.0,0.0,0.0,0.0,0.0,0.0,0.0,0.0,0.0,0.0,0.0,0.0,0.0,0.0,0.0,0.0,0.0,0.0,0.0,0.0,0.0,0.0,0.0,0.0,0.0,-0.0478,0.108,0.1898,0.1866,0.187,0.187,0.1748,0.0874,0.028,0.0,0.0,0.0,0.0,0.0,0.0,0.0,0.0,0.0,0.0,0.0,0.0,0.0,0.0,0.0,0.0,0.0,0.0,0.0,0.0,0.0,0.0,0.0,0.0,0.0,0.0,0.0,0.0,0.0,0.0,0.0,0.0,0.0,0.0,0.0,0.0,0.0,0.0,0.0,0.0,0.0,0.176,0.1787,0.1843,0.2389,0.0,0.0,0.4403,0.5871,0.5928,0.5403,0.421,0.0,0.0,0.0,0.0,0.0,0.0,0.0,0.0,0.0,0.0,0.0,0.0,0.0,0.0,0.0,0.0,0.0,0.0,0.0,0.0,0.0,0.0,0.0,0.0,0.0,0.0,0.0,0.0,0.0,0.0,0.0,0.0,0.0,0.0,0.0,0.0,0.0,0.0,0.0,0.0,0.0,0.0,0.0,0.0,0.0,0.0,0.0,0.0,0.0,0.0,0.0,0.0,0.0,-0.0212,0.0373,0.1382,0.1919,0.187,0.1949,0.1959,0.1959,0.1543,0.0974,0.0,0.0,0.0,0.0,0.0,0.0,0.0,0.0,0.0,0.0,0.0,0.0,0.0,0.0,0.0,0.0,0.0,0.0,0.0,0.0,0.0,0.0,0.0,0.0,0.0,0.0,0.0,0.0,-0.0391,0.0,0.0869,0.0,0.0,0.0,0.0,0.0,0.0,0.0,0.0,0.0,0.0,0.2146,0.3072,0.327,0.0,0.0,0.5349,0.5714,0.6901,0.6339,0.5729,0.5762,0.506,0.0,0.0,0.0,0.0,0.0,0.0,0.0,0.0,0.0,0.0,0.0,0.0,0.0,0.0,0.0,0.0,0.0,0.0,0.0,0.0,0.0,0.0,0.0,0.0,0.0,0.0,0.0,0.0,0.0,0.0,0.0,0.0,0.0,0.0,0.0,0.0,0.0,0.0,0.0,0.0,0.0,0.0,0.0,0.0,0.0,0.0,0.0,0.0,0.0,0.0,0.0,0.0,0.0269,0.0921,0.1581,0.1944,0.1944,0.1966,0.2038,0.2037,0.1936,0.1531,0.0,0.0,0.0,0.0,0.0,0.0,0.0,0.0,0.0,0.0,0.0,0.0,0.0,0.0,0.0,0.0,0.0,0.0,0.0,0.0,0.0,0.0,0.0,0.0,0.0,0.0,0.0,0.0,0.0594,0.084,0.1435,0.0,0.0,0.0,0.0,0.0,0.0,0.0,0.0,0.0,0.0,0.2984,0.4437,0.4703,0.5185,0.6558,0.663,0.6971,0.8102,0.7359,0.6823,0.7133,0.0,0.0,0.0,0.0,0.0,0.0,0.0,0.0,0.0,0.0,0.0,0.0,0.0,0.0,0.0,0.0,0.0,0.0,0.0,0.0,0.0,0.0,0.0,0.0,0.0,0.0,0.0,0.0,0.0,0.0,-0.7473,0.0,0.0,0.0,0.0,0.0,0.0,0.0,0.0,0.0,0.0,0.0,0.0,0.0,0.0,0.0,0.0,0.0,0.0,0.0,0.0,0.0,0.0,0.0991,0.1009,0.1671,0.1974,0.1974,0.2037,0.2038,0.2038,0.1975,0.1945,0.1825,0.0,0.0,0.0,0.0,0.0,0.0,0.0,0.0,0.0,0.0,0.0,0.0,0.0,0.0,0.0,0.0,0.0,0.0,0.0,0.0,0.0,0.0,0.0,0.0,0.0,0.0,0.1362,0.1473,0.1511,0.0,0.0,0.0,0.0,0.0,0.0,0.0,0.0,0.0,0.0,0.3934,0.4517,0.5666,0.5847,0.6337,0.7516,0.7617,0.8066,0.9506,0.9566,0.9137,0.0,0.0,0.0,0.0,0.0,0.0,0.0,0.0,0.0,0.0,0.0,0.0,0.0,0.0,0.0,0.0,0.0,0.0,0.0,0.0,0.0,0.0,0.0,0.0,0.0,0.0,0.0,-0.7853,-0.7759,0.0,0.0,0.0,0.0,0.0,0.0,0.0,0.0,0.0,0.0,0.0,-0.398,-0.3654,0.0,0.0,0.0,0.0,0.0,0.0,0.0,0.0,0.0,0.0,0.0,0.0,0.1042,0.1217,0.1707,0.1947,0.1947,0.1966,0.2038,0.2038,0.2038,0.1948,0.1888,0.0,0.0,0.0,0.0,0.0,0.0,0.0,0.0,0.0,0.0,0.0,0.0,0.0,0.0,0.0,0.0,0.0,0.0,0.0,0.0,0.0,0.0,0.0,0.0,0.0,0.153,0.0,0.0,0.0,0.0,0.0,0.0,0.0,0.0,0.0,0.0,0.0,0.424,0.493,0.4856,0.5322,0.6909,0.7104,0.7701,0.0,0.0,0.0,0.0,0.0,0.0,0.0,0.0,0.0,0.0,0.0,0.0,0.0,0.0,0.7652,0.5964,0.5759,0.5903,0.613,0.0,0.0,0.0,0.0,0.0,0.0,0.0,0.0,0.0,0.0,0.0,0.0,0.0,0.0,-0.7621,0.0,-0.7454,0.0,0.0,0.0,0.0,0.0,0.0,0.0,0.0,-0.417,-0.3564,-0.2782,-0.2401,-0.2171,0.0,-0.2004,-0.1944,0.0,0.0,0.0,0.0,0.0,0.0,0.0,0.0,0.1152,0.1327,0.1699,0.1936,0.1947,0.1956,0.1962,0.196,0.1951,0.1926,0.1887,0.1827,0.1772,0.0,0.0,0.0,0.0,0.0,0.0,0.0,0.0,0.0,0.0,0.0,0.0,0.0,0.0,0.0,0.0,0.0,0.0,0.0,0.0,0.0,0.0,0.0,0.1554,0.0,0.0,0.0,0.0,0.0,0.0,0.0,0.0,0.0,0.4143,0.4795,0.5612,0.6246,0.6244,0.6672,0.8127,0.0,0.0,0.0,0.0,0.0,0.0,0.0,0.9157,0.9103,0.9225,0.9374,0.9582,0.9618,0.9666,0.9625,0.0,0.0,0.7578,0.7338,0.7508,0.7766,0.8191,0.8503,0.869,0.92,0.9659,0.0,0.0,0.0,0.0,0.0,0.0,0.0,0.0,-0.7215,-0.699,0.0,-0.6945,0.0,0.0,0.0,0.0,0.0,-0.5114,0.0,0.0,-0.2329,-0.172,-0.1476,-0.0548,0.0,0.0,-0.0054,-0.0053,-0.0052,-0.0624,0.0,0.0,0.0,0.0,0.0,0.0,0.1321,0.1401,0.1762,0.1941,0.1967,0.1944,0.187,0.1869,0.1902,0.1887,0.1884,0.1831,0.1783,0.1807,0.1671,0.0,0.0,0.0,0.0,0.0,0.0,0.0,0.0,0.0,0.0,0.0,0.0,0.0,0.0,0.0,0.0,0.0,0.0,0.0,0.0,0.1573,0.0,0.0,0.0,0.0,0.0,0.0,0.0,0.0,0.0,0.0,0.5503,0.5595,0.6212,0.7655,0.0,0.0,0.0,0.0,0.9552,0.9026,0.8925,0.8946,0.8979,0.9367,0.968,0.9815,0.0,0.0,1.0317,1.0059,0.993,0.9997,1.0331,1.0385,0.9903,0.9719,0.9821,1.0024,0.9881,0.9862,0.9977,0.9962,1.0051,-0.7376,0.0,0.0,0.0,0.0,-0.6383,-0.5996,-0.6021,-0.5054,-0.4662,-0.469,-0.4655,0.0,0.0,0.0,0.0,0.0,0.0,-0.3178,-0.2126,-0.1809,-0.1214,-0.0445,-0.0167,0.0,0.0,0.0166,0.0276,0.0274,0.0549,0.0374,-0.0101,0.0,0.0,0.0,0.0,0.1445,0.1654,0.1774,0.1812,0.1879,0.1892,0.1899,0.1899,0.1891,0.1885,0.1885,0.1869,0.1835,0.1785,0.1757,0.0,0.0,0.0,0.0,0.0,0.0,0.0,0.0,0.0,0.0,0.0,0.0,0.0,0.0,0.0,0.0,0.0,0.0,0.0,0.157,0.1628,0.193,0.0,0.0,0.0,0.0,0.0,0.0,0.0,0.0,0.0,0.7993,0.7913,0.8042,0.0,0.0,0.8589,0.8871,0.9245,0.9557,0.9647,0.0,0.0,0.0,1.0209,1.0134,1.0276,1.0588,1.0806,1.0698,1.0765,1.0792,1.0833,1.1002,1.109,1.0975,1.0853,1.0826,1.0955,1.0806,1.0577,1.0611,1.0543,1.0568,-0.5755,-0.581,-0.6212,-0.6418,-0.6308,-0.5147,-0.4637,-0.4704,-0.393,-0.3645,-0.3656,-0.3586,-0.3479,-0.3291,-0.3345,0.0,0.0,0.0,-0.2005,-0.0938,-0.0993,-0.061,0.0,0.0,0.0056,0.0168,0.0336,0.0505,0.0617,0.1058,0.1143,0.0784,0.0,0.0,0.1311,0.1426,0.1613,0.1767,0.1816,0.1788,0.1858,0.1865,0.2093,0.2541,0.2599,0.277,0.3289,0.3289,0.3257,0.325,0.3206,0.3178,0.0,0.0,0.0,0.0,0.0,0.0,0.0,0.0,0.0,0.0,0.0,0.156,0.0,0.0,0.0,0.0,0.2768,0.2939,0.2785,0.2764,0.0,0.0,0.0,0.0,0.0,0.0,0.0,0.6687,0.7582,0.8451,0.9161,0.9137,0.9178,0.9469,0.9408,0.9286,0.9164,0.0,0.9876,1.0032,1.01,1.027,1.0622,1.0609,1.0636,1.09,1.1036,1.1118,1.1124,1.1151,1.1185,1.1246,1.1328,1.1409,1.147,1.1355,1.1253,1.1287,1.1063,1.0799,1.0793,1.0833,1.0839,-0.3594,-0.3701,-0.4577,-0.4982,-0.4971,-0.3769,-0.3364,-0.3469,-0.3357,-0.3271,-0.3119,-0.3279,-0.3188,-0.2932,-0.2932,0.0,-0.1477,-0.1477,-0.0938,0.0,0.0,0.0,0.0,0.0,0.0168,0.0449,0.0449,0.0617,0.0953,0.1215,0.1368,0.1364,0.1637,0.1623,0.1384,0.1617,0.1809,0.1787,0.1871,0.2017,0.2169,0.2139,0.2618,0.3695,0.3748,0.425,0.5306,0.5417,0.5417,0.5413,0.5314,0.5329,0.5299,0.0,0.0,0.0,0.0,0.0,0.0,0.0,0.0,0.0,0.0,0.0,0.0,0.0,0.0,0.0,0.457,0.0,0.4699,0.4598,0.0,0.0,0.0,0.5322,0.576,0.6808,0.7479,0.7425,0.0,0.0,0.9415,0.0,0.9768,1.0004,1.0188,1.0141,0.9842,1.0168,1.0392,1.0203,1.032,1.0378,1.0521,1.0778,1.1118,1.1477,1.1497,1.1402,1.1396,1.1301,1.1274,1.1382,1.1409,1.145,1.1592,1.1497,1.1362,1.1246,1.0995,1.0792,1.0819,1.0928,1.1029,-0.3601,-0.354,-0.291,-0.315,-0.3836,-0.2726,-0.2175,-0.2127,-0.1233,-0.0839,-0.0835,-0.0839,-0.0837,-0.0775,-0.0775,-0.061,-0.039,-0.039,-0.0223,0.0,0.0,0.0112,0.0336,0.028,0.0505,0.0785,0.1009,0.1121,0.1234,0.1508,0.1651,0.1609,0.1661,0.1701,0.162,0.1656,0.1674,0.1725,0.2652,0.3575,0.4521,0.4564,0.4711,0.4972,0.4972,0.5083,0.5361,0.5417,0.5417,0.5413,0.5376,0.5347,0.5316,0.4852,0.0,0.0,0.0,0.0,0.0,0.0,0.0,0.0,0.0,0.3665,0.3425,0.0,0.412,0.0,0.4801,0.5286,0.5514,0.5456,0.0,0.0,0.661,0.6939,0.7874,0.8446,0.8762,0.8762,0.9292,0.972,0.9808,1.0025,1.0229,1.0507,1.0195,0.9863,0.9707,1.0141,1.0473,1.0446,1.0799,1.1165,1.1253,1.1382,1.1484,1.1599,1.1586,1.1565,1.1565,1.1538,1.1525,1.1558,1.1565,1.1586,1.1613,1.1586,1.1558,1.1511,1.1362,1.1233,1.1233,1.1348,1.1457,-0.2,-0.1937,-0.1272,-0.137,-0.1924,-0.1293,-0.1009,-0.0953,-0.028,0.0,0.0,0.0,0.0,0.0,0.0,0.0,0.0,0.0,0.0,0.0,0.0112,0.028,0.0393,0.0561,0.0785,0.1065,0.1234,0.1402,0.1514,0.1738,0.2055,0.2504,0.2558,0.2797,0.3252,0.2606,0.2241,0.2286,0.3481,0.4539,0.5353,0.5417,0.5601,0.5954,0.6004,0.6177,0.6563,0.6558,0.6558,0.6558,0.6558,0.6558,0.6529,0.6095,0.5852,0.0,0.0,0.0,0.0,0.0,0.0,0.0,0.0,0.0,0.0,0.0,0.5595,0.0,0.6683,0.6976,0.699,0.7029,0.7287,0.7962,0.8016,0.8361,0.9208,0.9456,0.9578,0.9705,0.993,1.0154,1.0236,1.0507,1.0795,1.0895,1.0626,1.0321,1.0161,1.05,1.0792,1.0812,1.1192,1.1589,1.1828,1.1835,1.1907,1.1835,1.1835,1.1835,1.1619,1.1619,1.1619,1.1619,1.1619,1.1619,1.1619,1.1619,1.1633,1.1694,1.1708,1.1647,1.1525,1.1606,1.1714,0.0,0.0,0.0,0.0,0.0,0.0,0.0,0.0,0.0,0.0,0.0,0.0,0.0,0.0,0.0,0.0,0.0,0.0,0.0,0.0,0.028,0.0449,0.0449,0.0785,0.1065,0.1346,0.1514,0.1738,0.2018,0.2186,0.2794,0.3781,0.3833,0.4317,0.5225,0.4041,0.3472,0.3475,0.459,0.5334,0.5762,0.5744,0.6084,0.6804,0.6846,0.7216,0.7952,0.7988,0.7988,0.7988,0.7988,0.8008,0.8035,0.7672,0.7448,0.0,0.7068,0.0,0.0,0.0,0.0,0.0,0.0,0.0,0.0,0.6267,0.7275,0.8501,0.8982,0.9071,0.8682,0.8655,0.8811,0.9241,0.9316,0.9476,0.9916,1.0004,1.0141,1.029,1.0419,1.0493,1.0579,1.0965,1.1181,1.1181,1.116,1.1052,1.0857,1.1009,1.1124,1.1234,1.1493,1.1821,1.2187,1.2194,1.2194,1.2194,1.2122,1.1979,1.1619,1.1619,1.1619,1.1619,1.1619,1.1626,1.164,1.1667,1.1735,1.1877,1.2013,1.202,1.1809,1.1843,1.1911,0.0,0.0,0.0,0.0,0.0,0.0,0.0,0.0,0.0,0.0,0.0,0.0,0.0,0.0,0.0,0.0,0.0,0.0,0.0,0.0,0.028,0.0561,0.0841,0.1121,0.1402,0.1738,0.2688,0.3189,0.3245,0.425,0.4797,0.4992,0.4988,0.5059,0.5242,0.0,0.0,0.0,0.6194,0.6865,0.7859,0.7653,0.7566,0.7717,0.7768,0.0,0.7995,0.7988,0.7988,0.7988,0.7988,0.0,0.0,0.0,0.0,0.0,0.0,0.0,0.0,0.0,0.0,0.0,0.7722,0.7585,0.7693,0.7956,0.8388,0.8988,0.9159,0.9266,0.9537,0.9571,0.9598,0.9686,0.9802,0.9869,0.9984,1.0161,1.029,1.0432,1.048,1.0671,1.1052,1.1167,1.1181,1.1247,1.1181,1.1181,1.1115,1.1172,1.122,1.1255,1.1712,1.2259,1.2617,1.2402,1.2266,1.2194,1.1907,1.1691,1.1619,1.1619,1.1619,1.1619,1.1619,1.166,1.1762,1.1891,1.2006,1.2169,1.2311,1.2366,1.2203,1.2271,1.2372,0.0,0.0,0.0,0.0,0.0,0.0,0.0,0.0,0.0,0.0,0.0,0.0,0.0,0.0,0.0,0.0,0.0,0.0,0.0055,0.0219,0.0497,0.0831,0.1108,0.1396,0.1626,0.185,0.3024,0.358,0.3636,0.4804,0.5647,0.6211,0.6207,0.648,0.7059,0.7527,0.7669,0.7533,0.7565,0.7965,0.8642,0.856,0.8359,0.8269,0.0,0.0,0.0,0.0,0.0,0.0,0.0,0.0,0.0,0.0,0.0,0.814,0.7943,0.7882,0.8024,0.8249,0.8457,0.8676,0.8913,0.894,0.8777,0.8974,0.9239,0.9456,0.9659,0.9749,0.9788,1.0126,1.0275,1.0231,1.0376,1.06,1.0749,1.0849,1.0955,1.1098,1.1126,1.1228,1.1505,1.1644,1.1644,1.1512,1.1512,1.1512,1.1468,1.1386,1.144,1.181,1.2165,1.2545,1.2753,1.2681,1.2402,1.2266,1.2051,1.1835,1.1619,1.1619,1.1619,1.1619,1.1619,1.1667,1.1803,1.1952,1.2183,1.2264,1.2406,1.2474,1.2406,1.2454,1.2501,0.0,0.0,0.0,0.0,0.0,0.0,0.0,0.0,0.0,0.0,0.0,0.0,0.0,0.0,0.0,0.0,0.0,0.0054,0.0161,0.0429,0.0817,0.1098,0.1319,0.1616,0.1794,0.1851,0.3245,0.3916,0.3971,0.5306,0.6478,0.7321,0.7432,0.7937,0.883,0.894,0.8818,0.8574,0.8506,0.8601,0.879,0.875,0.8662,0.8411,0.8404,0.8289,0.8002,0.7988,0.7988,0.7988,0.7988,0.8065,0.8163,0.817,0.819,0.8295,0.8353,0.8463,0.8698,0.8931,0.9171,0.9521,0.9831,0.9786,0.9408,0.9724,0.9943,0.9943,1.0247,1.024,0.9997,1.0429,1.0799,1.0714,1.0944,1.1273,1.1543,1.1625,1.1627,1.1754,1.1776,1.1843,1.1843,1.2107,1.218,1.1916,1.1784,1.1784,1.1806,1.1694,1.1859,1.2455,1.2649,1.2824,1.2896,1.2681,1.2545,1.2266,1.2122,1.1979,1.1691,1.1619,1.1619,1.1619,1.1619,1.1694,1.1837,1.1952,1.2094,1.2284,1.2393,1.2474,1.2494,1.2501,1.2501,0.0,0.0,0.0,0.0,0.0,0.0,0.0,0.0,0.0,0.0,0.0,0.0,0.0,0.0,0.0,0.0,0.0,0.022,0.0387,0.0,0.0999,0.1286,0.1286,0.1625,0.1794,0.1962,0.4083,0.5139,0.5361,0.7315,0.8491,0.8602,0.8657,0.8712,0.8885,0.894,0.8865,0.8872,0.8615,0.8499,0.854,0.8296,0.8096,0.8056,0.8113,0.8035,0.7988,0.7995,0.7988,0.7988,0.7988,0.8204,0.8709,0.8775,0.9008,0.9482,0.9566,0.9588,0.9632,0.964,0.9794,1.0156,1.0487,1.0514,1.0155,1.0205,1.0368,1.0611,1.0664,1.0725,1.0671,1.0732,1.0928,1.1031,1.1173,1.1393,1.1717,1.1853,1.1937,1.1975,1.1784,1.1982,1.2173,1.2312,1.2173,1.1916,1.185,1.185,1.1888,1.2045,1.2429,1.2842,1.2861,1.2952,1.3039,1.2689,1.2338,1.2194,1.1907,1.1691,1.1619,1.1619,1.1619,1.1619,1.1626,1.1735,1.1959,1.1932,1.2067,1.2359,1.2406,1.2386,1.2474,1.2501,1.2501,0.0,0.0,0.0,0.0,0.0,0.0,0.0,0.0,0.0,0.0,0.0,0.0,0.0,0.0,0.0,0.0,0.0,0.0272,0.0489,0.0703,0.1098,0.1383,0.155,0.1731,0.1794,0.1962,0.4247,0.5417,0.5639,0.7759,0.894,0.894,0.894,0.894,0.894,0.894,0.894,0.894,0.8743,0.873,0.873,0.8548,0.8474,0.8474,0.8474,0.8474,0.8474,0.8474,0.8474,0.8474,0.8685,0.8906,0.9147,0.9316,0.9544,0.9746,0.9816,0.9816,0.9816,0.998,1.0201,1.0524,1.0666,1.0853,1.0846,1.0664,1.0611,1.0785,1.0974,1.0967,1.0853,1.1172,1.1425,1.1471,1.1774,1.2379,1.3189,1.3413,1.3473,1.3473,1.3473,1.3218,1.2642,1.2568,1.2444,1.2173,1.2048,1.2107,1.2048,1.2448,1.2877,1.3197,1.3154,1.3024,1.3039,1.2545,1.2194,1.1907,1.1691,1.1619,1.1619,1.1619,1.1619,1.1626,1.1674,1.1816,1.2026,1.2081,1.221,1.2386,1.2461,1.2447,1.2488,1.2501,1.2501,0.0,0.0,0.0,0.0,0.0,0.0,0.0,0.0,0.0,0.0,0.0,0.0,0.0,0.0,0.0055,0.0,0.0163,0.0433,0.0754,0.1022,0.1255,0.154,0.1761,0.1785,0.1794,0.2074,0.425,0.5417,0.5695,0.7759,0.894,0.894,0.894,0.894,0.894,0.894,0.894,0.894,0.894,0.894,0.894,0.894,0.8933,0.894,0.8933,0.894,0.894,0.894,0.894,0.894,0.9217,0.9437,0.9485,0.9761,0.9926,0.9981,1.0036,0.9997,1.0113,1.0402,1.0651,1.0883,1.0979,1.1277,1.1752,1.1631,1.145,1.145,1.1458,1.1405,1.1582,1.1755,1.2117,1.2392,1.2795,1.3711,1.506,1.5359,1.5229,1.5033,1.4903,1.4324,1.3227,1.2766,1.2634,1.2379,1.2305,1.2305,1.2328,1.2786,1.3165,1.3231,1.3154,1.2986,1.2745,1.2338,1.1979,1.1619,1.1619,1.1619,1.1619,1.1619,1.1619,1.1633,1.1735,1.187,1.2026,1.2142,1.2284,1.244,1.2461,1.2454,1.2488,1.2501,1.2501,0.0,0.0,0.0,0.0,0.0,0.0,0.0,0.0,0.0,0.0,0.0,0.0,0.0,0.0,0.0274,0.038,0.0376,0.0937,0.1218,0.1258,0.161,0.1791,0.1789,0.1793,0.1794,0.213,0.4247,0.5417,0.5639,0.7759,0.894,0.894,0.894,0.894,0.894,0.894,0.894,0.894,0.894,0.894,0.894,0.894,0.894,0.894,0.894,0.894,0.894,0.894,0.894,0.894,0.921,0.9485,0.9761,1.0091,1.0366,1.0578,1.0586,1.0706,1.0884,1.1215,1.1393,1.1425,1.1638,1.2234,1.3306,1.3426,1.3426,1.3306,1.2423,1.2327,1.338,1.2706,1.2807,1.4106,1.439,1.5051,1.641,1.6786,1.6333,1.5043,1.5229,1.439,1.3416,1.3161,1.2832,1.2634,1.2634,1.2503,1.2386,1.2762,1.3014,1.2856,1.2711,1.2526,1.2294,1.1907,1.1691,1.1619,1.1619,1.1619,1.1619,1.1619,1.1619,1.1633,1.1755,1.1904,1.2006,1.2088,1.2203,1.242,1.2433,1.2359,1.2461,1.2501,1.2501,0.0,0.0,0.0,0.0,0.0,0.0,0.0,0.0,0.0,0.0,0.0,0.0,0.0,0.0,0.0278,0.0387,0.044,0.1059,0.1286,0.1332,0.1622,0.1794,0.1794,0.1794,0.213,0.2968,0.4582,0.575,0.6589,0.8097,0.894,0.894,0.894,0.894,0.894,0.894,0.894,0.894,0.894,0.894,0.894,0.894,0.894,0.894,0.894,0.894,0.894,0.894,0.8995,0.9217,0.9485,0.9761,1.0091,1.0366,1.0586,1.0688,1.0688,1.072,1.0802,1.1045,1.1569,1.2365,1.2619,1.3305,1.4669,1.4798,1.5095,1.558,1.42,1.3353,1.3925,1.3697,1.4159,1.5526,1.5967,1.6615,1.7988,1.8203,1.7882,1.7367,1.7291,1.6775,1.5619,1.5294,1.4847,1.4128,1.3801,1.3547,1.284,1.2765,1.2724,1.2543,1.2397,1.2274,1.2201,1.1835,1.1619,1.1619,1.1619,1.1619,1.1619,1.1619,1.1619,1.1619,1.1809,1.1959,1.2047,1.223,1.2372,1.2481,1.2481,1.244,1.2494,1.2501,1.2579,0.0,0.0,0.0,0.0,0.0,0.0,0.0,0.0,0.0,0.0,0.0,0.0,0.0,0.0,0.0393,0.0561,0.0617,0.1177,0.1458,0.1458,0.1682,0.1794,0.1794,0.1794,0.241,0.3636,0.4804,0.6144,0.7543,0.8436,0.894,0.894,0.894,0.894,0.894,0.894,0.894,0.894,0.894,0.894,0.894,0.894,0.894,0.894,0.894,0.894,0.894,0.894,0.8995,0.9265,0.9596,0.9926,1.0147,1.0531,1.0688,1.0751,1.1067,1.1258,1.1258,1.1815,1.2586,1.3528,1.3849,1.4624,1.5762,1.6101,1.6549,1.7233,1.6052,1.5166,1.5197,1.519,1.5801,1.7081,1.746,1.8063,1.9367,1.9559,1.9419,1.91,1.878,1.8524,1.7291,1.685,1.6333,1.5098,1.4772,1.439,1.3161,1.2782,1.2704,1.227,1.2192,1.2131,1.2052,1.1835,1.1619,1.1619,1.1619,1.1619,1.1619,1.1619,1.166,1.1714,1.1925,1.2081,1.2155,1.2345,1.2488,1.2494,1.2494,1.2494,1.2501,1.2579,1.2811,0.0,0.0,0.0,0.0,0.0,0.0,0.0,0.0,0.0,0.0,0.0,0.0,0.0,0.0,0.0617,0.0841,0.0953,0.1514,0.1738,0.1738,0.1794,0.1794,0.1794,0.1794,0.2466,0.3748,0.486,0.6533,0.8657,0.883,0.894,0.894,0.894,0.894,0.894,0.894,0.894,0.894,0.894,0.894,0.894,0.894,0.894,0.894,0.894,0.894,0.894,0.894,0.894,0.894,0.9485,0.9816,0.9871,1.0359,1.0688,1.0814,1.1833,1.2543,1.2683,1.3838,1.4782,1.503,1.5248,1.602,1.7267,1.7396,1.761,1.7912,1.7913,1.7836,1.7822,1.7059,1.7293,1.8633,1.8884,1.9559,2.0779,2.0779,2.0335,1.9407,1.9191,1.8756,1.7356,1.698,1.6656,1.5619,1.5033,1.4651,1.3613,1.303,1.272,1.2498,1.2283,1.2102,1.1759,1.1763,1.1691,1.1619,1.1619,1.1619,1.1619,1.1633,1.1701,1.1796,1.1952,1.2108,1.225,1.2372,1.2467,1.2501,1.2579,1.2579,1.2656,1.2888,1.312,0.0,0.0,0.0,0.0,0.0,0.0,0.0,0.0,0.0,0.0,0.0,0.0,0.0112,0.028,0.0673,0.0897,0.0953,0.1514,0.1794,0.1794,0.1794,0.1794,0.1794,0.1794,0.2856,0.4582,0.5194,0.6589,0.8657,0.894,0.894,0.894,0.894,0.894,0.894,0.894,0.894,0.894,0.894,0.894,0.894,0.894,0.894,0.894,0.894,0.894,0.894,0.894,0.9106,0.9485,0.9706,0.9981,1.0359,1.0578,1.0688,1.0806,1.1836,1.2531,1.2669,1.3902,1.5221,1.6068,1.6425,1.7181,1.8377,1.8719,1.8823,1.9107,1.9318,1.9537,1.9583,1.8809,1.8737,1.9979,2.0335,2.0462,2.0906,2.1096,2.079,2.0242,2.0065,1.994,1.9573,1.9623,1.9048,1.7871,1.7485,1.6775,1.5684,1.4586,1.3684,1.3442,1.2811,1.2249,1.2073,1.1979,1.1979,1.1763,1.1691,1.1763,1.1763,1.1633,1.1694,1.1837,1.1979,1.2135,1.2291,1.24,1.2488,1.2501,1.2579,1.2811,1.2888,1.3141,1.3527,0.0,0.0,0.0,0.0,0.0,0.0,0.0,0.0,0.0,0.0,0.0,0.0,0.0168,0.0449,0.0729,0.0953,0.1065,0.157,0.1794,0.1794,0.1794,0.1794,0.1794,0.1794,0.3078,0.525,0.6251,0.7426,0.8712,0.894,0.894,0.894,0.894,0.894,0.894,0.894,0.894,0.894,0.894,0.894,0.894,0.894,0.894,0.894,0.894,0.894,0.894,0.894,0.9044,0.9485,0.9706,1.0091,1.0641,1.0688,1.0688,1.0798,1.1773,1.2663,1.3232,1.4471,1.5902,1.7241,1.7742,1.8397,1.9287,1.943,1.9546,1.9867,2.0094,2.0374,2.0548,2.0093,2.0068,2.0906,2.1109,2.1109,2.1109,2.1109,2.0975,2.0699,2.0633,2.0713,2.0935,2.0979,2.0322,1.9164,1.9036,1.846,1.7173,1.5753,1.4581,1.4426,1.3348,1.268,1.2401,1.2402,1.2194,1.2051,1.1907,1.1907,1.1777,1.1653,1.1735,1.1877,1.2026,1.2182,1.2311,1.2427,1.2474,1.2572,1.2733,1.2965,1.3225,1.3494,1.3749,0.0,0.0,0.0,0.0,0.0,0.0,0.0,0.0,0.0,0.0,0.0,0.0,0.0168,0.0449,0.0785,0.1009,0.1346,0.1626,0.1794,0.1794,0.1794,0.1794,0.1794,0.1794,0.308,0.5417,0.7654,0.8719,0.8878,0.894,0.894,0.894,0.894,0.894,0.894,0.894,0.894,0.894,0.894,0.894,0.894,0.894,0.894,0.894,0.894,0.894,0.894,0.894,0.894,0.9044,0.9485,1.0091,1.0586,1.0688,1.0688,1.0861,1.1782,1.3068,1.4405,1.5779,1.7116,1.8385,1.9114,1.9216,1.9359,1.9457,1.9626,2.0067,2.0254,2.0481,2.0949,2.0956,2.0919,2.1109,2.1109,2.1109,2.1109,2.1096,2.0989,2.0735,2.0668,2.0668,2.0735,2.0935,2.0576,1.9623,1.9228,1.8972,1.7776,1.6347,1.5271,1.481,1.3819,1.2748,1.2727,1.2753,1.2545,1.233,1.2194,1.2051,1.1798,1.1687,1.1896,1.2046,1.2395,1.2554,1.2463,1.2565,1.2642,1.2733,1.2965,1.3225,1.3431,1.3723,1.3953,0.0,0.0,0.0,0.0,0.0,0.0,0.0,0.0,0.0,0.0,0.0,0.0,0.028,0.0673,0.0841,0.1177,0.1626,0.1738,0.1794,0.1794,0.1794,0.1794,0.1794,0.1794,0.308,0.5306,0.6927,0.8097,0.8768,0.894,0.894,0.894,0.894,0.894,0.894,0.894,0.894,0.894,0.894,0.894,0.894,0.894,0.894,0.894,0.894,0.894,0.894,0.894,0.8995,0.921,0.9596,1.0091,1.0586,1.0688,1.0688,1.0814,1.1908,1.3197,1.458,1.5997,1.7427,1.8604,1.9199,1.9403,1.9457,1.9546,1.9813,2.0201,2.0414,2.0708,2.1015,2.1109,2.1109,2.1109,2.1109,2.1109,2.1082,2.0935,2.0788,2.0708,2.0668,2.0668,2.0722,2.0922,2.0906,2.0526,2.0322,2.0068,1.952,1.7446,1.6138,1.6088,1.4457,1.3279,1.3389,1.3389,1.3039,1.2617,1.233,1.223,1.1904,1.1848,1.2058,1.2312,1.2671,1.2713,1.2628,1.2656,1.2811,1.3049,1.3443,1.3656,1.3737,1.3983,1.4238,0.0,0.0,0.0,0.0,0.0,0.0,0.0,0.0,0.0,0.0,0.0,0.0,0.0449,0.0841,0.1009,0.1346,0.1794,0.1794,0.1794,0.1794,0.1794,0.1794,0.1906,0.2298,0.3413,0.525,0.6538,0.7709,0.8885,0.894,0.894,0.894,0.894,0.894,0.894,0.894,0.894,0.894,0.894,0.894,0.894,0.894,0.894,0.894,0.894,0.894,0.894,0.894,0.8995,0.921,0.9596,1.0036,1.0476,1.0641,1.0688,1.0894,1.1573,1.2813,1.4532,1.5716,1.7231,1.8691,1.9265,1.9359,1.947,1.9626,1.992,2.0214,2.0494,2.0802,2.1042,2.1109,2.1109,2.1109,2.1109,2.1109,2.1069,2.0855,2.0628,2.0561,2.0601,2.0615,2.0601,2.0882,2.1082,2.1109,2.1109,2.1109,2.0604,1.8906,1.8084,1.7375,1.6343,1.535,1.4486,1.4102,1.3603,1.3039,1.2402,1.2323,1.2091,1.223,1.2377,1.267,1.2957,1.2909,1.2888,1.2965,1.3042,1.3443,1.3774,1.38,1.3904,1.4234,1.4498,0.0,0.0,0.0,0.0,0.0,0.0,0.0,0.0,0.0,0.0,0.0,0.028,0.0561,0.0897,0.1121,0.1458,0.1738,0.1794,0.1794,0.1794,0.1794,0.1794,0.1906,0.2688,0.3748,0.5139,0.62,0.7426,0.8546,0.8602,0.8885,0.8878,0.894,0.894,0.894,0.894,0.894,0.894,0.894,0.894,0.894,0.894,0.894,0.894,0.894,0.894,0.894,0.894,0.894,0.8989,0.9541,0.9981,1.0257,1.0586,1.0688,1.0704,1.0931,1.2393,1.4272,1.5279,1.6507,1.87,1.9274,1.943,1.9457,1.9679,1.9973,2.0153,2.0548,2.0828,2.1056,2.1109,2.1109,2.1109,2.1109,2.1109,2.1082,2.0869,2.0641,2.0401,2.0468,2.0588,2.0374,2.0762,2.1042,2.1109,2.1109,2.1109,2.0757,1.9788,1.9483,1.8665,1.7565,1.6578,1.5443,1.4662,1.4164,1.3197,1.2654,1.2453,1.2401,1.255,1.2653,1.2949,1.3161,1.3105,1.3197,1.3281,1.3358,1.359,1.3741,1.386,1.4087,1.4411,1.4804,0.0,0.0,0.0,0.0,0.0,0.0,0.0,0.0,0.0,0.0,0.0,0.028,0.0617,0.0897,0.1177,0.1458,0.1738,0.1794,0.1794,0.1794,0.1794,0.1794,0.1794,0.213,0.2968,0.408,0.4697,0.5588,0.7432,0.7765,0.8103,0.8885,0.894,0.894,0.894,0.894,0.894,0.894,0.894,0.894,0.894,0.894,0.894,0.894,0.894,0.894,0.894,0.894,0.9051,0.9272,0.9596,0.9926,1.0257,1.0531,1.0688,1.0737,1.1037,1.1788,1.3432,1.4829,1.6306,1.7793,1.8952,1.943,1.9444,1.9826,2.0047,2.0321,2.0668,2.1015,2.1082,2.1109,2.1109,2.1109,2.1109,2.1109,2.1096,2.1042,2.0802,2.0401,2.0681,2.0681,2.0494,2.0708,2.1082,2.1109,2.1109,2.0982,2.0643,2.0266,1.9711,1.9104,1.8219,1.7196,1.6282,1.5434,1.452,1.342,1.285,1.2605,1.2728,1.2955,1.3007,1.3139,1.3406,1.3428,1.3513,1.359,1.3667,1.3836,1.4197,1.4413,1.4415,1.4574,1.5058,0.0,0.0,0.0,0.0,0.0,0.0,0.0,0.0,0.0,0.0,0.0,0.0449,0.0729,0.0953,0.1346,0.1626,0.1794,0.1794,0.1794,0.1794,0.1794,0.1794,0.1794,0.1794,0.2464,0.358,0.4136,0.5421,0.6982,0.7543,0.8269,0.8768,0.894,0.894,0.894,0.894,0.894,0.894,0.894,0.894,0.894,0.894,0.894,0.894,0.894,0.894,0.894,0.894,0.8995,0.921,0.9485,0.9761,1.0091,1.0359,1.0586,1.0712,1.1029,1.1733,1.3117,1.4659,1.6138,1.7396,1.8648,1.9301,1.9466,1.9893,2.018,2.0281,2.0775,2.1042,2.1109,2.1109,2.1109,2.1109,2.1109,2.1109,2.1109,2.1096,2.0828,2.0575,2.0681,2.0882,2.0334,2.0775,2.1029,2.1109,2.1109,2.0919,2.0667,2.0263,2.0057,1.9697,1.9595,1.8977,1.7749,1.6766,1.5337,1.4168,1.4035,1.3579,1.3542,1.3777,1.3626,1.3707,1.3729,1.3744,1.3821,1.3991,1.4261,1.4478,1.4767,1.4916,1.4849,1.5231,1.5723,0.0,0.0,0.0,0.0,0.0,0.0,0.0,0.0,0.0,0.0,0.0,0.0617,0.0841,0.0953,0.1458,0.1794,0.1794,0.1794,0.1794,0.1794,0.1794,0.1794,0.1794,0.1794,0.2298,0.3248,0.4533,0.5541,0.6548,0.7832,0.8559,0.883,0.894,0.894,0.894,0.894,0.894,0.894,0.894,0.894,0.894,0.894,0.894,0.894,0.894,0.894,0.894,0.894,0.894,0.894,0.9217,0.9541,0.9816,1.0147,1.0421,1.0698,1.1061,1.1676,1.2935,1.4473,1.5983,1.7161,1.8532,1.9359,1.9479,1.988,2.018,2.018,2.0775,2.1056,2.1109,2.1109,2.1109,2.1109,2.1109,2.1109,2.1109,2.1109,2.0895,2.0366,2.0815,2.0815,2.0668,2.0699,2.1099,2.1256,2.1139,2.0792,2.0873,2.0915,2.0897,2.1025,2.0939,2.0926,1.9565,1.8089,1.649,1.5149,1.545,1.5276,1.5077,1.5017,1.4581,1.4361,1.4361,1.4284,1.4207,1.44,1.4679,1.4797,1.4837,1.5114,1.5392,1.6162,1.6729,0.0,0.0,0.0,0.0,0.0,0.0,0.0,0.0,0.0,0.0,0.0,0.0617,0.0897,0.0953,0.1514,0.1794,0.1794,0.1794,0.1794,0.1794,0.1794,0.1794,0.1794,0.1794,0.1962,0.236,0.2443,0.3794,0.545,0.6439,0.718,0.8787,0.8947,0.894,0.894,0.894,0.894,0.894,0.894,0.894,0.894,0.894,0.894,0.894,0.894,0.894,0.894,0.894,0.894,0.8995,0.9217,0.9485,0.9816,1.0091,1.0421,1.0706,1.1005,1.1331,1.2024,1.4044,1.5688,1.622,1.811,1.943,1.9399,1.9893,2.0201,2.0273,2.0748,2.1082,2.1109,2.1109,2.1109,2.1109,2.1109,2.1109,2.1109,2.1109,2.0935,2.0788,2.1042,2.1323,2.0975,2.0909,2.1184,2.1352,2.1104,2.0768,2.0978,2.1345,2.1556,2.1594,2.1906,2.1653,2.012,1.8762,1.7612,1.653,1.6768,1.7045,1.687,1.6031,1.5403,1.5122,1.5045,1.4899,1.4515,1.4708,1.4911,1.4907,1.5082,1.5673,1.6266,1.6987,1.8218,0.0,0.0,0.0,0.0,0.0,0.0,0.0,0.0,0.0,0.0,0.0,0.0617,0.0897,0.0953,0.1514,0.1794,0.1794,0.1794,0.1794,0.1794,0.1794,0.1794,0.1794,0.1794,0.1795,0.1912,0.2449,0.376,0.5111,0.6087,0.7341,0.8867,0.8974,0.894,0.894,0.894,0.894,0.894,0.894,0.894,0.894,0.894,0.894,0.894,0.894,0.894,0.894,0.894,0.894,0.894,0.9106,0.9382,0.9761,0.9981,1.0257,1.069,1.0932,1.1143,1.1842,1.3674,1.5499,1.5618,1.7935,1.901,1.9492,1.9893,2.0187,2.0347,2.0708,2.1109,2.1109,2.1109,2.1109,2.1109,2.1109,2.1109,2.1109,2.1109,2.1002,2.0869,2.1162,2.1269,2.1246,2.1199,2.133,2.151,2.1192,2.0882,2.1057,2.1411,2.1674,2.1924,2.2457,2.2065,2.0479,1.9296,1.8605,1.8134,1.8218,1.8527,1.8611,1.7417,1.6186,1.5888,1.5582,1.4968,1.4676,1.4948,1.5216,1.542,1.5767,1.6406,1.7351,1.8641,2.0089,0.0,0.0,0.0,0.0,0.0,0.0,0.0,0.0,0.0,0.0,0.0,0.0617,0.0897,0.1009,0.1514,0.1794,0.1794,0.1794,0.1794,0.1794,0.1794,0.1794,0.1795,0.1801,0.1806,0.1918,0.2578,0.3911,0.5406,0.6546,0.7402,0.8841,0.9001,0.8885,0.894,0.894,0.894,0.894,0.894,0.894,0.894,0.894,0.894,0.894,0.894,0.894,0.894,0.894,0.894,0.894,0.894,0.9217,0.9596,0.9816,1.0036,1.0649,1.1106,1.1312,1.1797,1.3788,1.5718,1.574,1.7935,1.9283,1.9559,1.9907,2.0214,2.0468,2.0775,2.1109,2.1109,2.1109,2.1109,2.1109,2.1109,2.1109,2.1109,2.1096,2.0989,2.0909,2.1216,2.1416,2.143,2.1368,2.1485,2.155,2.1309,2.1166,2.1265,2.1477,2.1793,2.2137,2.2591,2.2832,2.1459,2.0735,1.9935,2.0103,2.0043,2.0054,2.0153,1.8874,1.7626,1.6492,1.5965,1.5283,1.4871,1.502,1.5322,1.5868,1.6747,1.7601,1.894,2.0382,2.1786,0.0,0.0,0.0,0.0,0.0,0.0,0.0,0.0,0.0,0.0,0.0,0.0617,0.0841,0.1065,0.1514,0.1794,0.1794,0.1794,0.1794,0.1794,0.1795,0.1795,0.1804,0.1819,0.1829,0.184,0.2268,0.3454,0.5144,0.5839,0.7196,0.8697,0.9022,0.8954,0.894,0.894,0.894,0.894,0.894,0.894,0.894,0.894,0.894,0.894,0.894,0.894,0.894,0.894,0.894,0.894,0.894,0.9099,0.943,0.9651,0.9981,1.0508,1.1445,1.175,1.1816,1.4396,1.5747,1.624,1.7753,1.9317,1.9647,2.0027,2.0321,2.0628,2.0869,2.1109,2.1109,2.1109,2.1109,2.1109,2.1109,2.1109,2.1109,2.1096,2.1082,2.1015,2.1323,2.1617,2.1643,2.1579,2.1632,2.1592,2.1301,2.1339,2.1539,2.1726,2.2031,2.2311,2.2672,2.2792,2.2585,2.2225,2.1811,2.2312,2.2244,2.1667,2.1351,2.0294,1.9057,1.7854,1.651,1.5462,1.522,1.5552,1.6346,1.7515,1.8229,1.9043,2.053,2.2108,2.3003,0.0,0.0,0.0,0.0,0.0,0.0,0.0,0.0,0.0,0.0,0.0,0.0449,0.0729,0.0953,0.1346,0.1626,0.1794,0.1794,0.1794,0.1794,0.1795,0.1805,0.1817,0.1779,0.1803,0.1823,0.2022,0.3215,0.5527,0.5645,0.694,0.8692,0.9123,0.9015,0.8954,0.894,0.894,0.894,0.894,0.894,0.894,0.894,0.894,0.894,0.894,0.894,0.894,0.894,0.894,0.894,0.894,0.8995,0.9217,0.9596,0.9981,1.0437,1.1219,1.1977,1.2063,1.4137,1.4819,1.5679,1.7394,1.8412,1.8975,1.9572,2.038,2.0802,2.0975,2.1109,2.1109,2.1109,2.1109,2.1109,2.1109,2.1109,2.1109,2.1109,2.1109,2.1122,2.1363,2.1617,2.1884,2.1818,2.1739,2.162,2.1421,2.1539,2.1775,2.1963,2.2111,2.2498,2.2766,2.2792,2.2899,2.2881,2.2793,2.3497,2.3713,2.3152,2.2387,2.1193,2.0188,1.9057,1.7655,1.6163,1.7052,1.7901,1.8534,1.9164,2.0421,2.1574,2.2533,2.3644,2.4455,0.0,0.0,0.0,0.0,0.0,0.0,0.0,0.0,0.0,0.0,0.0,0.028,0.0617,0.0953,0.129,0.157,0.1794,0.1794,0.1798,0.1806,0.1808,0.1821,0.1786,0.1803,0.1825,0.1856,0.1937,0.3147,0.4948,0.559,0.6971,0.8399,0.8966,0.9103,0.9008,0.896,0.8947,0.894,0.894,0.894,0.894,0.894,0.894,0.894,0.894,0.894,0.894,0.894,0.894,0.894,0.8995,0.9044,0.9106,0.9596,1.0036,1.0312,1.0751,1.174,1.2637,1.3942,1.4916,1.5395,1.702,1.7789,1.8371,1.9524,2.058,2.1002,2.1109,2.1109,2.1109,2.1109,2.1109,2.1109,2.1109,2.1109,2.1109,2.1109,2.1109,2.1189,2.1376,2.1603,2.1884,2.1844,2.1777,2.1778,2.1592,2.1632,2.1869,2.1884,2.2138,2.2592,2.2846,2.2846,2.2953,2.314,2.3187,2.3577,2.3766,2.3508,2.2793,2.1987,2.1089,2.0296,1.8799,1.7776,1.8983,1.9923,2.0116,2.0928,2.2646,2.386,2.4442,2.4933,2.5502,0.0,0.0,0.0,0.0,0.0,0.0,0.0,0.0,0.0,0.0,0.0,0.028,0.0561,0.0953,0.1514,0.1738,0.1794,0.1795,0.1808,0.1825,0.1774,0.1849,0.1881,0.191,0.1915,0.1939,0.1959,0.2766,0.4157,0.5143,0.6487,0.7912,0.8961,0.9193,0.9096,0.8988,0.894,0.894,0.894,0.894,0.894,0.894,0.894,0.894,0.894,0.894,0.894,0.894,0.894,0.894,0.9154,0.932,0.9437,0.9871,1.0202,1.0633,1.1345,1.2282,1.2918,1.4253,1.5378,1.5726,1.7304,1.8441,1.8797,1.9732,2.0909,2.1056,2.1109,2.1109,2.1109,2.1109,2.1109,2.1109,2.1109,2.1109,2.1109,2.1109,2.1109,2.1109,2.1243,2.1577,2.1884,2.1829,2.1722,2.175,2.1817,2.183,2.1937,2.2058,2.2218,2.2672,2.2859,2.2859,2.3006,2.3193,2.346,2.3741,2.3917,2.3891,2.3359,2.2831,2.2545,2.1592,2.0199,1.9849,2.0846,2.148,2.1603,2.2516,2.3989,2.5053,2.5898,2.6307,2.6386,0.0,0.0,0.0,0.0,0.0,0.0,0.0,0.0,0.0,0.0,0.0,0.0112,0.0449,0.0953,0.1514,0.1794,0.1794,0.1795,0.1812,0.178,0.1788,0.1808,0.1904,0.1925,0.1936,0.1956,0.2029,0.2096,0.3318,0.495,0.6673,0.8444,0.9046,0.9289,0.9221,0.9015,0.8954,0.894,0.894,0.894,0.894,0.894,0.894,0.894,0.894,0.894,0.894,0.894,0.894,0.894,0.9106,0.9106,0.9272,0.9651,1.0036,1.0091,1.0852,1.2046,1.3497,1.433,1.4963,1.5773,1.6746,1.7149,1.8227,1.9756,2.0962,2.1096,2.1109,2.1109,2.1109,2.1109,2.1109,2.1109,2.1109,2.1109,2.1109,2.1109,2.1109,2.1109,2.1149,2.151,2.1764,2.1722,2.1708,2.1817,2.1817,2.1777,2.2031,2.2365,2.2539,2.2766,2.2859,2.2859,2.306,2.326,2.3541,2.3848,2.4262,2.4182,2.4027,2.3674,2.3402,2.3591,2.3152,2.3032,2.3202,2.3069,2.3139,2.4074,2.5253,2.578,2.6307,2.6307,2.64,0.0,0.0,0.0,0.0,0.0,0.0,0.0,0.0,0.0,0.0,0.0,0.0168,0.0561,0.1009,0.1514,0.1795,0.1795,0.1802,0.1825,0.1844,0.1807,0.1896,0.1929,0.1947,0.1955,0.2037,0.2036,0.2346,0.3143,0.4423,0.6341,0.863,0.9104,0.931,0.9211,0.9083,0.8994,0.894,0.894,0.894,0.894,0.894,0.894,0.894,0.894,0.894,0.894,0.894,0.894,0.894,0.9051,0.9106,0.9217,0.9651,0.9981,1.0147,1.0633,1.1709,1.3047,1.3957,1.4505,1.5321,1.6367,1.6985,1.813,1.9701,2.0788,2.1082,2.1109,2.1109,2.1109,2.1109,2.1109,2.1109,2.1109,2.1109,2.1109,2.1109,2.1109,2.1109,2.1203,2.1456,2.1617,2.1601,2.1617,2.1857,2.1857,2.1815,2.2124,2.2485,2.2712,2.2859,2.2859,2.2873,2.3006,2.326,2.3567,2.3915,2.4329,2.4496,2.4314,2.438,2.4284,2.4741,2.5104,2.508,2.4495,2.4579,2.4698,2.5279,2.5859,2.6122,2.6386,2.64,2.64,0.0,0.0,0.0,0.0,0.0,0.0,0.0,0.0,0.0,0.0,0.0,0.0561,0.0897,0.129,0.1571,0.1797,0.1798,0.1824,0.1853,0.1883,0.1911,0.1934,0.1958,0.1969,0.1971,0.2037,0.2038,0.2652,0.3448,0.3753,0.5035,0.6176,0.8301,0.9144,0.934,0.9157,0.9028,0.896,0.894,0.894,0.894,0.894,0.894,0.894,0.894,0.894,0.894,0.894,0.894,0.894,0.9106,0.921,0.9265,0.9706,0.9981,1.0147,1.0421,1.1362,1.2311,1.3548,1.4293,1.5054,1.6046,1.7126,1.7769,1.9578,2.065,2.0952,2.1069,2.1109,2.1109,2.1109,2.1109,2.1109,2.1109,2.1109,2.1109,2.1109,2.1109,2.1109,2.1229,2.1456,2.155,2.1483,2.163,2.1857,2.1884,2.1777,2.2124,2.2432,2.2712,2.2859,2.2859,2.2886,2.2939,2.322,2.3647,2.3955,2.4289,2.4502,2.4549,2.469,2.4743,2.505,2.5291,2.5598,2.5879,2.5636,2.5569,2.6043,2.64,2.64,2.64,2.64,2.64,0.0,0.0,0.0,0.0,0.0,0.0,0.0,0.0,0.0,0.0,0.0056,0.0617,0.0953,0.1177,0.1572,0.1806,0.1821,0.1775,0.1812,0.1903,0.1929,0.1949,0.1967,0.2038,0.2038,0.2038,0.2038,0.2099,0.259,0.3387,0.4671,0.6115,0.7561,0.8639,0.9013,0.9164,0.9008,0.8967,0.894,0.894,0.894,0.894,0.894,0.894,0.894,0.894,0.894,0.894,0.894,0.894,0.9051,0.9099,0.9154,0.9596,0.9816,1.0036,1.0312,1.0798,1.1481,1.2717,1.3492,1.4056,1.5511,1.6982,1.7123,1.8325,1.9743,2.0388,2.1015,2.1056,2.1109,2.1109,2.1109,2.1109,2.1109,2.1109,2.1109,2.1109,2.1109,2.1109,2.1203,2.1376,2.143,2.147,2.1657,2.1857,2.1844,2.1884,2.2124,2.2485,2.2712,2.2859,2.2859,2.2913,2.2966,2.3327,2.3754,2.4022,2.4275,2.4462,2.4636,2.4562,2.4756,2.5104,2.5464,2.5745,2.5985,2.6159,2.6279,2.636,2.64,2.64,2.64,2.6413,2.6426,0.0,0.0,0.0,0.0,0.0,0.0,0.0,0.0,0.0,0.0,0.0168,0.0561,0.0901,0.1128,0.147,0.177,0.1793,0.1811,0.1836,0.1861,0.1943,0.1956,0.197,0.2038,0.2038,0.2038,0.2038,0.21,0.216,0.2958,0.3937,0.514,0.6473,0.7746,0.9058,0.9103,0.8885,0.894,0.894,0.894,0.894,0.894,0.894,0.894,0.894,0.894,0.894,0.894,0.894,0.894,0.894,0.894,0.9051,0.9217,0.9485,0.9761,1.0036,1.0359,1.0894,1.1835,1.299,1.4051,1.4961,1.6046,1.6655,1.7492,1.8985,2.0544,2.0882,2.1015,2.1056,2.1109,2.1109,2.1109,2.1109,2.1109,2.1109,2.1109,2.1109,2.1109,2.1216,2.1323,2.167,2.1724,2.1617,2.179,2.1844,2.1897,2.2058,2.2392,2.2766,2.2859,2.2859,2.2926,2.302,2.342,2.3808,2.4088,2.4329,2.4502,2.4636,2.4589,2.4863,2.5277,2.5611,2.5879,2.6092,2.6266,2.6333,2.6386,2.64,2.64,2.652,2.6533,2.6507,0.0,0.0,0.0,0.0,0.0,0.0,0.0,0.0,0.0,0.0112,0.0281,0.045,0.0794,0.1203,0.1437,0.1625,0.1825,0.1849,0.1869,0.1939,0.1958,0.1973,0.1975,0.2038,0.2038,0.2038,0.2038,0.2038,0.2038,0.2276,0.3011,0.427,0.5774,0.7284,0.9174,0.9089,0.8892,0.894,0.894,0.894,0.894,0.894,0.894,0.894,0.894,0.894,0.894,0.894,0.894,0.894,0.894,0.894,0.894,0.9161,0.9382,0.9485,0.9981,1.0257,1.0421,1.1673,1.281,1.4097,1.4915,1.5656,1.7162,1.8021,1.8507,1.9941,2.0571,2.0869,2.0989,2.1109,2.1109,2.1109,2.1109,2.1109,2.1109,2.1109,2.1109,2.1109,2.1162,2.1309,2.1777,2.2017,2.1724,2.171,2.1804,2.1924,2.2058,2.2392,2.2806,2.2859,2.2873,2.3006,2.3153,2.35,2.3848,2.4142,2.4369,2.4556,2.4716,2.4823,2.509,2.5451,2.5718,2.5945,2.6159,2.6373,2.6386,2.64,2.64,2.6426,2.656,2.664,2.6573,0.0,0.0,0.0,0.0,0.0,0.0,0.0,0.0,0.0,0.0,0.0171,0.0285,0.0633,0.0989,0.1346,0.1533,0.1854,0.1922,0.1875,0.1962,0.1973,0.1975,0.2038,0.2038,0.2038,0.2038,0.2038,0.2036,0.2037,0.1958,0.2735,0.3984,0.5621,0.7605,0.8786,0.9035,0.894,0.894,0.894,0.894,0.894,0.894,0.894,0.894,0.894,0.894,0.894,0.894,0.894,0.894,0.894,0.894,0.894,0.9106,0.9161,0.9327,0.9706,0.9926,1.0202,1.0987,1.1795,1.3228,1.4504,1.5232,1.6253,1.7398,1.8276,1.9183,2.0041,2.0513,2.1029,2.1096,2.1046,2.1109,2.1109,2.1109,2.1109,2.1109,2.1109,2.1109,2.1136,2.1176,2.1483,2.2031,2.1937,2.1804,2.1897,2.1951,2.2058,2.2458,2.2859,2.2859,2.2899,2.306,2.3273,2.3581,2.3861,2.4142,2.4382,2.4583,2.4756,2.493,2.5064,2.5291,2.5651,2.6077,2.6172,2.6319,2.6373,2.64,2.64,2.6533,2.6747,2.6707,2.6547,0.0,0.0,0.0,0.0,0.0,0.0,0.0,0.0,0.0,0.0,0.0,0.023,0.0466,0.0768,0.113,0.1439,0.1763,0.1887,0.1951,0.1977,0.2038,0.2038,0.2038,0.2037,0.2038,0.2036,0.1964,0.1959,0.1956,0.1929,0.2624,0.3945,0.5734,0.6987,0.8108,0.8585,0.894,0.894,0.894,0.894,0.894,0.894,0.894,0.894,0.894,0.894,0.894,0.894,0.894,0.894,0.894,0.894,0.894,0.894,0.9051,0.9161,0.9382,0.9651,0.9981,1.0312,1.1368,1.288,1.3828,1.4635,1.5403,1.6473,1.7468,1.8362,1.9345,2.0286,2.0889,2.0943,2.0716,2.0716,2.0589,2.0589,2.1046,2.1046,2.1032,2.1032,2.1162,2.1176,2.1296,2.175,2.2111,2.2044,2.2004,2.2044,2.2111,2.2512,2.2859,2.2859,2.2899,2.3046,2.3273,2.3581,2.3875,2.4155,2.4396,2.4623,2.481,2.497,2.505,2.5197,2.5705,2.6079,2.6159,2.6253,2.6346,2.64,2.64,2.66,2.6894,2.676,2.652,0.0,0.0,0.0,0.0,0.0,0.0,0.0,0.0,0.0,0.0,0.0,0.0,0.0235,0.0541,0.0845,0.1217,0.1537,0.1848,0.1974,0.1975,0.2038,0.2037,0.1971,0.197,0.1962,0.1956,0.1947,0.1929,0.1866,0.1899,0.2511,0.3574,0.4804,0.6172,0.7248,0.8116,0.8657,0.8823,0.894,0.894,0.894,0.894,0.894,0.894,0.894,0.894,0.894,0.894,0.894,0.894,0.894,0.894,0.894,0.894,0.894,0.8995,0.9217,0.9485,0.9761,1.0036,1.0771,1.2065,1.287,1.3983,1.4949,1.5693,1.6643,1.7584,1.8508,1.9723,2.0648,2.0397,2.0068,1.9941,1.975,2.0132,2.0843,2.0982,2.0969,2.1009,2.1229,2.1323,2.1537,2.1911,2.2258,2.2044,2.2004,2.2178,2.2285,2.2606,2.2887,2.2859,2.2926,2.302,2.3273,2.3567,2.3875,2.4155,2.4436,2.4676,2.485,2.5024,2.5144,2.5384,2.5892,2.6172,2.6253,2.6306,2.6373,2.64,2.644,2.672,2.7028,2.668,2.648,0.0,0.0,0.0,0.0,0.0,0.0,0.0,0.0,0.0,0.0,0.0,0.0,0.0,0.0551,0.0859,0.1169,0.148,0.1791,0.1977,0.2038,0.1973,0.196,0.1951,0.1944,0.1933,0.1918,0.1904,0.1899,0.1892,0.1868,0.2467,0.3559,0.4011,0.5274,0.6437,0.7432,0.8097,0.8657,0.8823,0.894,0.894,0.894,0.894,0.894,0.894,0.894,0.894,0.894,0.894,0.894,0.894,0.894,0.894,0.894,0.894,0.894,0.9051,0.9154,0.9485,0.9596,1.0125,1.1184,1.2069,1.3161,1.4173,1.4968,1.5855,1.6686,1.7514,1.8603,1.9764,1.984,1.9877,1.9877,1.9419,1.9164,1.9814,2.0208,2.0208,2.0705,2.0924,2.1316,2.1593,2.2191,2.2365,2.215,2.2083,2.2218,2.2418,2.2727,2.2874,2.2846,2.2886,2.2979,2.326,2.3554,2.3861,2.4155,2.4436,2.4716,2.497,2.513,2.5251,2.5478,2.5812,2.6106,2.6333,2.6373,2.6386,2.648,2.6547,2.6867,2.7028,2.672,2.66,0.0,0.0,0.0,0.0,0.0,0.0,0.0,0.0,0.0,0.0,0.0,0.0,0.0122,0.0308,0.0617,0.0988,0.1296,0.1606,0.1853,0.1974,0.1963,0.1949,0.1934,0.1918,0.1906,0.1887,0.1873,0.1868,0.1859,0.1896,0.2316,0.2751,0.3189,0.4362,0.5532,0.6538,0.7487,0.8097,0.8546,0.8823,0.894,0.894,0.894,0.894,0.894,0.894,0.894,0.894,0.894,0.894,0.894,0.894,0.894,0.894,0.894,0.894,0.894,0.8989,0.921,0.9375,0.9666,1.0196,1.1166,1.1762,1.2844,1.3753,1.4659,1.5597,1.6444,1.7366,1.8506,1.9483,1.975,2.0068,1.9036,1.8075,1.846,1.9036,1.9584,2.0208,2.0644,2.1111,2.1621,2.2204,2.2512,2.2285,2.2205,2.2298,2.2472,2.2659,2.2792,2.2859,2.2873,2.2926,2.322,2.3487,2.3781,2.4088,2.4409,2.4703,2.501,2.5304,2.5478,2.5531,2.5611,2.5932,2.6279,2.636,2.6413,2.6493,2.6627,2.6921,2.7041,2.6881,2.6867,0.0,0.0,0.0,0.0,0.0,0.0,0.0,0.0,0.0,0.0,0.0,0.0,0.0,0.0,0.0432,0.0741,0.111,0.1416,0.1719,0.197,0.194,0.1921,0.1907,0.1896,0.1876,0.1866,0.1855,0.1836,0.1829,0.1814,0.1859,0.1908,0.2744,0.3636,0.4306,0.5532,0.6422,0.7038,0.7931,0.8546,0.883,0.894,0.894,0.894,0.894,0.894,0.894,0.894,0.894,0.894,0.894,0.894,0.894,0.894,0.894,0.894,0.894,0.894,0.8989,0.9154,0.9441,0.9781,1.0135,1.0664,1.1614,1.2457,1.3335,1.4485,1.5359,1.6517,1.7701,1.7912,1.8075,1.8139,1.7496,1.7173,1.7625,1.8332,1.924,1.9991,2.0903,2.1202,2.128,2.1872,2.2285,2.2285,2.2365,2.2405,2.2472,2.2632,2.2779,2.2859,2.2873,2.2913,2.3073,2.334,2.3661,2.3981,2.4342,2.4783,2.517,2.5451,2.5718,2.5758,2.5798,2.5945,2.6186,2.6306,2.6413,2.6466,2.664,2.6947,2.7014,2.6974,2.7028,0.0,0.0,0.0,0.0,0.0,0.0,0.0,0.0,0.0,0.0,0.0,0.0,0.0,0.0,0.0,0.0617,0.0985,0.1222,0.158,0.1811,0.1852,0.1888,0.1809,0.1858,0.184,0.182,0.1809,0.1809,0.1808,0.18,0.1794,0.1794,0.2353,0.2688,0.3413,0.4585,0.5087,0.581,0.7093,0.8103,0.8657,0.883,0.894,0.894,0.894,0.894,0.894,0.894,0.894,0.894,0.894,0.894,0.894,0.894,0.894,0.894,0.894,0.894,0.8947,0.9023,0.9279,0.9509,0.9829,1.0111,1.0606,1.1162,1.2056,1.3252,1.4364,1.559,1.6434,1.6335,1.6268,1.6138,1.5944,1.6333,1.6721,1.7689,1.8716,1.9616,2.0669,2.1124,2.111,2.1464,2.1912,2.2138,2.2325,2.2405,2.2392,2.2512,2.2779,2.2859,2.2859,2.2913,2.302,2.3287,2.3647,2.3981,2.4342,2.481,2.5317,2.5491,2.5665,2.5905,2.6052,2.6079,2.6146,2.6319,2.6413,2.6453,2.6747,2.7081,2.7188,2.7175,2.7188,0.0,0.0,0.0,0.0,0.0,0.0,0.0,0.0,0.0,0.0,0.0,0.0,0.0,0.0,0.0,0.0491,0.0795,0.103,0.1323,0.1608,0.1823,0.1862,0.1842,0.1827,0.1814,0.1797,0.1795,0.1795,0.1794,0.1794,0.1794,0.1794,0.1851,0.213,0.2912,0.3245,0.3857,0.4637,0.6144,0.7265,0.8159,0.8491,0.883,0.894,0.894,0.894,0.894,0.894,0.894,0.894,0.894,0.894,0.894,0.894,0.894,0.894,0.894,0.894,0.8954,0.9015,0.913,0.9415,0.9586,0.993,0.9995,1.0565,1.1072,1.2096,1.2461,1.3517,1.4364,1.4567,1.4698,1.4633,1.439,1.439,1.5098,1.5998,1.6581,1.6969,1.8319,1.9747,2.0072,2.1201,2.1635,2.2004,2.2191,2.2271,2.2271,2.227,2.2576,2.2859,2.2859,2.2873,2.2939,2.3273,2.3714,2.4035,2.4342,2.4983,2.5504,2.5504,2.5611,2.5919,2.6052,2.5972,2.6079,2.6319,2.64,2.6413,2.68,2.7323,2.7295,2.7321,2.7321,0.0,0.0,0.0,0.0,0.0,0.0,0.0,0.0,0.0,0.0,0.0,0.0,0.0,0.0,0.0,0.0,0.0543,0.0836,0.1126,0.1408,0.1733,0.1776,0.1823,0.1809,0.1801,0.1797,0.1795,0.1794,0.1794,0.1794,0.1794,0.1794,0.1794,0.185,0.213,0.2632,0.3357,0.386,0.492,0.6204,0.7204,0.8152,0.8712,0.894,0.894,0.894,0.894,0.894,0.894,0.894,0.894,0.894,0.894,0.894,0.894,0.894,0.894,0.894,0.896,0.9062,0.9205,0.9367,0.9523,0.9659,0.9774,1.0073,1.0507,1.0837,1.1192,1.1724,1.2605,1.3079,1.3202,1.3267,1.2955,1.2766,1.3604,1.4511,1.4772,1.4977,1.6637,1.8349,1.9394,2.0598,2.1227,2.1661,2.1753,2.1952,2.2044,2.1997,2.2095,2.2585,2.2859,2.2873,2.2886,2.33,2.3768,2.4035,2.4409,2.513,2.5665,2.5665,2.5772,2.5999,2.6079,2.5985,2.6119,2.636,2.64,2.64,2.6854,2.7336,2.7363,2.7321,2.7375,0.0,0.0,0.0,0.0,0.0,0.0,0.0,0.0,0.0,0.0,0.0,0.0,0.0,0.0,0.0,0.0,0.0418,0.0707,0.1048,0.1383,0.1595,0.1753,0.1804,0.1802,0.1797,0.1794,0.1794,0.1794,0.1794,0.1794,0.1794,0.1794,0.1794,0.1794,0.185,0.2242,0.2409,0.2912,0.358,0.4697,0.5477,0.67,0.8602,0.894,0.894,0.894,0.894,0.894,0.894,0.894,0.894,0.894,0.894,0.894,0.894,0.894,0.894,0.894,0.8981,0.9083,0.9218,0.9367,0.9523,0.9666,0.9768,0.9842,1.0191,1.0461,1.0827,1.1221,1.1919,1.2076,1.2165,1.2231,1.2107,1.2107,1.2561,1.3341,1.3923,1.5091,1.6674,1.7851,1.8659,1.9646,2.0444,2.0441,1.967,2.0057,2.1885,2.1797,2.1596,2.2229,2.2859,2.2859,2.2886,2.338,2.3821,2.4075,2.4462,2.5184,2.5665,2.5889,2.6023,2.6052,2.6092,2.6039,2.6213,2.64,2.64,2.6466,2.6921,2.7336,2.7363,2.739,2.7335]}]]